<?xml version='1.0' encoding='UTF-8'?><gpx version="1.1" creator="JPX - https://github.com/jenetics/jpx" xmlns="http://www.topografix.com/GPX/1/1"><trk><trkseg><trkpt lat="38.08789920814849" lon="13.346553322617101"><ele>76.0</ele><time>2026-04-26T06:43:21.999Z</time></trkpt><trkpt lat="38.08793181832045" lon="13.346624260738889"><ele>76.0</ele><time>2026-04-26T06:43:24.999Z</time></trkpt><trkpt lat="38.08794153336682" lon="13.34675879133152"><ele>76.0</ele><time>2026-04-26T06:43:27.999Z</time></trkpt><trkpt lat="38.087857491196424" lon="13.346844702986973"><ele>76.0</ele><time>2026-04-26T06:43:28.999Z</time></trkpt><trkpt lat="38.08779144481907" lon="13.346942319604292"><ele>76.0</ele><time>2026-04-26T06:43:29.999Z</time></trkpt><trkpt lat="38.08773691989186" lon="13.347029946086668"><ele>76.0</ele><time>2026-04-26T06:43:30.999Z</time></trkpt><trkpt lat="38.08768820588365" lon="13.347113662217955"><ele>76.0</ele><time>2026-04-26T06:43:31.999Z</time></trkpt><trkpt lat="38.08764074670424" lon="13.34719661256881"><ele>76.0</ele><time>2026-04-26T06:43:32.999Z</time></trkpt><trkpt lat="38.0875822370303" lon="13.347287698311057"><ele>76.0</ele><time>2026-04-26T06:43:33.999Z</time></trkpt><trkpt lat="38.08752705586356" lon="13.347372913605707"><ele>76.0</ele><time>2026-04-26T06:43:34.999Z</time></trkpt><trkpt lat="38.087454252213384" lon="13.34747779850672"><ele>77.25</ele><time>2026-04-26T06:43:35.999Z</time></trkpt><trkpt lat="38.08738048931846" lon="13.347606135499564"><ele>78.5</ele><time>2026-04-26T06:43:37Z</time></trkpt><trkpt lat="38.08731090637397" lon="13.347734892811044"><ele>79.75</ele><time>2026-04-26T06:43:38Z</time></trkpt><trkpt lat="38.08724052214199" lon="13.347865421932177"><ele>81.0</ele><time>2026-04-26T06:43:39Z</time></trkpt><trkpt lat="38.08716799862547" lon="13.348009955209388"><ele>80.5</ele><time>2026-04-26T06:43:40Z</time></trkpt><trkpt lat="38.08709842142458" lon="13.348157070069849"><ele>80.0</ele><time>2026-04-26T06:43:41Z</time></trkpt><trkpt lat="38.087031377349746" lon="13.348299384926046"><ele>79.5</ele><time>2026-04-26T06:43:42Z</time></trkpt><trkpt lat="38.0869694458046" lon="13.348438962232681"><ele>79.0</ele><time>2026-04-26T06:43:43Z</time></trkpt><trkpt lat="38.086904857750476" lon="13.34858507624973"><ele>79.0</ele><time>2026-04-26T06:43:44Z</time></trkpt><trkpt lat="38.086850717720274" lon="13.348736267628992"><ele>79.0</ele><time>2026-04-26T06:43:45Z</time></trkpt><trkpt lat="38.08679749479803" lon="13.348877337979404"><ele>79.0</ele><time>2026-04-26T06:43:46Z</time></trkpt><trkpt lat="38.08674641314969" lon="13.349011892948486"><ele>79.0</ele><time>2026-04-26T06:43:47Z</time></trkpt><trkpt lat="38.08669460286357" lon="13.349152043234572"><ele>78.75</ele><time>2026-04-26T06:43:48Z</time></trkpt><trkpt lat="38.08663711581001" lon="13.349292267886339"><ele>78.5</ele><time>2026-04-26T06:43:49Z</time></trkpt><trkpt lat="38.08657927960759" lon="13.34943418803028"><ele>78.25</ele><time>2026-04-26T06:43:50Z</time></trkpt><trkpt lat="38.0865234572422" lon="13.349577054434219"><ele>78.0</ele><time>2026-04-26T06:43:51Z</time></trkpt><trkpt lat="38.08646961515135" lon="13.349722687485137"><ele>77.5</ele><time>2026-04-26T06:43:52Z</time></trkpt><trkpt lat="38.08641661462686" lon="13.34987215116527"><ele>77.0</ele><time>2026-04-26T06:43:53Z</time></trkpt><trkpt lat="38.08637065211851" lon="13.350014497228532"><ele>76.5</ele><time>2026-04-26T06:43:54Z</time></trkpt><trkpt lat="38.086327738233926" lon="13.350159247317215"><ele>76.0</ele><time>2026-04-26T06:43:55Z</time></trkpt><trkpt lat="38.08628800760961" lon="13.350308924497336"><ele>76.0</ele><time>2026-04-26T06:43:56Z</time></trkpt><trkpt lat="38.08624730690419" lon="13.350461450630613"><ele>76.0</ele><time>2026-04-26T06:43:57Z</time></trkpt><trkpt lat="38.08620630480534" lon="13.350621771548871"><ele>76.0</ele><time>2026-04-26T06:43:58Z</time></trkpt><trkpt lat="38.08617092925633" lon="13.350781006397566"><ele>76.0</ele><time>2026-04-26T06:43:59Z</time></trkpt><trkpt lat="38.08614466014562" lon="13.350946982586835"><ele>75.5</ele><time>2026-04-26T06:44:00Z</time></trkpt><trkpt lat="38.0861243719385" lon="13.351113008729426"><ele>75.0</ele><time>2026-04-26T06:44:01Z</time></trkpt><trkpt lat="38.08611020291684" lon="13.351295086997977"><ele>74.5</ele><time>2026-04-26T06:44:02Z</time></trkpt><trkpt lat="38.08610194080057" lon="13.351483908062853"><ele>74.0</ele><time>2026-04-26T06:44:03Z</time></trkpt><trkpt lat="38.08609930707874" lon="13.351666062137888"><ele>74.0</ele><time>2026-04-26T06:44:04Z</time></trkpt><trkpt lat="38.08610060550091" lon="13.351830832285627"><ele>74.0</ele><time>2026-04-26T06:44:05Z</time></trkpt><trkpt lat="38.086097985181155" lon="13.35197897963174"><ele>74.0</ele><time>2026-04-26T06:44:06Z</time></trkpt><trkpt lat="38.086090546612276" lon="13.352120283488892"><ele>74.0</ele><time>2026-04-26T06:44:07Z</time></trkpt><trkpt lat="38.086066046072226" lon="13.352240824356489"><ele>74.0</ele><time>2026-04-26T06:44:08Z</time></trkpt><trkpt lat="38.08601153334819" lon="13.35233157444079"><ele>74.0</ele><time>2026-04-26T06:44:09Z</time></trkpt><trkpt lat="38.08594307353107" lon="13.352382918088253"><ele>74.0</ele><time>2026-04-26T06:44:10Z</time></trkpt><trkpt lat="38.08584989816641" lon="13.352396505699089"><ele>74.0</ele><time>2026-04-26T06:44:11Z</time></trkpt><trkpt lat="38.08575987242803" lon="13.35242884577427"><ele>74.0</ele><time>2026-04-26T06:44:12Z</time></trkpt><trkpt lat="38.085687535627876" lon="13.352440945779211"><ele>74.0</ele><time>2026-04-26T06:44:13Z</time></trkpt><trkpt lat="38.085588148513274" lon="13.352464368281824"><ele>74.25</ele><time>2026-04-26T06:44:14Z</time></trkpt><trkpt lat="38.085483047671694" lon="13.352485275734468"><ele>74.5</ele><time>2026-04-26T06:44:15Z</time></trkpt><trkpt lat="38.085393358079706" lon="13.352507927883815"><ele>74.75</ele><time>2026-04-26T06:44:16Z</time></trkpt><trkpt lat="38.085292159089754" lon="13.352533486841319"><ele>75.0</ele><time>2026-04-26T06:44:18Z</time></trkpt><trkpt lat="38.08529667074138" lon="13.352776609971432"><ele>75.0</ele><time>2026-04-26T06:44:19Z</time></trkpt><trkpt lat="38.08529005066299" lon="13.352937149025088"><ele>75.0</ele><time>2026-04-26T06:44:20Z</time></trkpt><trkpt lat="38.08526095025704" lon="13.353120600840473"><ele>75.0</ele><time>2026-04-26T06:44:21Z</time></trkpt><trkpt lat="38.085223016102596" lon="13.3533257950423"><ele>75.0</ele><time>2026-04-26T06:44:22Z</time></trkpt><trkpt lat="38.08518225860799" lon="13.35354113646381"><ele>75.33333333333333</ele><time>2026-04-26T06:44:23Z</time></trkpt><trkpt lat="38.08514434324904" lon="13.353767201346274"><ele>75.66666666666666</ele><time>2026-04-26T06:44:24Z</time></trkpt><trkpt lat="38.08511074911888" lon="13.353963332047325"><ele>76.0</ele><time>2026-04-26T06:44:25Z</time></trkpt><trkpt lat="38.08507549018025" lon="13.354165147975943"><ele>76.0</ele><time>2026-04-26T06:44:26Z</time></trkpt><trkpt lat="38.08504152561237" lon="13.354365291873973"><ele>76.0</ele><time>2026-04-26T06:44:27Z</time></trkpt><trkpt lat="38.085008200177825" lon="13.354562102283866"><ele>76.0</ele><time>2026-04-26T06:44:28Z</time></trkpt><trkpt lat="38.08497254447487" lon="13.354763979930462"><ele>75.75</ele><time>2026-04-26T06:44:29Z</time></trkpt><trkpt lat="38.08493805914191" lon="13.354962879717908"><ele>75.5</ele><time>2026-04-26T06:44:30Z</time></trkpt><trkpt lat="38.084909245667845" lon="13.355136927409434"><ele>75.25</ele><time>2026-04-26T06:44:31Z</time></trkpt><trkpt lat="38.08488120823507" lon="13.355276252169713"><ele>75.0</ele><time>2026-04-26T06:44:32Z</time></trkpt><trkpt lat="38.08484689851853" lon="13.355399404627715"><ele>75.0</ele><time>2026-04-26T06:44:33Z</time></trkpt><trkpt lat="38.08478917166327" lon="13.355522945549662"><ele>75.0</ele><time>2026-04-26T06:44:34Z</time></trkpt><trkpt lat="38.084708725896135" lon="13.35565108050106"><ele>75.0</ele><time>2026-04-26T06:44:35Z</time></trkpt><trkpt lat="38.08460812737261" lon="13.35576417577479"><ele>75.0</ele><time>2026-04-26T06:44:36Z</time></trkpt><trkpt lat="38.08447646189463" lon="13.35586468756901"><ele>75.0</ele><time>2026-04-26T06:44:37Z</time></trkpt><trkpt lat="38.08431659036846" lon="13.355964883620832"><ele>75.0</ele><time>2026-04-26T06:44:38Z</time></trkpt><trkpt lat="38.08415094563893" lon="13.356049989597308"><ele>75.0</ele><time>2026-04-26T06:44:39Z</time></trkpt><trkpt lat="38.08397564062022" lon="13.356145636442601"><ele>74.66666666666667</ele><time>2026-04-26T06:44:40.001Z</time></trkpt><trkpt lat="38.083791142688696" lon="13.356248413185657"><ele>74.33333333333334</ele><time>2026-04-26T06:44:41.001Z</time></trkpt><trkpt lat="38.08361193457207" lon="13.356342433031223"><ele>74.0</ele><time>2026-04-26T06:44:42.001Z</time></trkpt><trkpt lat="38.08343704741434" lon="13.356432447828713"><ele>75.0</ele><time>2026-04-26T06:44:43.001Z</time></trkpt><trkpt lat="38.083259858679405" lon="13.356527475277046"><ele>76.0</ele><time>2026-04-26T06:44:44.001Z</time></trkpt><trkpt lat="38.0830966301467" lon="13.356616094698675"><ele>77.0</ele><time>2026-04-26T06:44:45.001Z</time></trkpt><trkpt lat="38.08292581167509" lon="13.356707376034642"><ele>77.0</ele><time>2026-04-26T06:44:46.001Z</time></trkpt><trkpt lat="38.08276662082206" lon="13.356793567766804"><ele>77.0</ele><time>2026-04-26T06:44:47.001Z</time></trkpt><trkpt lat="38.08259127782169" lon="13.356888878405757"><ele>77.0</ele><time>2026-04-26T06:44:48.001Z</time></trkpt><trkpt lat="38.08242453415838" lon="13.35696710400679"><ele>76.33333333333334</ele><time>2026-04-26T06:44:49.001Z</time></trkpt><trkpt lat="38.08225033116911" lon="13.357049636865677"><ele>75.66666666666667</ele><time>2026-04-26T06:44:50.001Z</time></trkpt><trkpt lat="38.08207989494016" lon="13.357125260499505"><ele>75.0</ele><time>2026-04-26T06:44:51.001Z</time></trkpt><trkpt lat="38.08191205949219" lon="13.3572014824191"><ele>75.66666666666667</ele><time>2026-04-26T06:44:52.001Z</time></trkpt><trkpt lat="38.08174923924346" lon="13.357273830915446"><ele>76.33333333333334</ele><time>2026-04-26T06:44:53.001Z</time></trkpt><trkpt lat="38.08158624758461" lon="13.357354341929362"><ele>77.0</ele><time>2026-04-26T06:44:54.001Z</time></trkpt><trkpt lat="38.08142233953653" lon="13.357434298102884"><ele>77.0</ele><time>2026-04-26T06:44:55.001Z</time></trkpt><trkpt lat="38.08126012248387" lon="13.357510010346886"><ele>77.0</ele><time>2026-04-26T06:44:56.001Z</time></trkpt><trkpt lat="38.08110706747845" lon="13.357586410260692"><ele>77.0</ele><time>2026-04-26T06:44:57.001Z</time></trkpt><trkpt lat="38.08094685957838" lon="13.357659942703734"><ele>77.0</ele><time>2026-04-26T06:44:58.001Z</time></trkpt><trkpt lat="38.080786245689396" lon="13.357728085253495"><ele>77.0</ele><time>2026-04-26T06:44:59.001Z</time></trkpt><trkpt lat="38.08062891843595" lon="13.35780192885701"><ele>77.0</ele><time>2026-04-26T06:45:00.001Z</time></trkpt><trkpt lat="38.080477946647704" lon="13.35787252828537"><ele>77.0</ele><time>2026-04-26T06:45:01.001Z</time></trkpt><trkpt lat="38.08033147350752" lon="13.357938559016784"><ele>77.0</ele><time>2026-04-26T06:45:02.001Z</time></trkpt><trkpt lat="38.08020516953041" lon="13.357997085814002"><ele>77.0</ele><time>2026-04-26T06:45:03.001Z</time></trkpt><trkpt lat="38.08010004933315" lon="13.35804642253644"><ele>77.0</ele><time>2026-04-26T06:45:04.001Z</time></trkpt><trkpt lat="38.08001841726093" lon="13.358095499720307"><ele>77.0</ele><time>2026-04-26T06:45:05.001Z</time></trkpt><trkpt lat="38.079943327662996" lon="13.358140445180451"><ele>77.0</ele><time>2026-04-26T06:45:06.001Z</time></trkpt><trkpt lat="38.07990930804667" lon="13.35839126906633"><ele>77.0</ele><time>2026-04-26T06:45:08.001Z</time></trkpt><trkpt lat="38.07992862945171" lon="13.358513448965086"><ele>77.0</ele><time>2026-04-26T06:45:09.001Z</time></trkpt><trkpt lat="38.07996997905657" lon="13.358640894269861"><ele>77.0</ele><time>2026-04-26T06:45:09.998Z</time></trkpt><trkpt lat="38.080025055527585" lon="13.35879707054901"><ele>77.0</ele><time>2026-04-26T06:45:10.998Z</time></trkpt><trkpt lat="38.08008085857927" lon="13.358960772897456"><ele>77.0</ele><time>2026-04-26T06:45:11.998Z</time></trkpt><trkpt lat="38.08013615965401" lon="13.359139640869794"><ele>77.0</ele><time>2026-04-26T06:45:12.998Z</time></trkpt><trkpt lat="38.08019461361084" lon="13.35932088463524"><ele>77.0</ele><time>2026-04-26T06:45:13.998Z</time></trkpt><trkpt lat="38.080262793127496" lon="13.359518058043832"><ele>77.0</ele><time>2026-04-26T06:45:14.998Z</time></trkpt><trkpt lat="38.080332837858855" lon="13.359724262999444"><ele>77.0</ele><time>2026-04-26T06:45:15.998Z</time></trkpt><trkpt lat="38.08039688656995" lon="13.35991973671894"><ele>76.66666666666667</ele><time>2026-04-26T06:45:16.998Z</time></trkpt><trkpt lat="38.08046198850508" lon="13.360105525659288"><ele>76.33333333333333</ele><time>2026-04-26T06:45:17.998Z</time></trkpt><trkpt lat="38.080521256423644" lon="13.36028173667764"><ele>76.0</ele><time>2026-04-26T06:45:18.998Z</time></trkpt><trkpt lat="38.08057807085367" lon="13.360459679331129"><ele>75.75</ele><time>2026-04-26T06:45:19.998Z</time></trkpt><trkpt lat="38.08063114907192" lon="13.360626877768883"><ele>75.5</ele><time>2026-04-26T06:45:20.998Z</time></trkpt><trkpt lat="38.080689276267734" lon="13.36080405568007"><ele>75.25</ele><time>2026-04-26T06:45:21.998Z</time></trkpt><trkpt lat="38.08074903448019" lon="13.36098214895389"><ele>75.0</ele><time>2026-04-26T06:45:22.998Z</time></trkpt><trkpt lat="38.080805608321626" lon="13.361151709519657"><ele>75.4</ele><time>2026-04-26T06:45:23.999Z</time></trkpt><trkpt lat="38.08084982302464" lon="13.361299109238576"><ele>75.8</ele><time>2026-04-26T06:45:24.999Z</time></trkpt><trkpt lat="38.08088941156405" lon="13.361421771758543"><ele>76.2</ele><time>2026-04-26T06:45:25.999Z</time></trkpt><trkpt lat="38.08091771985323" lon="13.36150290933098"><ele>76.6</ele><time>2026-04-26T06:45:26.999Z</time></trkpt><trkpt lat="38.08094705617741" lon="13.361610732482756"><ele>77.0</ele><time>2026-04-26T06:45:28.999Z</time></trkpt><trkpt lat="38.08085743595019" lon="13.361633952241355"><ele>76.75</ele><time>2026-04-26T06:45:30.999Z</time></trkpt><trkpt lat="38.08078792942724" lon="13.361686557558798"><ele>76.5</ele><time>2026-04-26T06:45:31.999Z</time></trkpt><trkpt lat="38.080689769843325" lon="13.361760848651224"><ele>76.25</ele><time>2026-04-26T06:45:32.999Z</time></trkpt><trkpt lat="38.08057027431793" lon="13.361851119108715"><ele>76.0</ele><time>2026-04-26T06:45:33.999Z</time></trkpt><trkpt lat="38.08045784559067" lon="13.361952705023134"><ele>76.0</ele><time>2026-04-26T06:45:34.999Z</time></trkpt><trkpt lat="38.080335389046994" lon="13.362036792504918"><ele>76.0</ele><time>2026-04-26T06:45:35.999Z</time></trkpt><trkpt lat="38.080216245552045" lon="13.362120895688577"><ele>76.0</ele><time>2026-04-26T06:45:36.999Z</time></trkpt><trkpt lat="38.08008874188234" lon="13.36220521576216"><ele>76.0</ele><time>2026-04-26T06:45:37.999Z</time></trkpt><trkpt lat="38.07997377594059" lon="13.362295849826424"><ele>76.0</ele><time>2026-04-26T06:45:38.999Z</time></trkpt><trkpt lat="38.07985351284557" lon="13.36238494383595"><ele>76.0</ele><time>2026-04-26T06:45:39.999Z</time></trkpt><trkpt lat="38.07974130338357" lon="13.362469859608572"><ele>76.0</ele><time>2026-04-26T06:45:40.999Z</time></trkpt><trkpt lat="38.0796297320852" lon="13.362556077887358"><ele>76.0</ele><time>2026-04-26T06:45:41.999Z</time></trkpt><trkpt lat="38.079510839778614" lon="13.362639957973174"><ele>76.0</ele><time>2026-04-26T06:45:42.999Z</time></trkpt><trkpt lat="38.07939212983557" lon="13.362722794131688"><ele>76.0</ele><time>2026-04-26T06:45:43.999Z</time></trkpt><trkpt lat="38.07927033275917" lon="13.362802750642018"><ele>76.0</ele><time>2026-04-26T06:45:45Z</time></trkpt><trkpt lat="38.07914929180162" lon="13.362863566681318"><ele>76.0</ele><time>2026-04-26T06:45:46Z</time></trkpt><trkpt lat="38.079026654330114" lon="13.362931612822123"><ele>76.25</ele><time>2026-04-26T06:45:47Z</time></trkpt><trkpt lat="38.078901509162634" lon="13.362997010534887"><ele>76.5</ele><time>2026-04-26T06:45:48Z</time></trkpt><trkpt lat="38.078773857581275" lon="13.363072155113086"><ele>76.75</ele><time>2026-04-26T06:45:49Z</time></trkpt><trkpt lat="38.07864212128035" lon="13.363141135595749"><ele>77.0</ele><time>2026-04-26T06:45:50Z</time></trkpt><trkpt lat="38.07851295639371" lon="13.363215976251157"><ele>77.0</ele><time>2026-04-26T06:45:51Z</time></trkpt><trkpt lat="38.07838388544354" lon="13.363300474280733"><ele>77.0</ele><time>2026-04-26T06:45:52Z</time></trkpt><trkpt lat="38.07825444246505" lon="13.36338269088769"><ele>77.0</ele><time>2026-04-26T06:45:53Z</time></trkpt><trkpt lat="38.07812952640277" lon="13.363470182189971"><ele>77.0</ele><time>2026-04-26T06:45:54Z</time></trkpt><trkpt lat="38.07800226661115" lon="13.363560871752675"><ele>77.66666666666667</ele><time>2026-04-26T06:45:55Z</time></trkpt><trkpt lat="38.0778698747303" lon="13.36365289571941"><ele>78.33333333333333</ele><time>2026-04-26T06:45:56Z</time></trkpt><trkpt lat="38.07773457635115" lon="13.363745819412863"><ele>79.0</ele><time>2026-04-26T06:45:57Z</time></trkpt><trkpt lat="38.07760539367242" lon="13.36383723883131"><ele>79.5</ele><time>2026-04-26T06:45:58Z</time></trkpt><trkpt lat="38.077476716306975" lon="13.36392752845574"><ele>80.0</ele><time>2026-04-26T06:45:59Z</time></trkpt><trkpt lat="38.07734745046396" lon="13.36402253078336"><ele>80.5</ele><time>2026-04-26T06:46:00Z</time></trkpt><trkpt lat="38.07721923028335" lon="13.364109559208904"><ele>81.0</ele><time>2026-04-26T06:46:01Z</time></trkpt><trkpt lat="38.07708793158722" lon="13.364195991164806"><ele>82.0</ele><time>2026-04-26T06:46:02Z</time></trkpt><trkpt lat="38.076971408998304" lon="13.364268252150067"><ele>83.0</ele><time>2026-04-26T06:46:03Z</time></trkpt><trkpt lat="38.076865387511575" lon="13.36433004079781"><ele>84.0</ele><time>2026-04-26T06:46:04Z</time></trkpt><trkpt lat="38.076765487614246" lon="13.36438795614307"><ele>85.0</ele><time>2026-04-26T06:46:05Z</time></trkpt><trkpt lat="38.0766756864502" lon="13.364440790762158"><ele>86.33333333333333</ele><time>2026-04-26T06:46:06Z</time></trkpt><trkpt lat="38.07659825695515" lon="13.364486689394628"><ele>87.66666666666666</ele><time>2026-04-26T06:46:07Z</time></trkpt><trkpt lat="38.07652558652202" lon="13.364537325753398"><ele>89.0</ele><time>2026-04-26T06:46:08Z</time></trkpt><trkpt lat="38.0764581459861" lon="13.364572339421853"><ele>90.33333333333333</ele><time>2026-04-26T06:46:09Z</time></trkpt><trkpt lat="38.076386226668426" lon="13.364582353049268"><ele>91.66666666666667</ele><time>2026-04-26T06:46:10Z</time></trkpt><trkpt lat="38.07632032817197" lon="13.36462688484345"><ele>93.0</ele><time>2026-04-26T06:46:12Z</time></trkpt><trkpt lat="38.07625756007871" lon="13.364591906890334"><ele>93.0</ele><time>2026-04-26T06:46:15Z</time></trkpt><trkpt lat="38.0762153110605" lon="13.364651919029296"><ele>93.0</ele><time>2026-04-26T06:46:22Z</time></trkpt><trkpt lat="38.07630288078488" lon="13.364617890736493"><ele>93.0</ele><time>2026-04-26T06:46:25Z</time></trkpt><trkpt lat="38.076364171808095" lon="13.364591921935876"><ele>93.0</ele><time>2026-04-26T06:46:26Z</time></trkpt><trkpt lat="38.07629135683974" lon="13.364725844029328"><ele>93.0</ele><time>2026-04-26T06:46:27Z</time></trkpt><trkpt lat="38.07661332680282" lon="13.364497441878493"><ele>91.0</ele><time>2026-04-26T06:46:28.001Z</time></trkpt><trkpt lat="38.076722814706756" lon="13.364426463335215"><ele>89.0</ele><time>2026-04-26T06:46:29.001Z</time></trkpt><trkpt lat="38.076848536707935" lon="13.364346409344346"><ele>87.0</ele><time>2026-04-26T06:46:30.001Z</time></trkpt><trkpt lat="38.076971363308026" lon="13.364263798249848"><ele>85.0</ele><time>2026-04-26T06:46:31.001Z</time></trkpt><trkpt lat="38.07710537809169" lon="13.364178929702025"><ele>85.0</ele><time>2026-04-26T06:46:32.001Z</time></trkpt><trkpt lat="38.07723880090248" lon="13.36409694110123"><ele>85.0</ele><time>2026-04-26T06:46:33.001Z</time></trkpt><trkpt lat="38.07735995696126" lon="13.364017599949547"><ele>85.0</ele><time>2026-04-26T06:46:34.001Z</time></trkpt><trkpt lat="38.07747782510537" lon="13.363935544688784"><ele>85.0</ele><time>2026-04-26T06:46:35.001Z</time></trkpt><trkpt lat="38.07759741606315" lon="13.363860778196061"><ele>83.5</ele><time>2026-04-26T06:46:36.001Z</time></trkpt><trkpt lat="38.077706005005915" lon="13.36378663308378"><ele>82.0</ele><time>2026-04-26T06:46:37.001Z</time></trkpt><trkpt lat="38.07782841702399" lon="13.363721410190397"><ele>80.5</ele><time>2026-04-26T06:46:38.001Z</time></trkpt><trkpt lat="38.07794325551167" lon="13.363616610518024"><ele>79.0</ele><time>2026-04-26T06:46:39.001Z</time></trkpt><trkpt lat="38.07806850494945" lon="13.363529876080268"><ele>79.0</ele><time>2026-04-26T06:46:40.001Z</time></trkpt><trkpt lat="38.078200166448845" lon="13.363458893035476"><ele>79.0</ele><time>2026-04-26T06:46:41.001Z</time></trkpt><trkpt lat="38.07831581855164" lon="13.363382734197478"><ele>79.0</ele><time>2026-04-26T06:46:42.001Z</time></trkpt><trkpt lat="38.078424552371416" lon="13.363301209971642"><ele>79.0</ele><time>2026-04-26T06:46:43.001Z</time></trkpt><trkpt lat="38.07854961876568" lon="13.363245263975925"><ele>78.5</ele><time>2026-04-26T06:46:44.001Z</time></trkpt><trkpt lat="38.07867319576924" lon="13.363174656107066"><ele>78.0</ele><time>2026-04-26T06:46:45.001Z</time></trkpt><trkpt lat="38.07879587880966" lon="13.363106408150077"><ele>77.5</ele><time>2026-04-26T06:46:46.001Z</time></trkpt><trkpt lat="38.07890721246627" lon="13.363021869745657"><ele>77.0</ele><time>2026-04-26T06:46:47.001Z</time></trkpt><trkpt lat="38.07902381878028" lon="13.362968132265197"><ele>76.75</ele><time>2026-04-26T06:46:48.001Z</time></trkpt><trkpt lat="38.079141822427914" lon="13.362902232982888"><ele>76.5</ele><time>2026-04-26T06:46:49.001Z</time></trkpt><trkpt lat="38.079261562226876" lon="13.362841530996528"><ele>76.25</ele><time>2026-04-26T06:46:50.001Z</time></trkpt><trkpt lat="38.079375418958634" lon="13.362769498398773"><ele>76.0</ele><time>2026-04-26T06:46:51.001Z</time></trkpt><trkpt lat="38.07947857315771" lon="13.362697972412018"><ele>76.0</ele><time>2026-04-26T06:46:52.001Z</time></trkpt><trkpt lat="38.07957884368788" lon="13.36262590861201"><ele>76.0</ele><time>2026-04-26T06:46:53.001Z</time></trkpt><trkpt lat="38.079674381303946" lon="13.362552203794701"><ele>76.0</ele><time>2026-04-26T06:46:54.001Z</time></trkpt><trkpt lat="38.079765875067174" lon="13.362487570238375"><ele>76.0</ele><time>2026-04-26T06:46:55.001Z</time></trkpt><trkpt lat="38.07985331476504" lon="13.362424523906354"><ele>76.0</ele><time>2026-04-26T06:46:56.001Z</time></trkpt><trkpt lat="38.079937802175394" lon="13.362365462677925"><ele>75.8</ele><time>2026-04-26T06:46:57.001Z</time></trkpt><trkpt lat="38.08000916355465" lon="13.362320405544205"><ele>75.6</ele><time>2026-04-26T06:47:00.001Z</time></trkpt><trkpt lat="38.08007041211131" lon="13.362297250836985"><ele>75.4</ele><time>2026-04-26T06:47:04.001Z</time></trkpt><trkpt lat="38.0800031791254" lon="13.362296862588313"><ele>75.2</ele><time>2026-04-26T06:47:08.001Z</time></trkpt><trkpt lat="38.07997142922663" lon="13.362444584796716"><ele>75.0</ele><time>2026-04-26T06:47:09.001Z</time></trkpt><trkpt lat="38.07999105319178" lon="13.362612582768211"><ele>75.0</ele><time>2026-04-26T06:47:13.001Z</time></trkpt><trkpt lat="38.080033111001676" lon="13.362734866087568"><ele>75.0</ele><time>2026-04-26T06:47:14.001Z</time></trkpt><trkpt lat="38.08007877923672" lon="13.36286271991943"><ele>75.0</ele><time>2026-04-26T06:47:15.001Z</time></trkpt><trkpt lat="38.080127328904155" lon="13.363000595798821"><ele>75.0</ele><time>2026-04-26T06:47:15.999Z</time></trkpt><trkpt lat="38.08017715486984" lon="13.363132282258661"><ele>75.0</ele><time>2026-04-26T06:47:16.999Z</time></trkpt><trkpt lat="38.080225162553404" lon="13.363240170977239"><ele>75.4</ele><time>2026-04-26T06:47:17.999Z</time></trkpt><trkpt lat="38.08027360251868" lon="13.363338448265509"><ele>75.8</ele><time>2026-04-26T06:47:18.999Z</time></trkpt><trkpt lat="38.08033510863081" lon="13.363422869564271"><ele>76.2</ele><time>2026-04-26T06:47:19.999Z</time></trkpt><trkpt lat="38.080416633700324" lon="13.36348117079061"><ele>76.6</ele><time>2026-04-26T06:47:20.999Z</time></trkpt><trkpt lat="38.08050023701495" lon="13.36354585680517"><ele>77.0</ele><time>2026-04-26T06:47:21.999Z</time></trkpt><trkpt lat="38.08055018354222" lon="13.363654484852649"><ele>77.0</ele><time>2026-04-26T06:47:22.999Z</time></trkpt><trkpt lat="38.08060988613729" lon="13.363761905763022"><ele>77.0</ele><time>2026-04-26T06:47:23.999Z</time></trkpt><trkpt lat="38.08066412153012" lon="13.363891134331498"><ele>77.0</ele><time>2026-04-26T06:47:24.999Z</time></trkpt><trkpt lat="38.08071954671962" lon="13.364022172296979"><ele>77.0</ele><time>2026-04-26T06:47:25.999Z</time></trkpt><trkpt lat="38.08077132709714" lon="13.364153266071076"><ele>76.2</ele><time>2026-04-26T06:47:26.999Z</time></trkpt><trkpt lat="38.080819406025235" lon="13.364292268818193"><ele>75.4</ele><time>2026-04-26T06:47:27.999Z</time></trkpt><trkpt lat="38.08086477161269" lon="13.36442193344784"><ele>74.6</ele><time>2026-04-26T06:47:28.999Z</time></trkpt><trkpt lat="38.0809054651641" lon="13.364550431849828"><ele>73.8</ele><time>2026-04-26T06:47:29.999Z</time></trkpt><trkpt lat="38.08094930980917" lon="13.364676901064822"><ele>73.0</ele><time>2026-04-26T06:47:30.999Z</time></trkpt><trkpt lat="38.08099836355531" lon="13.36480998431585"><ele>73.0</ele><time>2026-04-26T06:47:31.999Z</time></trkpt><trkpt lat="38.081046815325514" lon="13.364944112416403"><ele>73.0</ele><time>2026-04-26T06:47:32.999Z</time></trkpt><trkpt lat="38.08107499778748" lon="13.365079046278636"><ele>73.0</ele><time>2026-04-26T06:47:33.999Z</time></trkpt><trkpt lat="38.08111560052851" lon="13.365216730367107"><ele>73.0</ele><time>2026-04-26T06:47:34.999Z</time></trkpt><trkpt lat="38.08115310879608" lon="13.365349295669034"><ele>73.0</ele><time>2026-04-26T06:47:35.999Z</time></trkpt><trkpt lat="38.08119449527921" lon="13.365495567809477"><ele>73.0</ele><time>2026-04-26T06:47:36.999Z</time></trkpt><trkpt lat="38.08124947693766" lon="13.36562871743203"><ele>73.0</ele><time>2026-04-26T06:47:37.999Z</time></trkpt><trkpt lat="38.081295962249555" lon="13.365766616036874"><ele>73.0</ele><time>2026-04-26T06:47:39Z</time></trkpt><trkpt lat="38.08136310951458" lon="13.365896376739924"><ele>72.25</ele><time>2026-04-26T06:47:40Z</time></trkpt><trkpt lat="38.08144481245845" lon="13.366020638613568"><ele>71.5</ele><time>2026-04-26T06:47:41Z</time></trkpt><trkpt lat="38.08148887592005" lon="13.366181463360695"><ele>70.75</ele><time>2026-04-26T06:47:42Z</time></trkpt><trkpt lat="38.08153696789299" lon="13.366329559422077"><ele>70.0</ele><time>2026-04-26T06:47:43Z</time></trkpt><trkpt lat="38.08159187345967" lon="13.366463334194538"><ele>69.2</ele><time>2026-04-26T06:47:44Z</time></trkpt><trkpt lat="38.08162636224466" lon="13.366592355467848"><ele>68.4</ele><time>2026-04-26T06:47:45Z</time></trkpt><trkpt lat="38.081658691488656" lon="13.366709123119344"><ele>67.6</ele><time>2026-04-26T06:47:46Z</time></trkpt><trkpt lat="38.08168877658039" lon="13.366818525222529"><ele>66.8</ele><time>2026-04-26T06:47:47Z</time></trkpt><trkpt lat="38.08171636475115" lon="13.366933395893136"><ele>66.0</ele><time>2026-04-26T06:47:48Z</time></trkpt><trkpt lat="38.081747212383725" lon="13.367048459710368"><ele>66.0</ele><time>2026-04-26T06:47:49Z</time></trkpt><trkpt lat="38.08178428310302" lon="13.367160819286813"><ele>66.0</ele><time>2026-04-26T06:47:50Z</time></trkpt><trkpt lat="38.081837633135805" lon="13.367263297597653"><ele>66.0</ele><time>2026-04-26T06:47:51Z</time></trkpt><trkpt lat="38.08186931530562" lon="13.36736083776217"><ele>66.0</ele><time>2026-04-26T06:47:52Z</time></trkpt><trkpt lat="38.08190461073656" lon="13.367506799171014"><ele>66.0</ele><time>2026-04-26T06:47:54Z</time></trkpt><trkpt lat="38.08193897082317" lon="13.367607970471168"><ele>66.2</ele><time>2026-04-26T06:47:56Z</time></trkpt><trkpt lat="38.08185711819693" lon="13.367676149892496"><ele>66.39999999999999</ele><time>2026-04-26T06:47:59Z</time></trkpt><trkpt lat="38.08175412584161" lon="13.367678598552402"><ele>66.6</ele><time>2026-04-26T06:48:00Z</time></trkpt><trkpt lat="38.08164285275395" lon="13.367694625326154"><ele>66.8</ele><time>2026-04-26T06:48:01Z</time></trkpt><trkpt lat="38.08151873602759" lon="13.367720144867913"><ele>67.0</ele><time>2026-04-26T06:48:02Z</time></trkpt><trkpt lat="38.081385021812295" lon="13.367754404658932"><ele>67.25</ele><time>2026-04-26T06:48:03Z</time></trkpt><trkpt lat="38.08125582416671" lon="13.367780037794045"><ele>67.5</ele><time>2026-04-26T06:48:04Z</time></trkpt><trkpt lat="38.08113033960598" lon="13.36781835047978"><ele>67.75</ele><time>2026-04-26T06:48:05Z</time></trkpt><trkpt lat="38.08101541179454" lon="13.367848712428295"><ele>68.0</ele><time>2026-04-26T06:48:06Z</time></trkpt><trkpt lat="38.08088852208468" lon="13.367881111486493"><ele>68.0</ele><time>2026-04-26T06:48:07Z</time></trkpt><trkpt lat="38.080774733894565" lon="13.3679187304065"><ele>68.0</ele><time>2026-04-26T06:48:08Z</time></trkpt><trkpt lat="38.08065449567416" lon="13.367958873695818"><ele>68.0</ele><time>2026-04-26T06:48:09Z</time></trkpt><trkpt lat="38.08052511464841" lon="13.367996656439294"><ele>68.0</ele><time>2026-04-26T06:48:10Z</time></trkpt><trkpt lat="38.080398284533146" lon="13.368030336839821"><ele>69.25</ele><time>2026-04-26T06:48:11Z</time></trkpt><trkpt lat="38.08026086666354" lon="13.368073502791926"><ele>70.5</ele><time>2026-04-26T06:48:12Z</time></trkpt><trkpt lat="38.08012087491279" lon="13.368114138368329"><ele>71.75</ele><time>2026-04-26T06:48:13.001Z</time></trkpt><trkpt lat="38.07999056455278" lon="13.368155164361225"><ele>73.0</ele><time>2026-04-26T06:48:14.001Z</time></trkpt><trkpt lat="38.07986719786809" lon="13.368185653619603"><ele>73.5</ele><time>2026-04-26T06:48:15.001Z</time></trkpt><trkpt lat="38.07973838479879" lon="13.368230295816794"><ele>74.0</ele><time>2026-04-26T06:48:16.001Z</time></trkpt><trkpt lat="38.079612753350304" lon="13.368291515210045"><ele>74.5</ele><time>2026-04-26T06:48:17.001Z</time></trkpt><trkpt lat="38.079492704622155" lon="13.368336224084032"><ele>75.0</ele><time>2026-04-26T06:48:18.001Z</time></trkpt><trkpt lat="38.07938154862564" lon="13.368375948080034"><ele>75.0</ele><time>2026-04-26T06:48:19.001Z</time></trkpt><trkpt lat="38.07926528491795" lon="13.368391809261214"><ele>75.0</ele><time>2026-04-26T06:48:20.001Z</time></trkpt><trkpt lat="38.079137285480456" lon="13.368403058130724"><ele>75.0</ele><time>2026-04-26T06:48:21.001Z</time></trkpt><trkpt lat="38.079016088520305" lon="13.368414161474139"><ele>75.0</ele><time>2026-04-26T06:48:22.001Z</time></trkpt><trkpt lat="38.078885173814136" lon="13.368443837692885"><ele>75.25</ele><time>2026-04-26T06:48:23.001Z</time></trkpt><trkpt lat="38.07876858015053" lon="13.368409820627898"><ele>75.5</ele><time>2026-04-26T06:48:24.001Z</time></trkpt><trkpt lat="38.078647020343034" lon="13.368413597833579"><ele>75.75</ele><time>2026-04-26T06:48:25.001Z</time></trkpt><trkpt lat="38.07853090199683" lon="13.368386757702153"><ele>76.0</ele><time>2026-04-26T06:48:26.001Z</time></trkpt><trkpt lat="38.0784198119072" lon="13.368373750572799"><ele>76.0</ele><time>2026-04-26T06:48:27.001Z</time></trkpt><trkpt lat="38.07830709431626" lon="13.368334824128823"><ele>76.0</ele><time>2026-04-26T06:48:28.001Z</time></trkpt><trkpt lat="38.07819979557992" lon="13.368332216213693"><ele>76.0</ele><time>2026-04-26T06:48:29.001Z</time></trkpt><trkpt lat="38.07812464038511" lon="13.368351468581597"><ele>76.0</ele><time>2026-04-26T06:48:30.001Z</time></trkpt><trkpt lat="38.07804883651083" lon="13.368336079468191"><ele>76.0</ele><time>2026-04-26T06:48:31.001Z</time></trkpt><trkpt lat="38.0779809479948" lon="13.368329258590766"><ele>76.0</ele><time>2026-04-26T06:48:32.001Z</time></trkpt><trkpt lat="38.07790952188872" lon="13.368318669052524"><ele>77.5</ele><time>2026-04-26T06:48:33.001Z</time></trkpt><trkpt lat="38.077762282795035" lon="13.36829253470543"><ele>79.0</ele><time>2026-04-26T06:48:35.001Z</time></trkpt><trkpt lat="38.07765756659284" lon="13.36830937872795"><ele>80.5</ele><time>2026-04-26T06:48:36.001Z</time></trkpt><trkpt lat="38.07754884220926" lon="13.36833054083105"><ele>82.0</ele><time>2026-04-26T06:48:37.001Z</time></trkpt><trkpt lat="38.07743392238561" lon="13.368355602609652"><ele>83.5</ele><time>2026-04-26T06:48:38.001Z</time></trkpt><trkpt lat="38.07730857780822" lon="13.3683813280846"><ele>85.0</ele><time>2026-04-26T06:48:39.001Z</time></trkpt><trkpt lat="38.0771944253322" lon="13.3684204681935"><ele>86.5</ele><time>2026-04-26T06:48:40.001Z</time></trkpt><trkpt lat="38.07706695546847" lon="13.368437902847457"><ele>88.0</ele><time>2026-04-26T06:48:41.001Z</time></trkpt><trkpt lat="38.07695153670596" lon="13.368464434489391"><ele>88.0</ele><time>2026-04-26T06:48:42.001Z</time></trkpt><trkpt lat="38.07682040853037" lon="13.36849912060623"><ele>88.0</ele><time>2026-04-26T06:48:43.001Z</time></trkpt><trkpt lat="38.07668413428555" lon="13.368533279682927"><ele>88.0</ele><time>2026-04-26T06:48:44.001Z</time></trkpt><trkpt lat="38.07654532456329" lon="13.368555468477867"><ele>88.0</ele><time>2026-04-26T06:48:45.001Z</time></trkpt><trkpt lat="38.076402655277285" lon="13.368565584239922"><ele>90.75</ele><time>2026-04-26T06:48:46.001Z</time></trkpt><trkpt lat="38.07627034813408" lon="13.368604845825425"><ele>93.5</ele><time>2026-04-26T06:48:47.001Z</time></trkpt><trkpt lat="38.076139243896286" lon="13.368623415928768"><ele>96.25</ele><time>2026-04-26T06:48:48.001Z</time></trkpt><trkpt lat="38.07600871858461" lon="13.368629970367444"><ele>99.0</ele><time>2026-04-26T06:48:49.001Z</time></trkpt><trkpt lat="38.075875708386754" lon="13.368640484867749"><ele>102.25</ele><time>2026-04-26T06:48:50.001Z</time></trkpt><trkpt lat="38.0757516228262" lon="13.368644888481006"><ele>105.5</ele><time>2026-04-26T06:48:51.001Z</time></trkpt><trkpt lat="38.07562390650912" lon="13.368659583391997"><ele>108.75</ele><time>2026-04-26T06:48:52.001Z</time></trkpt><trkpt lat="38.075484693293824" lon="13.368671340811558"><ele>112.0</ele><time>2026-04-26T06:48:53.001Z</time></trkpt><trkpt lat="38.07534812589574" lon="13.368685093287205"><ele>112.0</ele><time>2026-04-26T06:48:54.001Z</time></trkpt><trkpt lat="38.07520177653315" lon="13.368690391690729"><ele>112.0</ele><time>2026-04-26T06:48:55.001Z</time></trkpt><trkpt lat="38.07506988779226" lon="13.368696242990376"><ele>112.0</ele><time>2026-04-26T06:48:56.001Z</time></trkpt><trkpt lat="38.074944171921615" lon="13.368675715144235"><ele>112.0</ele><time>2026-04-26T06:48:57.001Z</time></trkpt><trkpt lat="38.07482241740076" lon="13.368673666849777"><ele>115.75</ele><time>2026-04-26T06:48:58.002Z</time></trkpt><trkpt lat="38.07471286793458" lon="13.368668551642623"><ele>119.5</ele><time>2026-04-26T06:48:59.002Z</time></trkpt><trkpt lat="38.074602865090974" lon="13.36865265178181"><ele>123.25</ele><time>2026-04-26T06:49:00.002Z</time></trkpt><trkpt lat="38.074485781980634" lon="13.368618010234384"><ele>127.0</ele><time>2026-04-26T06:49:01.002Z</time></trkpt><trkpt lat="38.07437530627015" lon="13.368565262798489"><ele>127.0</ele><time>2026-04-26T06:49:02.002Z</time></trkpt><trkpt lat="38.074258971650266" lon="13.36850219302596"><ele>127.0</ele><time>2026-04-26T06:49:03.002Z</time></trkpt><trkpt lat="38.07413270421195" lon="13.368456277002634"><ele>127.0</ele><time>2026-04-26T06:49:04.002Z</time></trkpt><trkpt lat="38.07400481516569" lon="13.368432163297971"><ele>127.0</ele><time>2026-04-26T06:49:05.002Z</time></trkpt><trkpt lat="38.073874422518365" lon="13.368425399437712"><ele>131.25</ele><time>2026-04-26T06:49:06.002Z</time></trkpt><trkpt lat="38.073748039036076" lon="13.368382560438457"><ele>135.5</ele><time>2026-04-26T06:49:07.002Z</time></trkpt><trkpt lat="38.07363257312637" lon="13.368340581901341"><ele>139.75</ele><time>2026-04-26T06:49:08.002Z</time></trkpt><trkpt lat="38.07351039658966" lon="13.368305123052268"><ele>144.0</ele><time>2026-04-26T06:49:09.002Z</time></trkpt><trkpt lat="38.073386891255204" lon="13.368296993807279"><ele>149.0</ele><time>2026-04-26T06:49:10.002Z</time></trkpt><trkpt lat="38.07326251797633" lon="13.368284420455021"><ele>154.0</ele><time>2026-04-26T06:49:11.002Z</time></trkpt><trkpt lat="38.07313497261964" lon="13.36827789723931"><ele>159.0</ele><time>2026-04-26T06:49:12.002Z</time></trkpt><trkpt lat="38.07300790152911" lon="13.368265283923012"><ele>164.0</ele><time>2026-04-26T06:49:13.002Z</time></trkpt><trkpt lat="38.07289031916261" lon="13.368243789225286"><ele>164.0</ele><time>2026-04-26T06:49:14.002Z</time></trkpt><trkpt lat="38.072804642889466" lon="13.368212469217744"><ele>164.0</ele><time>2026-04-26T06:49:15.002Z</time></trkpt><trkpt lat="38.07274175808943" lon="13.368180481530912"><ele>164.0</ele><time>2026-04-26T06:49:16.002Z</time></trkpt><trkpt lat="38.07266733446834" lon="13.368136493403945"><ele>164.0</ele><time>2026-04-26T06:49:18.002Z</time></trkpt><trkpt lat="38.07259483946081" lon="13.36811621335023"><ele>164.0</ele><time>2026-04-26T06:49:20.002Z</time></trkpt><trkpt lat="38.07251243511625" lon="13.368136557159838"><ele>164.0</ele><time>2026-04-26T06:51:10.002Z</time></trkpt><trkpt lat="38.07244011924024" lon="13.368167676013316"><ele>168.6</ele><time>2026-04-26T06:51:11.002Z</time></trkpt><trkpt lat="38.072349598370366" lon="13.368201232876753"><ele>173.2</ele><time>2026-04-26T06:51:12.002Z</time></trkpt><trkpt lat="38.0722569538094" lon="13.368237382679878"><ele>177.79999999999998</ele><time>2026-04-26T06:51:13.002Z</time></trkpt><trkpt lat="38.07216487847975" lon="13.368278499696943"><ele>182.39999999999998</ele><time>2026-04-26T06:51:14.002Z</time></trkpt><trkpt lat="38.07206762369859" lon="13.368325881033158"><ele>187.0</ele><time>2026-04-26T06:51:15.002Z</time></trkpt><trkpt lat="38.071976754201394" lon="13.36837902053012"><ele>187.0</ele><time>2026-04-26T06:51:16.002Z</time></trkpt><trkpt lat="38.07190132471981" lon="13.368419835552546"><ele>187.0</ele><time>2026-04-26T06:51:17.002Z</time></trkpt><trkpt lat="38.07179528627833" lon="13.368468848592185"><ele>187.0</ele><time>2026-04-26T06:51:19.002Z</time></trkpt><trkpt lat="38.07171908994711" lon="13.368495790975858"><ele>187.0</ele><time>2026-04-26T06:51:21.002Z</time></trkpt><trkpt lat="38.07164573546248" lon="13.368536863266211"><ele>187.0</ele><time>2026-04-26T06:51:24.002Z</time></trkpt><trkpt lat="38.0716908471701" lon="13.368622788408862"><ele>187.0</ele><time>2026-04-26T06:51:45.001Z</time></trkpt><trkpt lat="38.071740917444586" lon="13.368706699038022"><ele>187.0</ele><time>2026-04-26T06:51:50.001Z</time></trkpt><trkpt lat="38.071769766207126" lon="13.3687886817338"><ele>187.0</ele><time>2026-04-26T06:51:52.001Z</time></trkpt><trkpt lat="38.07182754812396" lon="13.36886507668122"><ele>187.0</ele><time>2026-04-26T06:51:55.001Z</time></trkpt><trkpt lat="38.071779596967815" lon="13.368924009000938"><ele>187.0</ele><time>2026-04-26T06:51:58.001Z</time></trkpt><trkpt lat="38.07169696498131" lon="13.368921592665334"><ele>187.0</ele><time>2026-04-26T06:52:01.001Z</time></trkpt><trkpt lat="38.07164444422421" lon="13.368874924879885"><ele>187.0</ele><time>2026-04-26T06:52:04.001Z</time></trkpt><trkpt lat="38.07155159643773" lon="13.368896511053066"><ele>193.66666666666669</ele><time>2026-04-26T06:52:07.001Z</time></trkpt><trkpt lat="38.07148220668468" lon="13.368913495596727"><ele>200.33333333333334</ele><time>2026-04-26T06:52:20.001Z</time></trkpt><trkpt lat="38.07140863651568" lon="13.368936334850611"><ele>207.0</ele><time>2026-04-26T06:52:52.002Z</time></trkpt><trkpt lat="38.07134731439394" lon="13.36896846113864"><ele>213.66666666666669</ele><time>2026-04-26T06:52:55.002Z</time></trkpt><trkpt lat="38.07126376185862" lon="13.36900254891865"><ele>220.33333333333334</ele><time>2026-04-26T06:53:12.002Z</time></trkpt><trkpt lat="38.071196684854385" lon="13.369052459255235"><ele>227.0</ele><time>2026-04-26T06:53:17.002Z</time></trkpt><trkpt lat="38.071118973144216" lon="13.369088636530279"><ele>227.0</ele><time>2026-04-26T06:53:20.002Z</time></trkpt><trkpt lat="38.071043211477836" lon="13.369124799263865"><ele>227.0</ele><time>2026-04-26T06:53:22.002Z</time></trkpt><trkpt lat="38.07097146709838" lon="13.36919547556435"><ele>227.0</ele><time>2026-04-26T06:53:24.002Z</time></trkpt><trkpt lat="38.07089900711904" lon="13.369226844991223"><ele>227.0</ele><time>2026-04-26T06:53:26.002Z</time></trkpt><trkpt lat="38.07097584974244" lon="13.369303554698794"><ele>227.0</ele><time>2026-04-26T06:53:30.003Z</time></trkpt><trkpt lat="38.07109605216896" lon="13.369290466395716"><ele>227.00000000000003</ele><time>2026-04-26T06:53:32.003Z</time></trkpt><trkpt lat="38.07118313056311" lon="13.369319324417297"><ele>227.0</ele><time>2026-04-26T06:53:34.001Z</time></trkpt><trkpt lat="38.071238009694326" lon="13.369366763205878"><ele>227.0</ele><time>2026-04-26T06:53:35.001Z</time></trkpt><trkpt lat="38.07132555936748" lon="13.369415674787469"><ele>227.0</ele><time>2026-04-26T06:53:37.001Z</time></trkpt><trkpt lat="38.07140619402304" lon="13.369487983883678"><ele>227.00000000000003</ele><time>2026-04-26T06:53:39.001Z</time></trkpt><trkpt lat="38.07148538998153" lon="13.369495475810329"><ele>227.0</ele><time>2026-04-26T06:53:41.001Z</time></trkpt><trkpt lat="38.07154270774563" lon="13.36956550722049"><ele>227.00000000000003</ele><time>2026-04-26T06:53:43.001Z</time></trkpt><trkpt lat="38.07148382213927" lon="13.369605536751518"><ele>227.0</ele><time>2026-04-26T06:53:45.001Z</time></trkpt><trkpt lat="38.071393632561936" lon="13.36961283528892"><ele>227.0</ele><time>2026-04-26T06:53:47.001Z</time></trkpt><trkpt lat="38.07132223372708" lon="13.369611456063703"><ele>227.0</ele><time>2026-04-26T06:53:48.001Z</time></trkpt><trkpt lat="38.07124197080649" lon="13.36961366526947"><ele>227.00000000000003</ele><time>2026-04-26T06:53:49.001Z</time></trkpt><trkpt lat="38.07115100286031" lon="13.369642577151884"><ele>227.0</ele><time>2026-04-26T06:53:50.001Z</time></trkpt><trkpt lat="38.071062833616196" lon="13.369665547031516"><ele>232.00000000000003</ele><time>2026-04-26T06:53:51.001Z</time></trkpt><trkpt lat="38.07099216338099" lon="13.369696156354477"><ele>237.0</ele><time>2026-04-26T06:53:52.001Z</time></trkpt><trkpt lat="38.07091929561547" lon="13.369726827358768"><ele>242.0</ele><time>2026-04-26T06:53:53.001Z</time></trkpt><trkpt lat="38.07081923126851" lon="13.369789904431322"><ele>247.0</ele><time>2026-04-26T06:53:55.001Z</time></trkpt><trkpt lat="38.07074381385919" lon="13.36983725525359"><ele>252.00000000000003</ele><time>2026-04-26T06:53:57.001Z</time></trkpt><trkpt lat="38.07066680841633" lon="13.369862900887188"><ele>257.0</ele><time>2026-04-26T06:53:59.001Z</time></trkpt><trkpt lat="38.07059688242678" lon="13.369888423293567"><ele>258.57142857142856</ele><time>2026-04-26T06:54:01.001Z</time></trkpt><trkpt lat="38.070545812130995" lon="13.36993654412035"><ele>260.14285714285717</ele><time>2026-04-26T06:54:03.001Z</time></trkpt><trkpt lat="38.070487328747895" lon="13.369987854276603"><ele>261.7142857142857</ele><time>2026-04-26T06:54:06.001Z</time></trkpt><trkpt lat="38.07040510418504" lon="13.370010092981287"><ele>263.2857142857143</ele><time>2026-04-26T06:54:09.001Z</time></trkpt><trkpt lat="38.07035194855907" lon="13.370059162585381"><ele>264.85714285714283</ele><time>2026-04-26T06:54:40.001Z</time></trkpt><trkpt lat="38.07029343389509" lon="13.370128831214723"><ele>266.42857142857144</ele><time>2026-04-26T06:54:44.001Z</time></trkpt><trkpt lat="38.070225157843595" lon="13.370162926977692"><ele>268.0</ele><time>2026-04-26T06:54:47.001Z</time></trkpt><trkpt lat="38.07015130261353" lon="13.370188412165778"><ele>268.0</ele><time>2026-04-26T06:54:50.001Z</time></trkpt><trkpt lat="38.070075035681604" lon="13.370223574368021"><ele>268.0</ele><time>2026-04-26T06:54:53.001Z</time></trkpt><trkpt lat="38.07002040194625" lon="13.370273594424525"><ele>268.0</ele><time>2026-04-26T06:54:55.002Z</time></trkpt><trkpt lat="38.0699427945768" lon="13.370310047470223"><ele>268.0</ele><time>2026-04-26T06:54:57.002Z</time></trkpt><trkpt lat="38.06987748483454" lon="13.370350410758174"><ele>268.0</ele><time>2026-04-26T06:54:59.002Z</time></trkpt><trkpt lat="38.069908110614925" lon="13.37042309406796"><ele>268.0</ele><time>2026-04-26T06:55:03.002Z</time></trkpt><trkpt lat="38.0700056020278" lon="13.370450206656967"><ele>268.0</ele><time>2026-04-26T06:55:05.002Z</time></trkpt><trkpt lat="38.07011184364445" lon="13.370470748882083"><ele>268.0</ele><time>2026-04-26T06:55:07.002Z</time></trkpt><trkpt lat="38.07018819830528" lon="13.370496999779354"><ele>268.0</ele><time>2026-04-26T06:55:10.002Z</time></trkpt><trkpt lat="38.07014901323234" lon="13.370578008730854"><ele>268.0</ele><time>2026-04-26T06:55:12.002Z</time></trkpt><trkpt lat="38.0700623804344" lon="13.370576855374333"><ele>268.0</ele><time>2026-04-26T06:55:14.002Z</time></trkpt><trkpt lat="38.069972452156165" lon="13.370582097551708"><ele>268.0</ele><time>2026-04-26T06:55:16.002Z</time></trkpt><trkpt lat="38.06987417850984" lon="13.370640460168717"><ele>275.2</ele><time>2026-04-26T06:55:18.002Z</time></trkpt><trkpt lat="38.06978889994341" lon="13.370702770721701"><ele>282.4</ele><time>2026-04-26T06:55:20.002Z</time></trkpt><trkpt lat="38.06972836170399" lon="13.370786976728871"><ele>289.59999999999997</ele><time>2026-04-26T06:55:22.002Z</time></trkpt><trkpt lat="38.06966255977054" lon="13.370835299242655"><ele>296.8</ele><time>2026-04-26T06:55:24.002Z</time></trkpt><trkpt lat="38.069571912799866" lon="13.370887863115279"><ele>304.0</ele><time>2026-04-26T06:55:26.002Z</time></trkpt><trkpt lat="38.0694674553115" lon="13.370919929295093"><ele>304.0</ele><time>2026-04-26T06:55:29.002Z</time></trkpt><trkpt lat="38.069390105428766" lon="13.3709914932693"><ele>304.0</ele><time>2026-04-26T06:55:31.002Z</time></trkpt><trkpt lat="38.06933953951671" lon="13.371045193562068"><ele>304.0</ele><time>2026-04-26T06:55:34.002Z</time></trkpt><trkpt lat="38.0692586139397" lon="13.3710986181089"><ele>304.0</ele><time>2026-04-26T06:55:38.002Z</time></trkpt><trkpt lat="38.06918578432711" lon="13.371150067305274"><ele>304.0</ele><time>2026-04-26T06:55:40.001Z</time></trkpt><trkpt lat="38.069103207821364" lon="13.371175400016998"><ele>304.0</ele><time>2026-04-26T06:55:42.001Z</time></trkpt><trkpt lat="38.06903907573325" lon="13.371109923827094"><ele>312.4</ele><time>2026-04-26T06:55:44.001Z</time></trkpt><trkpt lat="38.06904718128253" lon="13.370975694728083"><ele>320.79999999999995</ele><time>2026-04-26T06:55:46.001Z</time></trkpt><trkpt lat="38.06904722259124" lon="13.370892399556993"><ele>329.20000000000005</ele><time>2026-04-26T06:55:47.001Z</time></trkpt><trkpt lat="38.06904749125016" lon="13.37079227087601"><ele>337.6</ele><time>2026-04-26T06:55:48.001Z</time></trkpt><trkpt lat="38.069022658526634" lon="13.37064730367082"><ele>346.0</ele><time>2026-04-26T06:55:50.001Z</time></trkpt><trkpt lat="38.06903172448081" lon="13.37049971505359"><ele>346.0</ele><time>2026-04-26T06:55:52.001Z</time></trkpt><trkpt lat="38.06903993912826" lon="13.370417333301866"><ele>346.0</ele><time>2026-04-26T06:55:53.001Z</time></trkpt><trkpt lat="38.069064220674704" lon="13.370295846875807"><ele>346.0</ele><time>2026-04-26T06:55:55.001Z</time></trkpt><trkpt lat="38.068985785206664" lon="13.370288111811833"><ele>346.0</ele><time>2026-04-26T06:55:57.001Z</time></trkpt><trkpt lat="38.068947220769296" lon="13.370438263139436"><ele>346.0</ele><time>2026-04-26T06:55:59.001Z</time></trkpt><trkpt lat="38.06891825023981" lon="13.37057678677567"><ele>346.0</ele><time>2026-04-26T06:56:01.001Z</time></trkpt><trkpt lat="38.068877698625656" lon="13.370645023347146"><ele>346.0</ele><time>2026-04-26T06:56:02.001Z</time></trkpt><trkpt lat="38.068832941214374" lon="13.370720649098612"><ele>346.0</ele><time>2026-04-26T06:56:03.001Z</time></trkpt><trkpt lat="38.06879582567532" lon="13.370792218528528"><ele>346.0</ele><time>2026-04-26T06:56:04.001Z</time></trkpt><trkpt lat="38.0687219390482" lon="13.370898396315567"><ele>346.0</ele><time>2026-04-26T06:56:06.001Z</time></trkpt><trkpt lat="38.068666406968994" lon="13.37096360742591"><ele>346.0</ele><time>2026-04-26T06:56:07.001Z</time></trkpt><trkpt lat="38.06861977764434" lon="13.371030304038106"><ele>346.0</ele><time>2026-04-26T06:56:08.001Z</time></trkpt><trkpt lat="38.06854470896029" lon="13.37116553706997"><ele>346.0</ele><time>2026-04-26T06:56:10.001Z</time></trkpt><trkpt lat="38.06848905085525" lon="13.371292593896822"><ele>346.0</ele><time>2026-04-26T06:56:12.001Z</time></trkpt><trkpt lat="38.06845379154767" lon="13.371406466138234"><ele>346.0</ele><time>2026-04-26T06:56:14.001Z</time></trkpt><trkpt lat="38.0684349990099" lon="13.371547296467984"><ele>346.0</ele><time>2026-04-26T06:56:16.001Z</time></trkpt><trkpt lat="38.068335086812226" lon="13.371548895904779"><ele>346.0</ele><time>2026-04-26T06:56:18.001Z</time></trkpt><trkpt lat="38.0682936503553" lon="13.371484706848058"><ele>346.0</ele><time>2026-04-26T06:56:19.001Z</time></trkpt><trkpt lat="38.06830506907739" lon="13.371331211971405"><ele>346.0</ele><time>2026-04-26T06:56:21.001Z</time></trkpt><trkpt lat="38.06832366260693" lon="13.371242093195148"><ele>346.0</ele><time>2026-04-26T06:56:22.001Z</time></trkpt><trkpt lat="38.068350043109554" lon="13.37113257544936"><ele>346.0</ele><time>2026-04-26T06:56:23.001Z</time></trkpt><trkpt lat="38.06836837760684" lon="13.371023115055092"><ele>346.0</ele><time>2026-04-26T06:56:24.001Z</time></trkpt><trkpt lat="38.068384819551234" lon="13.370933305623655"><ele>346.0</ele><time>2026-04-26T06:56:25.001Z</time></trkpt><trkpt lat="38.06840578368773" lon="13.370840466405886"><ele>346.0</ele><time>2026-04-26T06:56:26.001Z</time></trkpt><trkpt lat="38.068430892925406" lon="13.370757142697995"><ele>346.0</ele><time>2026-04-26T06:56:27.001Z</time></trkpt><trkpt lat="38.06847866890914" lon="13.370589336987647"><ele>346.0</ele><time>2026-04-26T06:56:29.001Z</time></trkpt><trkpt lat="38.068478662793694" lon="13.370464683553182"><ele>346.0</ele><time>2026-04-26T06:56:31.001Z</time></trkpt><trkpt lat="38.06839834197053" lon="13.370498943975951"><ele>346.0</ele><time>2026-04-26T06:56:34.001Z</time></trkpt><trkpt lat="38.0683710492168" lon="13.370604905691533"><ele>346.0</ele><time>2026-04-26T06:56:36.001Z</time></trkpt><trkpt lat="38.06834308669764" lon="13.370728717553304"><ele>346.0</ele><time>2026-04-26T06:56:38.001Z</time></trkpt><trkpt lat="38.06826158320975" lon="13.370838753729224"><ele>346.0</ele><time>2026-04-26T06:56:40.001Z</time></trkpt><trkpt lat="38.06821466166007" lon="13.370892524283612"><ele>356.0</ele><time>2026-04-26T06:56:41.001Z</time></trkpt><trkpt lat="38.06815828282273" lon="13.370960919757213"><ele>366.0</ele><time>2026-04-26T06:56:42.001Z</time></trkpt><trkpt lat="38.06807286606146" lon="13.371061295119292"><ele>376.0</ele><time>2026-04-26T06:56:44.001Z</time></trkpt><trkpt lat="38.068022385454746" lon="13.371188474750713"><ele>386.0</ele><time>2026-04-26T06:56:46.001Z</time></trkpt><trkpt lat="38.06793083872868" lon="13.371291233946234"><ele>396.0</ele><time>2026-04-26T06:56:48.001Z</time></trkpt><trkpt lat="38.06786471126295" lon="13.37133916624814"><ele>392.6</ele><time>2026-04-26T06:56:49.001Z</time></trkpt><trkpt lat="38.067803806356004" lon="13.371378826207918"><ele>389.20000000000005</ele><time>2026-04-26T06:56:50.001Z</time></trkpt><trkpt lat="38.06769751150433" lon="13.371451390050181"><ele>385.79999999999995</ele><time>2026-04-26T06:56:52.001Z</time></trkpt><trkpt lat="38.06763778030634" lon="13.371566703143285"><ele>382.4</ele><time>2026-04-26T06:56:54.001Z</time></trkpt><trkpt lat="38.06754437823501" lon="13.371652287073378"><ele>379.0</ele><time>2026-04-26T06:56:56.001Z</time></trkpt><trkpt lat="38.06748554192059" lon="13.371698504029915"><ele>387.2</ele><time>2026-04-26T06:56:57.001Z</time></trkpt><trkpt lat="38.06738578430454" lon="13.371780303439337"><ele>395.4</ele><time>2026-04-26T06:56:59.001Z</time></trkpt><trkpt lat="38.06733774398573" lon="13.371838293627702"><ele>403.6</ele><time>2026-04-26T06:57:00.001Z</time></trkpt><trkpt lat="38.06728508529322" lon="13.371913012393179"><ele>411.8</ele><time>2026-04-26T06:57:01.001Z</time></trkpt><trkpt lat="38.067238591401626" lon="13.371982816373123"><ele>420.0</ele><time>2026-04-26T06:57:02.002Z</time></trkpt><trkpt lat="38.06715740017984" lon="13.372099225747325"><ele>415.8</ele><time>2026-04-26T06:57:04.002Z</time></trkpt><trkpt lat="38.067097526048876" lon="13.372223418538251"><ele>411.6</ele><time>2026-04-26T06:57:06.002Z</time></trkpt><trkpt lat="38.06702610310754" lon="13.372327495434725"><ele>407.4</ele><time>2026-04-26T06:57:08.002Z</time></trkpt><trkpt lat="38.066946129339" lon="13.372374861160933"><ele>403.2</ele><time>2026-04-26T06:57:10.002Z</time></trkpt><trkpt lat="38.06686481698288" lon="13.372437736761649"><ele>399.0</ele><time>2026-04-26T06:57:12.002Z</time></trkpt><trkpt lat="38.066786636745356" lon="13.372525012606632"><ele>399.0</ele><time>2026-04-26T06:57:14.002Z</time></trkpt><trkpt lat="38.0667270184738" lon="13.372602966153833"><ele>399.0</ele><time>2026-04-26T06:57:16.002Z</time></trkpt><trkpt lat="38.06662366886848" lon="13.372712186944431"><ele>399.0</ele><time>2026-04-26T06:57:18.002Z</time></trkpt><trkpt lat="38.06657561924658" lon="13.372769382460625"><ele>399.0</ele><time>2026-04-26T06:57:19.002Z</time></trkpt><trkpt lat="38.06652450866764" lon="13.37283161424104"><ele>399.0</ele><time>2026-04-26T06:57:20.002Z</time></trkpt><trkpt lat="38.06647008514872" lon="13.37288072906564"><ele>399.0</ele><time>2026-04-26T06:57:21.002Z</time></trkpt><trkpt lat="38.06640100018012" lon="13.372904673853224"><ele>403.79999999999995</ele><time>2026-04-26T06:57:22.002Z</time></trkpt><trkpt lat="38.06631826241425" lon="13.37297539159257"><ele>408.59999999999997</ele><time>2026-04-26T06:57:24.002Z</time></trkpt><trkpt lat="38.0663446316496" lon="13.373071105988565"><ele>413.4</ele><time>2026-04-26T06:57:26.002Z</time></trkpt><trkpt lat="38.066460782420975" lon="13.373109484050469"><ele>418.2</ele><time>2026-04-26T06:57:28.002Z</time></trkpt><trkpt lat="38.066536869581284" lon="13.37309278123414"><ele>423.0</ele><time>2026-04-26T06:57:29.002Z</time></trkpt><trkpt lat="38.06661593774533" lon="13.373079991102232"><ele>423.0</ele><time>2026-04-26T06:57:30.002Z</time></trkpt><trkpt lat="38.066705920406434" lon="13.373066518284766"><ele>423.0</ele><time>2026-04-26T06:57:31.002Z</time></trkpt><trkpt lat="38.066794826432805" lon="13.373066705749906"><ele>423.0</ele><time>2026-04-26T06:57:32.002Z</time></trkpt><trkpt lat="38.066889321822366" lon="13.373066387314891"><ele>423.0</ele><time>2026-04-26T06:57:33.002Z</time></trkpt><trkpt lat="38.06699132188716" lon="13.37305073462865"><ele>423.0</ele><time>2026-04-26T06:57:34.002Z</time></trkpt><trkpt lat="38.06708135002457" lon="13.373022671117733"><ele>419.0</ele><time>2026-04-26T06:57:35.002Z</time></trkpt><trkpt lat="38.067171364974236" lon="13.372995580382694"><ele>415.0</ele><time>2026-04-26T06:57:36.002Z</time></trkpt><trkpt lat="38.06725067053286" lon="13.372960935068887"><ele>411.0</ele><time>2026-04-26T06:57:37.002Z</time></trkpt><trkpt lat="38.06733624405694" lon="13.372948172017221"><ele>407.0</ele><time>2026-04-26T06:57:38.002Z</time></trkpt><trkpt lat="38.067412236887996" lon="13.372955263650564"><ele>403.0</ele><time>2026-04-26T06:57:39.002Z</time></trkpt><trkpt lat="38.06749285307209" lon="13.372964291528628"><ele>399.0</ele><time>2026-04-26T06:57:40.002Z</time></trkpt><trkpt lat="38.0675798029396" lon="13.372961804900399"><ele>397.0</ele><time>2026-04-26T06:57:41.002Z</time></trkpt><trkpt lat="38.06766490381208" lon="13.372961284952899"><ele>395.0</ele><time>2026-04-26T06:57:42.002Z</time></trkpt><trkpt lat="38.06774822200462" lon="13.372963622099803"><ele>393.0</ele><time>2026-04-26T06:57:43.002Z</time></trkpt><trkpt lat="38.06782545238492" lon="13.372971952769708"><ele>391.0</ele><time>2026-04-26T06:57:44.002Z</time></trkpt><trkpt lat="38.0679052062064" lon="13.372980805200271"><ele>389.0</ele><time>2026-04-26T06:57:45.002Z</time></trkpt><trkpt lat="38.067977033023446" lon="13.3729992704563"><ele>387.0</ele><time>2026-04-26T06:57:46.001Z</time></trkpt><trkpt lat="38.06807028971666" lon="13.373042076338821"><ele>394.0</ele><time>2026-04-26T06:57:48.001Z</time></trkpt><trkpt lat="38.06820001679825" lon="13.373071014627444"><ele>401.0</ele><time>2026-04-26T06:57:50.001Z</time></trkpt><trkpt lat="38.06826692265585" lon="13.373075837008006"><ele>408.0</ele><time>2026-04-26T06:57:51.001Z</time></trkpt><trkpt lat="38.068355554817096" lon="13.373071503705386"><ele>415.0</ele><time>2026-04-26T06:57:53Z</time></trkpt><trkpt lat="38.06834510451544" lon="13.37315768266323"><ele>422.0</ele><time>2026-04-26T06:57:56Z</time></trkpt><trkpt lat="38.06826166161054" lon="13.373152765426168"><ele>429.0</ele><time>2026-04-26T06:57:58Z</time></trkpt><trkpt lat="38.06816668956897" lon="13.373124318332266"><ele>429.0</ele><time>2026-04-26T06:58:00Z</time></trkpt><trkpt lat="38.0680635129897" lon="13.373143839087742"><ele>429.0</ele><time>2026-04-26T06:58:02Z</time></trkpt><trkpt lat="38.06794656353626" lon="13.373164439808074"><ele>429.0</ele><time>2026-04-26T06:58:04Z</time></trkpt><trkpt lat="38.06783342196324" lon="13.373220624972756"><ele>429.0</ele><time>2026-04-26T06:58:06Z</time></trkpt><trkpt lat="38.06772040394946" lon="13.373271165868308"><ele>429.0</ele><time>2026-04-26T06:58:08Z</time></trkpt><trkpt lat="38.067656166793945" lon="13.37330096072601"><ele>429.0</ele><time>2026-04-26T06:58:09Z</time></trkpt><trkpt lat="38.06759112584648" lon="13.373330022334432"><ele>429.0</ele><time>2026-04-26T06:58:10.001Z</time></trkpt><trkpt lat="38.06751641613151" lon="13.373356332966317"><ele>429.0</ele><time>2026-04-26T06:58:11.001Z</time></trkpt><trkpt lat="38.06744423714189" lon="13.373385537501006"><ele>429.0</ele><time>2026-04-26T06:58:12.001Z</time></trkpt><trkpt lat="38.067385114554014" lon="13.37343156866005"><ele>429.0</ele><time>2026-04-26T06:58:13.001Z</time></trkpt><trkpt lat="38.06728911228718" lon="13.373535771271204"><ele>427.79999999999995</ele><time>2026-04-26T06:58:15.001Z</time></trkpt><trkpt lat="38.06723226757961" lon="13.373591961440376"><ele>426.59999999999997</ele><time>2026-04-26T06:58:16.001Z</time></trkpt><trkpt lat="38.06714067220816" lon="13.373680672140981"><ele>425.4</ele><time>2026-04-26T06:58:18.001Z</time></trkpt><trkpt lat="38.06707726074801" lon="13.373730487378683"><ele>424.2</ele><time>2026-04-26T06:58:19.001Z</time></trkpt><trkpt lat="38.06698029126589" lon="13.373780843034195"><ele>423.0</ele><time>2026-04-26T06:58:21.001Z</time></trkpt><trkpt lat="38.066870063923346" lon="13.373815011614326"><ele>423.0</ele><time>2026-04-26T06:58:23.001Z</time></trkpt><trkpt lat="38.066754998480356" lon="13.373837222647477"><ele>423.0</ele><time>2026-04-26T06:58:25.001Z</time></trkpt><trkpt lat="38.06663337668053" lon="13.373861881247684"><ele>423.0</ele><time>2026-04-26T06:58:27.001Z</time></trkpt><trkpt lat="38.06650096514916" lon="13.373875408017623"><ele>423.0</ele><time>2026-04-26T06:58:29.001Z</time></trkpt><trkpt lat="38.06643278157565" lon="13.373893160685075"><ele>423.0</ele><time>2026-04-26T06:58:30.001Z</time></trkpt><trkpt lat="38.066353453900874" lon="13.37390655958551"><ele>432.0</ele><time>2026-04-26T06:58:31.001Z</time></trkpt><trkpt lat="38.06622052274966" lon="13.373919277711805"><ele>441.0</ele><time>2026-04-26T06:58:33.001Z</time></trkpt><trkpt lat="38.066145875467804" lon="13.373909050278776"><ele>449.99999999999994</ele><time>2026-04-26T06:58:34.001Z</time></trkpt><trkpt lat="38.066074581198734" lon="13.373909379986493"><ele>459.0</ele><time>2026-04-26T06:58:35.001Z</time></trkpt><trkpt lat="38.0659905478523" lon="13.373918093825486"><ele>468.0</ele><time>2026-04-26T06:58:36.001Z</time></trkpt><trkpt lat="38.06589867594632" lon="13.373919237104337"><ele>468.0</ele><time>2026-04-26T06:58:37.001Z</time></trkpt><trkpt lat="38.06580064998312" lon="13.37393736402474"><ele>467.99999999999994</ele><time>2026-04-26T06:58:38.001Z</time></trkpt><trkpt lat="38.06568805383692" lon="13.373957253413533"><ele>467.99999999999994</ele><time>2026-04-26T06:58:39.001Z</time></trkpt><trkpt lat="38.06558525819228" lon="13.373968703487852"><ele>468.0</ele><time>2026-04-26T06:58:40.001Z</time></trkpt><trkpt lat="38.06547412171121" lon="13.37396872542327"><ele>468.0</ele><time>2026-04-26T06:58:41.001Z</time></trkpt><trkpt lat="38.06536467154961" lon="13.373972431066605"><ele>467.6666666666667</ele><time>2026-04-26T06:58:42.001Z</time></trkpt><trkpt lat="38.06527423036835" lon="13.3739712663793"><ele>467.33333333333337</ele><time>2026-04-26T06:58:43.001Z</time></trkpt><trkpt lat="38.065199070902025" lon="13.373992690482748"><ele>467.0</ele><time>2026-04-26T06:58:44.001Z</time></trkpt><trkpt lat="38.0651283171839" lon="13.37401088921165"><ele>466.6666666666667</ele><time>2026-04-26T06:58:45.001Z</time></trkpt><trkpt lat="38.06503533364635" lon="13.374043018992879"><ele>466.33333333333337</ele><time>2026-04-26T06:58:46.001Z</time></trkpt><trkpt lat="38.06494282748451" lon="13.374082729496315"><ele>466.0</ele><time>2026-04-26T06:58:47.001Z</time></trkpt><trkpt lat="38.06485067374708" lon="13.37413848734867"><ele>466.8</ele><time>2026-04-26T06:58:48.001Z</time></trkpt><trkpt lat="38.06476331540204" lon="13.374188822590295"><ele>467.6</ele><time>2026-04-26T06:58:49.001Z</time></trkpt><trkpt lat="38.06467593909125" lon="13.374233400654"><ele>468.4</ele><time>2026-04-26T06:58:50.001Z</time></trkpt><trkpt lat="38.064582574710684" lon="13.374264887441418"><ele>469.2</ele><time>2026-04-26T06:58:51.001Z</time></trkpt><trkpt lat="38.06448767040876" lon="13.374293574887023"><ele>470.0</ele><time>2026-04-26T06:58:52.001Z</time></trkpt><trkpt lat="38.06438270414056" lon="13.374333629209717"><ele>470.0</ele><time>2026-04-26T06:58:53.001Z</time></trkpt><trkpt lat="38.064270307078694" lon="13.374383868693096"><ele>470.0</ele><time>2026-04-26T06:58:54.001Z</time></trkpt><trkpt lat="38.064176475803094" lon="13.374424670899733"><ele>470.0</ele><time>2026-04-26T06:58:55.001Z</time></trkpt><trkpt lat="38.0641031192512" lon="13.374447193141682"><ele>470.0</ele><time>2026-04-26T06:58:56.001Z</time></trkpt><trkpt lat="38.06400294437297" lon="13.374425925757173"><ele>470.0</ele><time>2026-04-26T06:58:58.001Z</time></trkpt><trkpt lat="38.06396829174065" lon="13.37430084558481"><ele>473.6</ele><time>2026-04-26T06:59:00.001Z</time></trkpt><trkpt lat="38.063930450034974" lon="13.374176333205016"><ele>477.2</ele><time>2026-04-26T06:59:02.001Z</time></trkpt><trkpt lat="38.063861057694965" lon="13.3740860944824"><ele>480.79999999999995</ele><time>2026-04-26T06:59:04.001Z</time></trkpt><trkpt lat="38.06376337024284" lon="13.374095724913024"><ele>484.4</ele><time>2026-04-26T06:59:07.001Z</time></trkpt><trkpt lat="38.06367503400815" lon="13.374160710348237"><ele>488.0</ele><time>2026-04-26T06:59:09.001Z</time></trkpt><trkpt lat="38.0635642797856" lon="13.374188563776045"><ele>487.99999999999994</ele><time>2026-04-26T06:59:11.001Z</time></trkpt><trkpt lat="38.06349396058076" lon="13.374176221634533"><ele>488.0</ele><time>2026-04-26T07:00:10Z</time></trkpt><trkpt lat="38.06343342963068" lon="13.374124937580545"><ele>488.0</ele><time>2026-04-26T07:00:12Z</time></trkpt><trkpt lat="38.06333643544206" lon="13.374057008034677"><ele>488.0</ele><time>2026-04-26T07:00:14Z</time></trkpt><trkpt lat="38.06328463513564" lon="13.373999948735007"><ele>487.99999999999994</ele><time>2026-04-26T07:00:15Z</time></trkpt><trkpt lat="38.063229508489556" lon="13.373945930654864"><ele>488.0</ele><time>2026-04-26T07:00:16Z</time></trkpt><trkpt lat="38.06313594104017" lon="13.373851983399755"><ele>492.99999999999994</ele><time>2026-04-26T07:00:18Z</time></trkpt><trkpt lat="38.063075774990004" lon="13.373784663246711"><ele>498.0</ele><time>2026-04-26T07:00:19Z</time></trkpt><trkpt lat="38.06302075352926" lon="13.3737068249539"><ele>503.0</ele><time>2026-04-26T07:00:20Z</time></trkpt><trkpt lat="38.062967047903115" lon="13.373603667277772"><ele>508.0</ele><time>2026-04-26T07:00:22.001Z</time></trkpt><trkpt lat="38.06289687535671" lon="13.373544492026534"><ele>513.0</ele><time>2026-04-26T07:00:24.001Z</time></trkpt><trkpt lat="38.06283804148986" lon="13.37351424989995"><ele>518.0</ele><time>2026-04-26T07:00:29.001Z</time></trkpt><trkpt lat="38.06277153295505" lon="13.373462355265842"><ele>518.0</ele><time>2026-04-26T07:00:33.001Z</time></trkpt><trkpt lat="38.062729132913134" lon="13.37339194519479"><ele>518.0</ele><time>2026-04-26T07:00:35.001Z</time></trkpt><trkpt lat="38.06269590220491" lon="13.37331754535077"><ele>518.0</ele><time>2026-04-26T07:00:37.001Z</time></trkpt><trkpt lat="38.06264316066457" lon="13.37324709077901"><ele>518.0</ele><time>2026-04-26T07:00:39.001Z</time></trkpt><trkpt lat="38.062611178926126" lon="13.373155468697519"><ele>518.0</ele><time>2026-04-26T07:00:41.001Z</time></trkpt><trkpt lat="38.062577712862335" lon="13.37303518546279"><ele>518.0</ele><time>2026-04-26T07:00:44.001Z</time></trkpt><trkpt lat="38.062538759973656" lon="13.372957428305119"><ele>520.6666666666666</ele><time>2026-04-26T07:00:46.001Z</time></trkpt><trkpt lat="38.062508943914345" lon="13.372862441247019"><ele>523.3333333333333</ele><time>2026-04-26T07:00:48.001Z</time></trkpt><trkpt lat="38.06248462037877" lon="13.372768627544497"><ele>526.0</ele><time>2026-04-26T07:00:52.001Z</time></trkpt><trkpt lat="38.0624708094191" lon="13.372678972287002"><ele>528.6666666666666</ele><time>2026-04-26T07:00:55.001Z</time></trkpt><trkpt lat="38.062444493172315" lon="13.372584940168936"><ele>531.3333333333334</ele><time>2026-04-26T07:00:58.001Z</time></trkpt><trkpt lat="38.062409410675045" lon="13.372469219302289"><ele>534.0</ele><time>2026-04-26T07:01:01.001Z</time></trkpt><trkpt lat="38.06238680615548" lon="13.372363941596348"><ele>537.5</ele><time>2026-04-26T07:01:03.001Z</time></trkpt><trkpt lat="38.06236655742995" lon="13.37224528137858"><ele>541.0</ele><time>2026-04-26T07:01:06.001Z</time></trkpt><trkpt lat="38.0623531796248" lon="13.372130764645433"><ele>544.5</ele><time>2026-04-26T07:01:09.001Z</time></trkpt><trkpt lat="38.06232830798556" lon="13.372023562391279"><ele>548.0</ele><time>2026-04-26T07:01:11.001Z</time></trkpt><trkpt lat="38.062304930792145" lon="13.371946378693417"><ele>551.5</ele><time>2026-04-26T07:01:17.001Z</time></trkpt><trkpt lat="38.06229653970923" lon="13.371834893792146"><ele>555.0</ele><time>2026-04-26T07:01:22.001Z</time></trkpt><trkpt lat="38.06229888499434" lon="13.3717329525887"><ele>556.0000000000001</ele><time>2026-04-26T07:01:26.001Z</time></trkpt><trkpt lat="38.06228775726153" lon="13.37164368223358"><ele>557.0</ele><time>2026-04-26T07:01:49.002Z</time></trkpt><trkpt lat="38.06224169056107" lon="13.371584458304087"><ele>558.0</ele><time>2026-04-26T07:01:52.002Z</time></trkpt><trkpt lat="38.06221101321311" lon="13.371504257885649"><ele>559.0</ele><time>2026-04-26T07:01:55.002Z</time></trkpt><trkpt lat="38.062212935526304" lon="13.371402153240165"><ele>560.0</ele><time>2026-04-26T07:02:00Z</time></trkpt><trkpt lat="38.06221079070372" lon="13.371293138612849"><ele>561.0000000000001</ele><time>2026-04-26T07:02:03Z</time></trkpt><trkpt lat="38.06220208378343" lon="13.371212757809722"><ele>562.0</ele><time>2026-04-26T07:02:10Z</time></trkpt><trkpt lat="38.062184544547634" lon="13.371100199503326"><ele>564.1428571428572</ele><time>2026-04-26T07:02:13Z</time></trkpt><trkpt lat="38.06217874846139" lon="13.371004093545022"><ele>566.2857142857143</ele><time>2026-04-26T07:02:15Z</time></trkpt><trkpt lat="38.06221197149843" lon="13.370928706900171"><ele>568.4285714285714</ele><time>2026-04-26T07:02:19Z</time></trkpt><trkpt lat="38.062234993138155" lon="13.370842564451143"><ele>570.5714285714287</ele><time>2026-04-26T07:02:34Z</time></trkpt><trkpt lat="38.06225725883837" lon="13.370743768791048"><ele>572.7142857142858</ele><time>2026-04-26T07:02:37Z</time></trkpt><trkpt lat="38.062281164197515" lon="13.370669060883626"><ele>574.8571428571429</ele><time>2026-04-26T07:02:41Z</time></trkpt><trkpt lat="38.0622684254239" lon="13.37056998259216"><ele>577.0</ele><time>2026-04-26T07:04:28Z</time></trkpt><trkpt lat="38.06227490930761" lon="13.370474831460388"><ele>580.0</ele><time>2026-04-26T07:04:55.001Z</time></trkpt><trkpt lat="38.06227344124372" lon="13.37037578808841"><ele>583.0</ele><time>2026-04-26T07:04:59.001Z</time></trkpt><trkpt lat="38.06227272192623" lon="13.37029327801766"><ele>586.0</ele><time>2026-04-26T07:05:02.001Z</time></trkpt><trkpt lat="38.06227715968191" lon="13.370194673467708"><ele>589.0</ele><time>2026-04-26T07:05:05.001Z</time></trkpt><trkpt lat="38.06227359711561" lon="13.370101662905046"><ele>592.0</ele><time>2026-04-26T07:05:08.001Z</time></trkpt><trkpt lat="38.06231004623894" lon="13.370019257028279"><ele>595.0</ele><time>2026-04-26T07:05:11.001Z</time></trkpt><trkpt lat="38.0622915115213" lon="13.369916185138216"><ele>595.0</ele><time>2026-04-26T07:05:14.001Z</time></trkpt><trkpt lat="38.062299481130566" lon="13.36982256305313"><ele>595.0</ele><time>2026-04-26T07:05:18.001Z</time></trkpt><trkpt lat="38.06232439954461" lon="13.369723775215443"><ele>595.0</ele><time>2026-04-26T07:05:23.001Z</time></trkpt><trkpt lat="38.06233110857517" lon="13.36963830098316"><ele>595.0</ele><time>2026-04-26T07:05:26.001Z</time></trkpt><trkpt lat="38.062328811966545" lon="13.369556089064206"><ele>595.0</ele><time>2026-04-26T07:05:29.001Z</time></trkpt><trkpt lat="38.06233112478059" lon="13.369470757765983"><ele>595.0</ele><time>2026-04-26T07:05:33.001Z</time></trkpt><trkpt lat="38.062362668485214" lon="13.36938566284286"><ele>595.0</ele><time>2026-04-26T07:05:37.001Z</time></trkpt><trkpt lat="38.06237876677795" lon="13.369288803071901"><ele>598.1666666666667</ele><time>2026-04-26T07:05:41.001Z</time></trkpt><trkpt lat="38.062391591585815" lon="13.369181754789196"><ele>601.3333333333334</ele><time>2026-04-26T07:05:45.001Z</time></trkpt><trkpt lat="38.06243247946732" lon="13.369100006634245"><ele>604.5</ele><time>2026-04-26T07:05:49.001Z</time></trkpt><trkpt lat="38.06250091096728" lon="13.369081617812855"><ele>607.6666666666666</ele><time>2026-04-26T07:06:02.002Z</time></trkpt><trkpt lat="38.06254951796303" lon="13.36915561150161"><ele>610.8333333333333</ele><time>2026-04-26T07:06:15.999Z</time></trkpt><trkpt lat="38.06248661606623" lon="13.369115582562484"><ele>614.0</ele><time>2026-04-26T07:07:09Z</time></trkpt><trkpt lat="38.062443179161" lon="13.369041191448824"><ele>613.9999999999999</ele><time>2026-04-26T07:07:12.001Z</time></trkpt><trkpt lat="38.06245700398299" lon="13.368947193533915"><ele>614.0</ele><time>2026-04-26T07:07:19.001Z</time></trkpt><trkpt lat="38.06241678614571" lon="13.368865369798623"><ele>614.0</ele><time>2026-04-26T07:08:37Z</time></trkpt><trkpt lat="38.06236321224776" lon="13.368810736868582"><ele>614.0</ele><time>2026-04-26T07:08:43Z</time></trkpt><trkpt lat="38.06231992848574" lon="13.36874179382193"><ele>614.0</ele><time>2026-04-26T07:08:46Z</time></trkpt><trkpt lat="38.0622968441784" lon="13.368642170334883"><ele>613.9999999999999</ele><time>2026-04-26T07:08:50Z</time></trkpt><trkpt lat="38.06230019175853" lon="13.368551474902297"><ele>614.0</ele><time>2026-04-26T07:08:53Z</time></trkpt><trkpt lat="38.062309484958895" lon="13.368455883685584"><ele>617.7142857142857</ele><time>2026-04-26T07:08:57Z</time></trkpt><trkpt lat="38.06233944850593" lon="13.368369545518606"><ele>621.4285714285714</ele><time>2026-04-26T07:09:22.001Z</time></trkpt><trkpt lat="38.06238320655315" lon="13.368293926526286"><ele>625.1428571428571</ele><time>2026-04-26T07:09:26.001Z</time></trkpt><trkpt lat="38.06240792676199" lon="13.368214091228024"><ele>628.8571428571429</ele><time>2026-04-26T07:09:32.001Z</time></trkpt><trkpt lat="38.062433952937916" lon="13.368130964033739"><ele>632.5714285714286</ele><time>2026-04-26T07:09:36.001Z</time></trkpt><trkpt lat="38.06246901667689" lon="13.368051858248664"><ele>636.2857142857142</ele><time>2026-04-26T07:09:40.001Z</time></trkpt><trkpt lat="38.06250425870216" lon="13.367964711989446"><ele>640.0</ele><time>2026-04-26T07:09:44.001Z</time></trkpt><trkpt lat="38.062534599337134" lon="13.367890176657603"><ele>643.4285714285714</ele><time>2026-04-26T07:09:47.001Z</time></trkpt><trkpt lat="38.06256364437826" lon="13.367806238138792"><ele>646.8571428571429</ele><time>2026-04-26T07:09:51.001Z</time></trkpt><trkpt lat="38.06258824887713" lon="13.367722273309269"><ele>650.2857142857142</ele><time>2026-04-26T07:09:55.001Z</time></trkpt><trkpt lat="38.06260936175676" lon="13.367643423705525"><ele>653.7142857142858</ele><time>2026-04-26T07:10:17.002Z</time></trkpt><trkpt lat="38.062642222549144" lon="13.367550194743666"><ele>657.1428571428572</ele><time>2026-04-26T07:10:21.999Z</time></trkpt><trkpt lat="38.06267056114225" lon="13.367462801317549"><ele>660.5714285714286</ele><time>2026-04-26T07:10:24.999Z</time></trkpt><trkpt lat="38.0626971136887" lon="13.367389910423448"><ele>664.0</ele><time>2026-04-26T07:10:27.999Z</time></trkpt><trkpt lat="38.06272692914216" lon="13.367311373610999"><ele>664.0</ele><time>2026-04-26T07:10:32Z</time></trkpt><trkpt lat="38.0627545091891" lon="13.367227046293182"><ele>664.0</ele><time>2026-04-26T07:11:10.001Z</time></trkpt><trkpt lat="38.06282016815282" lon="13.367230448381134"><ele>664.0</ele><time>2026-04-26T07:12:03.002Z</time></trkpt><trkpt lat="38.06283255509232" lon="13.36715034080443"><ele>664.0</ele><time>2026-04-26T07:12:27.002Z</time></trkpt><trkpt lat="38.06281932387857" lon="13.367035315406527"><ele>664.0</ele><time>2026-04-26T07:12:31Z</time></trkpt><trkpt lat="38.062839025680155" lon="13.366959275063131"><ele>664.0</ele><time>2026-04-26T07:12:33Z</time></trkpt><trkpt lat="38.06284793008441" lon="13.366878383892628"><ele>664.0</ele><time>2026-04-26T07:12:36Z</time></trkpt><trkpt lat="38.06288916156877" lon="13.366809750438117"><ele>667.0</ele><time>2026-04-26T07:12:39Z</time></trkpt><trkpt lat="38.062891893971084" lon="13.366724299807766"><ele>670.0</ele><time>2026-04-26T07:12:41Z</time></trkpt><trkpt lat="38.06287619036412" lon="13.3666237820864"><ele>673.0</ele><time>2026-04-26T07:22:21.002Z</time></trkpt><trkpt lat="38.06285241143942" lon="13.366541946838884"><ele>676.0</ele><time>2026-04-26T07:22:23.002Z</time></trkpt><trkpt lat="38.062838567098844" lon="13.366450815116394"><ele>679.0</ele><time>2026-04-26T07:22:25.002Z</time></trkpt><trkpt lat="38.062845423257514" lon="13.366360350703372"><ele>682.0</ele><time>2026-04-26T07:22:27.002Z</time></trkpt><trkpt lat="38.06285025256507" lon="13.366254801686141"><ele>685.0</ele><time>2026-04-26T07:22:29.002Z</time></trkpt><trkpt lat="38.0628628581085" lon="13.366171712962952"><ele>685.0</ele><time>2026-04-26T07:22:30.002Z</time></trkpt><trkpt lat="38.06288719295865" lon="13.366008167118089"><ele>685.0</ele><time>2026-04-26T07:22:32.002Z</time></trkpt><trkpt lat="38.06290134718352" lon="13.365923346894991"><ele>685.0</ele><time>2026-04-26T07:22:33.002Z</time></trkpt><trkpt lat="38.06291868685431" lon="13.365827499535776"><ele>685.0</ele><time>2026-04-26T07:22:34.002Z</time></trkpt><trkpt lat="38.06293982427126" lon="13.365712362272358"><ele>685.0</ele><time>2026-04-26T07:22:35.002Z</time></trkpt><trkpt lat="38.06295185269483" lon="13.365620586903484"><ele>685.0</ele><time>2026-04-26T07:22:36.002Z</time></trkpt><trkpt lat="38.06299383265304" lon="13.365504164471467"><ele>682.8</ele><time>2026-04-26T07:22:37.002Z</time></trkpt><trkpt lat="38.06302439164989" lon="13.365418086179066"><ele>680.6</ele><time>2026-04-26T07:22:38.002Z</time></trkpt><trkpt lat="38.063054720105825" lon="13.365334842384657"><ele>678.4000000000001</ele><time>2026-04-26T07:22:39.002Z</time></trkpt><trkpt lat="38.06309266856906" lon="13.365256855399275"><ele>676.2</ele><time>2026-04-26T07:22:41.002Z</time></trkpt><trkpt lat="38.063160060969956" lon="13.365125304843271"><ele>674.0</ele><time>2026-04-26T07:22:43.002Z</time></trkpt><trkpt lat="38.06319297172038" lon="13.364995401652443"><ele>674.0</ele><time>2026-04-26T07:22:45.002Z</time></trkpt><trkpt lat="38.063144855225275" lon="13.36489503554215"><ele>674.0</ele><time>2026-04-26T07:22:47.002Z</time></trkpt><trkpt lat="38.063098435676636" lon="13.364803102691882"><ele>674.0</ele><time>2026-04-26T07:22:49.002Z</time></trkpt><trkpt lat="38.063068456799805" lon="13.364714947743067"><ele>674.0</ele><time>2026-04-26T07:22:51.003Z</time></trkpt><trkpt lat="38.06304354321021" lon="13.36463884936223"><ele>674.0</ele><time>2026-04-26T07:22:53.003Z</time></trkpt><trkpt lat="38.06303304496622" lon="13.364492381944297"><ele>674.0</ele><time>2026-04-26T07:22:56.003Z</time></trkpt><trkpt lat="38.06300928391461" lon="13.364391781996186"><ele>673.1666666666666</ele><time>2026-04-26T07:22:58.999Z</time></trkpt><trkpt lat="38.062982361947995" lon="13.36428683787947"><ele>672.3333333333333</ele><time>2026-04-26T07:23:00.999Z</time></trkpt><trkpt lat="38.062983838593695" lon="13.36418565163872"><ele>671.5</ele><time>2026-04-26T07:23:03.999Z</time></trkpt><trkpt lat="38.06293813168378" lon="13.364106765916283"><ele>670.6666666666666</ele><time>2026-04-26T07:23:05.999Z</time></trkpt><trkpt lat="38.06291482800191" lon="13.363976472853347"><ele>669.8333333333334</ele><time>2026-04-26T07:23:07.999Z</time></trkpt><trkpt lat="38.062910897085565" lon="13.363868182335644"><ele>669.0</ele><time>2026-04-26T07:23:08.999Z</time></trkpt><trkpt lat="38.062894105225254" lon="13.363753261996708"><ele>669.0</ele><time>2026-04-26T07:23:09.999Z</time></trkpt><trkpt lat="38.062861011838514" lon="13.363643032352607"><ele>669.0</ele><time>2026-04-26T07:23:10.999Z</time></trkpt><trkpt lat="38.0628202227461" lon="13.363554267596816"><ele>669.0</ele><time>2026-04-26T07:23:11.999Z</time></trkpt><trkpt lat="38.06277609350508" lon="13.363479064157655"><ele>669.0</ele><time>2026-04-26T07:23:13Z</time></trkpt><trkpt lat="38.06273127277225" lon="13.363386153516768"><ele>669.0</ele><time>2026-04-26T07:23:14Z</time></trkpt><trkpt lat="38.06268721862294" lon="13.3633077955305"><ele>669.0</ele><time>2026-04-26T07:23:15Z</time></trkpt><trkpt lat="38.06263755916087" lon="13.363227464028373"><ele>669.0</ele><time>2026-04-26T07:23:16Z</time></trkpt><trkpt lat="38.06263416392524" lon="13.3630842310558"><ele>669.0</ele><time>2026-04-26T07:23:18Z</time></trkpt><trkpt lat="38.062622304708086" lon="13.363003211022164"><ele>669.0</ele><time>2026-04-26T07:23:19Z</time></trkpt><trkpt lat="38.06260428733038" lon="13.362892463088418"><ele>669.0</ele><time>2026-04-26T07:23:20Z</time></trkpt><trkpt lat="38.06258612806097" lon="13.362780843012226"><ele>669.0</ele><time>2026-04-26T07:23:21Z</time></trkpt><trkpt lat="38.062559962582604" lon="13.362690461602536"><ele>669.0</ele><time>2026-04-26T07:23:22Z</time></trkpt><trkpt lat="38.06254542481661" lon="13.362606088369105"><ele>668.0</ele><time>2026-04-26T07:23:23Z</time></trkpt><trkpt lat="38.06257664514892" lon="13.362490346818847"><ele>667.0</ele><time>2026-04-26T07:23:25Z</time></trkpt><trkpt lat="38.06264774459376" lon="13.362365679469818"><ele>666.0</ele><time>2026-04-26T07:23:27Z</time></trkpt><trkpt lat="38.062707310454286" lon="13.362285409408608"><ele>665.0</ele><time>2026-04-26T07:23:28Z</time></trkpt><trkpt lat="38.06277862083729" lon="13.362211058198387"><ele>664.0</ele><time>2026-04-26T07:23:29Z</time></trkpt><trkpt lat="38.062842765989025" lon="13.362132739625567"><ele>661.5</ele><time>2026-04-26T07:23:30Z</time></trkpt><trkpt lat="38.062920721282055" lon="13.36212598418094"><ele>659.0</ele><time>2026-04-26T07:23:31Z</time></trkpt><trkpt lat="38.06298090434801" lon="13.362091372416883"><ele>656.5</ele><time>2026-04-26T07:23:32Z</time></trkpt><trkpt lat="38.06306790968662" lon="13.362041334916603"><ele>654.0</ele><time>2026-04-26T07:23:34.001Z</time></trkpt><trkpt lat="38.063125529843894" lon="13.362008197079453"><ele>651.5</ele><time>2026-04-26T07:23:36.001Z</time></trkpt><trkpt lat="38.06319594367048" lon="13.361967701494443"><ele>649.0</ele><time>2026-04-26T07:23:38.001Z</time></trkpt><trkpt lat="38.063244700836464" lon="13.361858870975142"><ele>651.0</ele><time>2026-04-26T07:23:40.001Z</time></trkpt><trkpt lat="38.06334455289781" lon="13.361796263674883"><ele>653.0</ele><time>2026-04-26T07:23:42.001Z</time></trkpt><trkpt lat="38.063456160182255" lon="13.361754208617349"><ele>655.0</ele><time>2026-04-26T07:23:44.001Z</time></trkpt><trkpt lat="38.06355628532721" lon="13.361706499949499"><ele>657.0</ele><time>2026-04-26T07:23:46.001Z</time></trkpt><trkpt lat="38.06361593089677" lon="13.361571018421476"><ele>657.0</ele><time>2026-04-26T07:23:48.001Z</time></trkpt><trkpt lat="38.06364105963314" lon="13.36146762154201"><ele>657.0</ele><time>2026-04-26T07:23:49.001Z</time></trkpt><trkpt lat="38.0636688204085" lon="13.3613680527285"><ele>657.0</ele><time>2026-04-26T07:23:50.001Z</time></trkpt><trkpt lat="38.06368535401016" lon="13.361280216420257"><ele>657.0</ele><time>2026-04-26T07:23:51.001Z</time></trkpt><trkpt lat="38.06369293804995" lon="13.361195035923004"><ele>657.0</ele><time>2026-04-26T07:23:52.001Z</time></trkpt><trkpt lat="38.063701678553954" lon="13.361099760865734"><ele>657.0</ele><time>2026-04-26T07:23:53.001Z</time></trkpt><trkpt lat="38.06371798515369" lon="13.360999607962318"><ele>655.2</ele><time>2026-04-26T07:23:54.001Z</time></trkpt><trkpt lat="38.0637326486906" lon="13.360910705879231"><ele>653.4000000000001</ele><time>2026-04-26T07:23:55.001Z</time></trkpt><trkpt lat="38.06374689712535" lon="13.360824188372627"><ele>651.5999999999999</ele><time>2026-04-26T07:23:56.001Z</time></trkpt><trkpt lat="38.063756353675785" lon="13.36069164233852"><ele>649.8</ele><time>2026-04-26T07:23:58.001Z</time></trkpt><trkpt lat="38.06379970924527" lon="13.360554118705162"><ele>648.0</ele><time>2026-04-26T07:24:00.001Z</time></trkpt><trkpt lat="38.06379418950055" lon="13.360424998557823"><ele>648.0</ele><time>2026-04-26T07:24:02.002Z</time></trkpt><trkpt lat="38.06374284368251" lon="13.360269746324702"><ele>648.0</ele><time>2026-04-26T07:24:04.002Z</time></trkpt><trkpt lat="38.06373333540857" lon="13.360182559576819"><ele>648.0</ele><time>2026-04-26T07:24:05.002Z</time></trkpt><trkpt lat="38.06374542390038" lon="13.360078359793942"><ele>648.0</ele><time>2026-04-26T07:24:06.002Z</time></trkpt><trkpt lat="38.0637551811669" lon="13.359980578012285"><ele>648.0</ele><time>2026-04-26T07:24:07.002Z</time></trkpt><trkpt lat="38.06376179399432" lon="13.359878175056421"><ele>648.0</ele><time>2026-04-26T07:24:08.002Z</time></trkpt><trkpt lat="38.063747788579285" lon="13.359728315916682"><ele>652.0</ele><time>2026-04-26T07:24:10.002Z</time></trkpt><trkpt lat="38.06373173178498" lon="13.359576324452485"><ele>656.0</ele><time>2026-04-26T07:24:12.002Z</time></trkpt><trkpt lat="38.06372306633288" lon="13.359496064691536"><ele>660.0</ele><time>2026-04-26T07:24:13.002Z</time></trkpt><trkpt lat="38.06371704497854" lon="13.359361226734022"><ele>664.0</ele><time>2026-04-26T07:24:15.002Z</time></trkpt><trkpt lat="38.06371630755673" lon="13.35925579560815"><ele>668.0</ele><time>2026-04-26T07:24:17.002Z</time></trkpt><trkpt lat="38.063738881123534" lon="13.359159092571906"><ele>668.0</ele><time>2026-04-26T07:24:19.002Z</time></trkpt><trkpt lat="38.063779345597894" lon="13.359073946019722"><ele>668.0</ele><time>2026-04-26T07:24:21.002Z</time></trkpt><trkpt lat="38.06382846706241" lon="13.35900173211378"><ele>668.0</ele><time>2026-04-26T07:24:23.002Z</time></trkpt><trkpt lat="38.06385716305105" lon="13.35893001587177"><ele>668.0</ele><time>2026-04-26T07:24:26.002Z</time></trkpt><trkpt lat="38.063866859986945" lon="13.358827265267285"><ele>668.0</ele><time>2026-04-26T07:24:31.002Z</time></trkpt><trkpt lat="38.06381450173707" lon="13.358781993244188"><ele>668.0</ele><time>2026-04-26T07:25:32Z</time></trkpt><trkpt lat="38.06378176413389" lon="13.358627006808945"><ele>671.5</ele><time>2026-04-26T07:25:51.001Z</time></trkpt><trkpt lat="38.06377900687744" lon="13.35852668486257"><ele>675.0</ele><time>2026-04-26T07:25:54.001Z</time></trkpt><trkpt lat="38.063738588537596" lon="13.358450864246436"><ele>678.5</ele><time>2026-04-26T07:25:56.001Z</time></trkpt><trkpt lat="38.06371009028528" lon="13.358372561388073"><ele>682.0</ele><time>2026-04-26T07:25:58.001Z</time></trkpt><trkpt lat="38.06371116579474" lon="13.358281118627053"><ele>685.5</ele><time>2026-04-26T07:26:00.001Z</time></trkpt><trkpt lat="38.06372778577542" lon="13.358164970829232"><ele>689.0</ele><time>2026-04-26T07:26:02.001Z</time></trkpt><trkpt lat="38.06375229657458" lon="13.358063873035103"><ele>689.5</ele><time>2026-04-26T07:26:04.001Z</time></trkpt><trkpt lat="38.06373619046882" lon="13.357961205770598"><ele>690.0</ele><time>2026-04-26T07:26:06.001Z</time></trkpt><trkpt lat="38.063682019270765" lon="13.35786716971712"><ele>690.5</ele><time>2026-04-26T07:26:08.002Z</time></trkpt><trkpt lat="38.06361945659824" lon="13.357797047088205"><ele>691.0</ele><time>2026-04-26T07:26:10.002Z</time></trkpt><trkpt lat="38.063549920884086" lon="13.357768581977309"><ele>691.5</ele><time>2026-04-26T07:26:17.002Z</time></trkpt><trkpt lat="38.06346116779231" lon="13.357758183922247"><ele>692.0</ele><time>2026-04-26T07:26:21.002Z</time></trkpt><trkpt lat="38.06337636393205" lon="13.357705907053779"><ele>692.0</ele><time>2026-04-26T07:26:24.002Z</time></trkpt><trkpt lat="38.063308691809326" lon="13.35766495668065"><ele>692.0</ele><time>2026-04-26T07:26:27.002Z</time></trkpt><trkpt lat="38.063245147594394" lon="13.357635787381641"><ele>692.0</ele><time>2026-04-26T07:26:29.002Z</time></trkpt><trkpt lat="38.063175736122545" lon="13.35763840336394"><ele>692.0</ele><time>2026-04-26T07:26:31.002Z</time></trkpt><trkpt lat="38.06310543895212" lon="13.357586613801908"><ele>692.0</ele><time>2026-04-26T07:26:34.002Z</time></trkpt><trkpt lat="38.063047651488354" lon="13.357532742297703"><ele>692.0</ele><time>2026-04-26T07:26:38.002Z</time></trkpt><trkpt lat="38.06299799727872" lon="13.357479748606462"><ele>692.0</ele><time>2026-04-26T07:26:56.003Z</time></trkpt><trkpt lat="38.06294645951766" lon="13.357426154412403"><ele>689.5714285714286</ele><time>2026-04-26T07:27:08.003Z</time></trkpt><trkpt lat="38.06289855774682" lon="13.357363780238423"><ele>687.1428571428572</ele><time>2026-04-26T07:27:16Z</time></trkpt><trkpt lat="38.06284445274334" lon="13.357310369699219"><ele>684.7142857142858</ele><time>2026-04-26T07:27:28Z</time></trkpt><trkpt lat="38.06279725514876" lon="13.357235862588226"><ele>682.2857142857142</ele><time>2026-04-26T07:27:54.001Z</time></trkpt><trkpt lat="38.06274667715407" lon="13.357161442579141"><ele>679.8571428571429</ele><time>2026-04-26T07:27:58.001Z</time></trkpt><trkpt lat="38.06269408556348" lon="13.357117420180643"><ele>677.4285714285714</ele><time>2026-04-26T07:28:03.001Z</time></trkpt><trkpt lat="38.062636508499054" lon="13.357061882119813"><ele>675.0</ele><time>2026-04-26T07:28:07.001Z</time></trkpt><trkpt lat="38.06259787393436" lon="13.356981438443329"><ele>672.7142857142857</ele><time>2026-04-26T07:28:12.001Z</time></trkpt><trkpt lat="38.06256660848848" lon="13.356910907189182"><ele>670.4285714285714</ele><time>2026-04-26T07:28:15.002Z</time></trkpt><trkpt lat="38.062511106896785" lon="13.35685116174524"><ele>668.1428571428571</ele><time>2026-04-26T07:28:18.002Z</time></trkpt><trkpt lat="38.06244410688758" lon="13.356796233982818"><ele>665.8571428571429</ele><time>2026-04-26T07:28:22.002Z</time></trkpt><trkpt lat="38.06237370278433" lon="13.356777236480564"><ele>663.5714285714286</ele><time>2026-04-26T07:28:26.002Z</time></trkpt><trkpt lat="38.06230344794607" lon="13.356765121022875"><ele>661.2857142857143</ele><time>2026-04-26T07:28:29.002Z</time></trkpt><trkpt lat="38.06223708874345" lon="13.35676757181608"><ele>659.0</ele><time>2026-04-26T07:28:33.002Z</time></trkpt><trkpt lat="38.06217758111848" lon="13.35671277335866"><ele>655.5</ele><time>2026-04-26T07:28:47.002Z</time></trkpt><trkpt lat="38.06211107173425" lon="13.356666187862295"><ele>652.0</ele><time>2026-04-26T07:28:51.003Z</time></trkpt><trkpt lat="38.06205367838096" lon="13.356631835663483"><ele>648.5</ele><time>2026-04-26T07:28:54.003Z</time></trkpt><trkpt lat="38.06197852386402" lon="13.35657174294116"><ele>645.0</ele><time>2026-04-26T07:28:58.003Z</time></trkpt><trkpt lat="38.061915598099915" lon="13.35654569196987"><ele>641.5</ele><time>2026-04-26T07:29:01.003Z</time></trkpt><trkpt lat="38.06184882430843" lon="13.356534190371574"><ele>638.0</ele><time>2026-04-26T07:29:03.003Z</time></trkpt><trkpt lat="38.061743689285166" lon="13.356518004298044"><ele>638.0</ele><time>2026-04-26T07:29:05.003Z</time></trkpt><trkpt lat="38.061658353888284" lon="13.356489228074278"><ele>638.0</ele><time>2026-04-26T07:29:07.003Z</time></trkpt><trkpt lat="38.06157214616616" lon="13.356474482113555"><ele>638.0</ele><time>2026-04-26T07:29:09.003Z</time></trkpt><trkpt lat="38.061501708530734" lon="13.356430217641764"><ele>638.0</ele><time>2026-04-26T07:29:11.003Z</time></trkpt><trkpt lat="38.061416832211414" lon="13.35636594039811"><ele>638.0</ele><time>2026-04-26T07:29:13.003Z</time></trkpt><trkpt lat="38.06134322631156" lon="13.35630696613026"><ele>638.0</ele><time>2026-04-26T07:29:16Z</time></trkpt><trkpt lat="38.06127368164591" lon="13.356238723884593"><ele>634.0</ele><time>2026-04-26T07:29:18Z</time></trkpt><trkpt lat="38.06122382741022" lon="13.35614132791119"><ele>630.0</ele><time>2026-04-26T07:29:20Z</time></trkpt><trkpt lat="38.06117888420551" lon="13.356062014439406"><ele>626.0</ele><time>2026-04-26T07:29:22Z</time></trkpt><trkpt lat="38.06113929472572" lon="13.35599677534337"><ele>622.0</ele><time>2026-04-26T07:29:24Z</time></trkpt><trkpt lat="38.061099978983904" lon="13.355881935068972"><ele>618.0</ele><time>2026-04-26T07:29:27Z</time></trkpt><trkpt lat="38.06105462761201" lon="13.355819864661974"><ele>614.0</ele><time>2026-04-26T07:29:29Z</time></trkpt><trkpt lat="38.061009760875756" lon="13.35572116028943"><ele>614.0</ele><time>2026-04-26T07:29:31Z</time></trkpt><trkpt lat="38.06096473448061" lon="13.3556186378465"><ele>614.0</ele><time>2026-04-26T07:29:33Z</time></trkpt><trkpt lat="38.06092864990274" lon="13.355543544293598"><ele>614.0</ele><time>2026-04-26T07:29:35Z</time></trkpt><trkpt lat="38.06090702356917" lon="13.355444321189715"><ele>614.0</ele><time>2026-04-26T07:29:37Z</time></trkpt><trkpt lat="38.06087560604183" lon="13.355348626558246"><ele>614.0</ele><time>2026-04-26T07:29:40Z</time></trkpt><trkpt lat="38.06083457492653" lon="13.355261375583579"><ele>614.0</ele><time>2026-04-26T07:29:42Z</time></trkpt><trkpt lat="38.06078488506289" lon="13.355134665573168"><ele>609.8</ele><time>2026-04-26T07:29:44Z</time></trkpt><trkpt lat="38.06075056098663" lon="13.355038534925624"><ele>605.5999999999999</ele><time>2026-04-26T07:29:46Z</time></trkpt><trkpt lat="38.06070611967787" lon="13.354940582920767"><ele>601.4</ele><time>2026-04-26T07:29:48Z</time></trkpt><trkpt lat="38.0606647425141" lon="13.354818976315354"><ele>597.1999999999999</ele><time>2026-04-26T07:29:50.001Z</time></trkpt><trkpt lat="38.06063882450196" lon="13.354688778486636"><ele>593.0</ele><time>2026-04-26T07:29:52.001Z</time></trkpt><trkpt lat="38.06062990740198" lon="13.354539939875327"><ele>592.4</ele><time>2026-04-26T07:29:54.001Z</time></trkpt><trkpt lat="38.06061933883083" lon="13.354457765137653"><ele>591.8</ele><time>2026-04-26T07:29:55.001Z</time></trkpt><trkpt lat="38.0606133840262" lon="13.354301787844419"><ele>591.2</ele><time>2026-04-26T07:29:57.001Z</time></trkpt><trkpt lat="38.06058933688969" lon="13.3541471475436"><ele>590.6</ele><time>2026-04-26T07:29:59.001Z</time></trkpt><trkpt lat="38.06059936487675" lon="13.35406554979813"><ele>590.0</ele><time>2026-04-26T07:30:00.001Z</time></trkpt><trkpt lat="38.06063723751408" lon="13.353974773103133"><ele>589.2</ele><time>2026-04-26T07:30:01.001Z</time></trkpt><trkpt lat="38.06067172895461" lon="13.3538632289362"><ele>588.4</ele><time>2026-04-26T07:30:02.001Z</time></trkpt><trkpt lat="38.0606765917653" lon="13.353744483422265"><ele>587.6</ele><time>2026-04-26T07:30:03.001Z</time></trkpt><trkpt lat="38.06067928105183" lon="13.353627059451444"><ele>586.8</ele><time>2026-04-26T07:30:04.001Z</time></trkpt><trkpt lat="38.06070046822548" lon="13.35353612188126"><ele>586.0</ele><time>2026-04-26T07:30:05.001Z</time></trkpt><trkpt lat="38.060741706086255" lon="13.353415824689987"><ele>586.1666666666667</ele><time>2026-04-26T07:30:07.001Z</time></trkpt><trkpt lat="38.060786032839225" lon="13.35328877833523"><ele>586.3333333333334</ele><time>2026-04-26T07:30:09.001Z</time></trkpt><trkpt lat="38.06083253538824" lon="13.353182063742816"><ele>586.5</ele><time>2026-04-26T07:30:11.001Z</time></trkpt><trkpt lat="38.06089221628881" lon="13.35314539126577"><ele>586.6666666666666</ele><time>2026-04-26T07:30:12.001Z</time></trkpt><trkpt lat="38.06096297760615" lon="13.353117307173694"><ele>586.8333333333333</ele><time>2026-04-26T07:30:13.001Z</time></trkpt><trkpt lat="38.061012152775014" lon="13.353062578023815"><ele>587.0</ele><time>2026-04-26T07:30:14.001Z</time></trkpt><trkpt lat="38.06106876789493" lon="13.352942120041412"><ele>584.5</ele><time>2026-04-26T07:30:16.001Z</time></trkpt><trkpt lat="38.061182989849286" lon="13.352933976099088"><ele>582.0</ele><time>2026-04-26T07:30:18.001Z</time></trkpt><trkpt lat="38.061274124682804" lon="13.352926171765766"><ele>579.5</ele><time>2026-04-26T07:30:20.001Z</time></trkpt><trkpt lat="38.061358072977136" lon="13.352775602522472"><ele>577.0</ele><time>2026-04-26T07:30:22.002Z</time></trkpt><trkpt lat="38.061409487792375" lon="13.352657278890115"><ele>577.0</ele><time>2026-04-26T07:30:23.002Z</time></trkpt><trkpt lat="38.061450468862816" lon="13.352544096123394"><ele>577.0</ele><time>2026-04-26T07:30:24.002Z</time></trkpt><trkpt lat="38.061468535347245" lon="13.352440889515243"><ele>577.0</ele><time>2026-04-26T07:30:25.002Z</time></trkpt><trkpt lat="38.06147627976691" lon="13.35233700916838"><ele>577.0</ele><time>2026-04-26T07:30:26.002Z</time></trkpt><trkpt lat="38.061476393327276" lon="13.35225559787097"><ele>577.0</ele><time>2026-04-26T07:30:27.002Z</time></trkpt><trkpt lat="38.06146162952845" lon="13.352161331818987"><ele>577.0</ele><time>2026-04-26T07:30:29.002Z</time></trkpt><trkpt lat="38.0614348192761" lon="13.352006926136285"><ele>576.6666666666667</ele><time>2026-04-26T07:30:31.002Z</time></trkpt><trkpt lat="38.06142263128135" lon="13.351912091803653"><ele>576.3333333333334</ele><time>2026-04-26T07:30:32.002Z</time></trkpt><trkpt lat="38.06136448902492" lon="13.351876490418272"><ele>576.0</ele><time>2026-04-26T07:30:35.002Z</time></trkpt><trkpt lat="38.061322327070954" lon="13.35181288956135"><ele>575.6666666666666</ele><time>2026-04-26T07:31:55.001Z</time></trkpt><trkpt lat="38.06130898079439" lon="13.351710200995244"><ele>575.3333333333333</ele><time>2026-04-26T07:31:58.001Z</time></trkpt><trkpt lat="38.06135594555797" lon="13.351632006599104"><ele>575.0</ele><time>2026-04-26T07:32:02.001Z</time></trkpt><trkpt lat="38.06141107380515" lon="13.351545625213163"><ele>575.0</ele><time>2026-04-26T07:32:05.001Z</time></trkpt><trkpt lat="38.061421433720746" lon="13.35146131750841"><ele>575.0</ele><time>2026-04-26T07:32:07.001Z</time></trkpt><trkpt lat="38.06141509264196" lon="13.351371134298967"><ele>575.0</ele><time>2026-04-26T07:32:11.001Z</time></trkpt><trkpt lat="38.06140938672408" lon="13.351291375190645"><ele>575.0</ele><time>2026-04-26T07:32:14.001Z</time></trkpt><trkpt lat="38.06142071712865" lon="13.351204212620493"><ele>575.0</ele><time>2026-04-26T07:32:24.002Z</time></trkpt><trkpt lat="38.06143721921051" lon="13.35112268690016"><ele>575.0</ele><time>2026-04-26T07:32:28.002Z</time></trkpt><trkpt lat="38.06147756422574" lon="13.351060450545559"><ele>575.0</ele><time>2026-04-26T07:32:32.002Z</time></trkpt><trkpt lat="38.061519954339" lon="13.351001312238592"><ele>575.4285714285714</ele><time>2026-04-26T07:32:40.002Z</time></trkpt><trkpt lat="38.061502602473944" lon="13.350909601066286"><ele>575.8571428571428</ele><time>2026-04-26T07:33:24.003Z</time></trkpt><trkpt lat="38.061519153840315" lon="13.350831726918095"><ele>576.2857142857142</ele><time>2026-04-26T07:33:32Z</time></trkpt><trkpt lat="38.06155058007942" lon="13.350742446754868"><ele>576.7142857142857</ele><time>2026-04-26T07:33:35Z</time></trkpt><trkpt lat="38.0615834193143" lon="13.350628360308422"><ele>577.1428571428571</ele><time>2026-04-26T07:33:38Z</time></trkpt><trkpt lat="38.06162834731907" lon="13.350565626170122"><ele>577.5714285714286</ele><time>2026-04-26T07:33:44Z</time></trkpt><trkpt lat="38.06165103101659" lon="13.350485989796658"><ele>578.0</ele><time>2026-04-26T07:33:49Z</time></trkpt><trkpt lat="38.061677927578216" lon="13.350399778942089"><ele>583.1428571428571</ele><time>2026-04-26T07:33:55Z</time></trkpt><trkpt lat="38.0617394309729" lon="13.35034126477909"><ele>588.2857142857142</ele><time>2026-04-26T07:34:11.001Z</time></trkpt><trkpt lat="38.06181327758687" lon="13.350318175664128"><ele>593.4285714285713</ele><time>2026-04-26T07:34:15.001Z</time></trkpt><trkpt lat="38.06184498561765" lon="13.350235943917381"><ele>598.5714285714286</ele><time>2026-04-26T07:34:20.001Z</time></trkpt><trkpt lat="38.06184241026978" lon="13.35014572381383"><ele>603.7142857142857</ele><time>2026-04-26T07:34:26.001Z</time></trkpt><trkpt lat="38.061854424726086" lon="13.350055824709345"><ele>608.8571428571428</ele><time>2026-04-26T07:34:30.001Z</time></trkpt><trkpt lat="38.06183662369244" lon="13.349968474272519"><ele>614.0</ele><time>2026-04-26T07:34:33.002Z</time></trkpt><trkpt lat="38.06184284982198" lon="13.349880021247532"><ele>613.9999999999999</ele><time>2026-04-26T07:35:04.002Z</time></trkpt><trkpt lat="38.06189003770777" lon="13.349814719180236"><ele>614.0</ele><time>2026-04-26T07:35:08.003Z</time></trkpt><trkpt lat="38.06191132699685" lon="13.34971043167473"><ele>614.0</ele><time>2026-04-26T07:35:11.003Z</time></trkpt><trkpt lat="38.061945084033965" lon="13.349638291660339"><ele>614.0</ele><time>2026-04-26T07:35:13.003Z</time></trkpt><trkpt lat="38.061966777612035" lon="13.349544223104907"><ele>614.0</ele><time>2026-04-26T07:35:16.003Z</time></trkpt><trkpt lat="38.06202675914486" lon="13.349479945488401"><ele>613.9999999999999</ele><time>2026-04-26T07:35:19.003Z</time></trkpt><trkpt lat="38.06204329072095" lon="13.349394081773871"><ele>614.0</ele><time>2026-04-26T07:35:22.003Z</time></trkpt><trkpt lat="38.06204810524094" lon="13.349280165123437"><ele>616.1666666666666</ele><time>2026-04-26T07:35:25.003Z</time></trkpt><trkpt lat="38.06205468154708" lon="13.349183333681298"><ele>618.3333333333333</ele><time>2026-04-26T07:35:48Z</time></trkpt><trkpt lat="38.0620445178431" lon="13.34906927409231"><ele>620.5</ele><time>2026-04-26T07:35:51Z</time></trkpt><trkpt lat="38.062000132978795" lon="13.348997677602698"><ele>622.6666666666666</ele><time>2026-04-26T07:35:54Z</time></trkpt><trkpt lat="38.06200920643554" lon="13.348873839079202"><ele>624.8333333333334</ele><time>2026-04-26T07:35:57Z</time></trkpt><trkpt lat="38.06201521010507" lon="13.348755533879807"><ele>627.0</ele><time>2026-04-26T07:35:59Z</time></trkpt><trkpt lat="38.06203431758115" lon="13.348630118586504"><ele>627.0</ele><time>2026-04-26T07:36:01Z</time></trkpt><trkpt lat="38.062048841730345" lon="13.348462768542484"><ele>627.0</ele><time>2026-04-26T07:36:03Z</time></trkpt><trkpt lat="38.062041754097976" lon="13.348375730439155"><ele>627.0</ele><time>2026-04-26T07:36:04Z</time></trkpt><trkpt lat="38.06203866279078" lon="13.34828693837907"><ele>627.0</ele><time>2026-04-26T07:36:05Z</time></trkpt><trkpt lat="38.062033713362936" lon="13.348129519225571"><ele>627.0</ele><time>2026-04-26T07:36:07Z</time></trkpt><trkpt lat="38.06203186235839" lon="13.348046812182078"><ele>626.8571428571429</ele><time>2026-04-26T07:36:08.001Z</time></trkpt><trkpt lat="38.06203405264761" lon="13.347956922023975"><ele>626.7142857142857</ele><time>2026-04-26T07:36:09.001Z</time></trkpt><trkpt lat="38.06202471511322" lon="13.34787304821969"><ele>626.5714285714286</ele><time>2026-04-26T07:36:10.001Z</time></trkpt><trkpt lat="38.0620145217953" lon="13.347788351130578"><ele>626.4285714285714</ele><time>2026-04-26T07:36:11.001Z</time></trkpt><trkpt lat="38.06200872105937" lon="13.34769281209397"><ele>626.2857142857143</ele><time>2026-04-26T07:36:12.001Z</time></trkpt><trkpt lat="38.06200348044284" lon="13.34760163695758"><ele>626.1428571428571</ele><time>2026-04-26T07:36:13.001Z</time></trkpt><trkpt lat="38.06199553486001" lon="13.34751820590135"><ele>626.0</ele><time>2026-04-26T07:36:14.001Z</time></trkpt><trkpt lat="38.06198170445905" lon="13.347391471438339"><ele>626.0</ele><time>2026-04-26T07:36:16.001Z</time></trkpt><trkpt lat="38.062002066747304" lon="13.347294733920089"><ele>626.0</ele><time>2026-04-26T07:36:18.001Z</time></trkpt><trkpt lat="38.061975927114084" lon="13.347213760806113"><ele>626.0</ele><time>2026-04-26T07:36:20.001Z</time></trkpt><trkpt lat="38.06192987144422" lon="13.347156024386992"><ele>626.0</ele><time>2026-04-26T07:36:23.001Z</time></trkpt><trkpt lat="38.0618617408751" lon="13.347123827429579"><ele>626.0</ele><time>2026-04-26T07:36:26.001Z</time></trkpt><trkpt lat="38.06179786445704" lon="13.34707139529565"><ele>626.0</ele><time>2026-04-26T07:36:28.001Z</time></trkpt><trkpt lat="38.06171989565474" lon="13.347021453235364"><ele>626.0</ele><time>2026-04-26T07:36:30.001Z</time></trkpt><trkpt lat="38.06165135312691" lon="13.346964415253321"><ele>625.3333333333333</ele><time>2026-04-26T07:36:32.001Z</time></trkpt><trkpt lat="38.06161587748905" lon="13.346882538934432"><ele>624.6666666666666</ele><time>2026-04-26T07:36:36.001Z</time></trkpt><trkpt lat="38.06157552167407" lon="13.346819021053037"><ele>624.0</ele><time>2026-04-26T07:36:40.002Z</time></trkpt><trkpt lat="38.06152143138887" lon="13.346752754136364"><ele>623.3333333333334</ele><time>2026-04-26T07:36:42.002Z</time></trkpt><trkpt lat="38.06144401657704" lon="13.3466767940222"><ele>622.6666666666667</ele><time>2026-04-26T07:36:44.002Z</time></trkpt><trkpt lat="38.06137673534889" lon="13.346598786547206"><ele>622.0</ele><time>2026-04-26T07:36:46.002Z</time></trkpt><trkpt lat="38.06131512195454" lon="13.346501266312748"><ele>621.1666666666667</ele><time>2026-04-26T07:36:48.002Z</time></trkpt><trkpt lat="38.061267421437115" lon="13.346392253721977"><ele>620.3333333333334</ele><time>2026-04-26T07:36:50.002Z</time></trkpt><trkpt lat="38.06121627710987" lon="13.346297335740294"><ele>619.5</ele><time>2026-04-26T07:36:52.002Z</time></trkpt><trkpt lat="38.06117200150524" lon="13.346234873378265"><ele>618.6666666666666</ele><time>2026-04-26T07:36:54.002Z</time></trkpt><trkpt lat="38.061115467297725" lon="13.346128741462184"><ele>617.8333333333333</ele><time>2026-04-26T07:36:56.002Z</time></trkpt><trkpt lat="38.061065399829154" lon="13.346051914734181"><ele>617.0</ele><time>2026-04-26T07:36:58.002Z</time></trkpt><trkpt lat="38.061026437524724" lon="13.34594497340846"><ele>619.3333333333333</ele><time>2026-04-26T07:37:00.002Z</time></trkpt><trkpt lat="38.06097748510573" lon="13.34584399340873"><ele>621.6666666666666</ele><time>2026-04-26T07:37:02.002Z</time></trkpt><trkpt lat="38.06092577557705" lon="13.345731035117916"><ele>624.0</ele><time>2026-04-26T07:37:04.002Z</time></trkpt><trkpt lat="38.0608887072128" lon="13.345656817181057"><ele>626.3333333333334</ele><time>2026-04-26T07:37:05.002Z</time></trkpt><trkpt lat="38.06085268797172" lon="13.345581463668209"><ele>628.6666666666667</ele><time>2026-04-26T07:37:06.002Z</time></trkpt><trkpt lat="38.06081764999256" lon="13.345509762334698"><ele>631.0</ele><time>2026-04-26T07:37:07.002Z</time></trkpt><trkpt lat="38.0607634581244" lon="13.345387465566414"><ele>631.6666666666667</ele><time>2026-04-26T07:37:09.002Z</time></trkpt><trkpt lat="38.060729713329145" lon="13.345261671258896"><ele>632.3333333333334</ele><time>2026-04-26T07:37:11.002Z</time></trkpt><trkpt lat="38.06067620055335" lon="13.345184877394138"><ele>633.0</ele><time>2026-04-26T07:37:13.003Z</time></trkpt><trkpt lat="38.06063193228845" lon="13.345111690138529"><ele>633.6666666666666</ele><time>2026-04-26T07:37:15.003Z</time></trkpt><trkpt lat="38.06061521911069" lon="13.345009926247256"><ele>634.3333333333333</ele><time>2026-04-26T07:37:18.003Z</time></trkpt><trkpt lat="38.06054256917241" lon="13.344949858974568"><ele>635.0</ele><time>2026-04-26T07:37:25.003Z</time></trkpt><trkpt lat="38.060500708041694" lon="13.344885317449432"><ele>635.0</ele><time>2026-04-26T07:37:29.003Z</time></trkpt><trkpt lat="38.060481213556194" lon="13.344807171837926"><ele>635.0</ele><time>2026-04-26T07:37:32.003Z</time></trkpt><trkpt lat="38.06045704039961" lon="13.344724506715185"><ele>635.0</ele><time>2026-04-26T07:38:24.001Z</time></trkpt><trkpt lat="38.0604134838059" lon="13.344660477802435"><ele>635.0</ele><time>2026-04-26T07:38:29.001Z</time></trkpt><trkpt lat="38.060356856102665" lon="13.34459618189078"><ele>635.0</ele><time>2026-04-26T07:38:31.001Z</time></trkpt><trkpt lat="38.060277651192024" lon="13.344509809046054"><ele>635.0</ele><time>2026-04-26T07:38:33.001Z</time></trkpt><trkpt lat="38.0601958534369" lon="13.344434739865635"><ele>638.5</ele><time>2026-04-26T07:38:35.001Z</time></trkpt><trkpt lat="38.060146427636674" lon="13.344356246543018"><ele>642.0</ele><time>2026-04-26T07:38:37.001Z</time></trkpt><trkpt lat="38.06007606677824" lon="13.344303920824316"><ele>645.5</ele><time>2026-04-26T07:38:39.001Z</time></trkpt><trkpt lat="38.060003042180114" lon="13.344226611098627"><ele>649.0</ele><time>2026-04-26T07:38:41.001Z</time></trkpt><trkpt lat="38.05995759639787" lon="13.344164099784745"><ele>652.5</ele><time>2026-04-26T07:38:43.001Z</time></trkpt><trkpt lat="38.05992855677379" lon="13.344092837607684"><ele>656.0</ele><time>2026-04-26T07:38:46.002Z</time></trkpt><trkpt lat="38.059903854260305" lon="13.344010966822557"><ele>657.9999999999999</ele><time>2026-04-26T07:38:50.002Z</time></trkpt><trkpt lat="38.05988839442692" lon="13.34392757455266"><ele>660.0</ele><time>2026-04-26T07:38:55.002Z</time></trkpt><trkpt lat="38.059874304288684" lon="13.34383791859308"><ele>662.0</ele><time>2026-04-26T07:39:16.002Z</time></trkpt><trkpt lat="38.05985758549607" lon="13.343760456041458"><ele>664.0</ele><time>2026-04-26T07:39:24.003Z</time></trkpt><trkpt lat="38.059834677809405" lon="13.343672783868692"><ele>666.0</ele><time>2026-04-26T07:39:28.003Z</time></trkpt><trkpt lat="38.059781322888455" lon="13.34362508376034"><ele>667.9999999999999</ele><time>2026-04-26T07:41:26.003Z</time></trkpt><trkpt lat="38.05972185023221" lon="13.343597918007982"><ele>670.0</ele><time>2026-04-26T07:41:33.003Z</time></trkpt><trkpt lat="38.05966794760633" lon="13.343544280227137"><ele>674.3333333333334</ele><time>2026-04-26T07:41:36.003Z</time></trkpt><trkpt lat="38.05962740292256" lon="13.34345863872196"><ele>678.6666666666667</ele><time>2026-04-26T07:41:42.003Z</time></trkpt><trkpt lat="38.059586991964565" lon="13.343388854840372"><ele>683.0</ele><time>2026-04-26T07:41:49.003Z</time></trkpt><trkpt lat="38.05955011168525" lon="13.34328676278136"><ele>687.3333333333334</ele><time>2026-04-26T07:45:09.002Z</time></trkpt><trkpt lat="38.059589566381064" lon="13.34317815552977"><ele>691.6666666666666</ele><time>2026-04-26T07:47:11.002Z</time></trkpt><trkpt lat="38.059516905735904" lon="13.34314817257848"><ele>696.0</ele><time>2026-04-26T07:47:19.002Z</time></trkpt><trkpt lat="38.059455216429306" lon="13.343129118733534"><ele>696.0</ele><time>2026-04-26T07:47:22.002Z</time></trkpt><trkpt lat="38.05939046771273" lon="13.343080097462847"><ele>696.0</ele><time>2026-04-26T07:47:26.002Z</time></trkpt><trkpt lat="38.05932493936678" lon="13.343067320645575"><ele>696.0</ele><time>2026-04-26T07:47:29.002Z</time></trkpt><trkpt lat="38.05925840824264" lon="13.343050881397772"><ele>696.0</ele><time>2026-04-26T07:47:32.002Z</time></trkpt><trkpt lat="38.05920125560561" lon="13.34309129545912"><ele>696.0</ele><time>2026-04-26T07:49:02.001Z</time></trkpt><trkpt lat="38.05913334357309" lon="13.343093829846113"><ele>696.0</ele><time>2026-04-26T07:49:06.001Z</time></trkpt><trkpt lat="38.059072302794966" lon="13.343119042647201"><ele>696.0</ele><time>2026-04-26T07:49:26.002Z</time></trkpt><trkpt lat="38.05901985757096" lon="13.343167190207584"><ele>697.1428571428571</ele><time>2026-04-26T07:49:45.002Z</time></trkpt><trkpt lat="38.05894853318297" lon="13.34319735764611"><ele>698.2857142857143</ele><time>2026-04-26T07:50:30Z</time></trkpt><trkpt lat="38.058885566563404" lon="13.343182899126454"><ele>699.4285714285714</ele><time>2026-04-26T07:53:04.001Z</time></trkpt><trkpt lat="38.05879908867116" lon="13.343170406122054"><ele>700.5714285714286</ele><time>2026-04-26T07:53:18.001Z</time></trkpt><trkpt lat="38.058733678193214" lon="13.343157668616675"><ele>701.7142857142857</ele><time>2026-04-26T07:54:00.003Z</time></trkpt><trkpt lat="38.058669546517535" lon="13.343184412816166"><ele>702.8571428571429</ele><time>2026-04-26T07:54:06.003Z</time></trkpt><trkpt lat="38.05862568480652" lon="13.343267660886957"><ele>704.0</ele><time>2026-04-26T07:54:37Z</time></trkpt><trkpt lat="38.05856617347368" lon="13.343311466037823"><ele>704.0</ele><time>2026-04-26T07:54:40Z</time></trkpt><trkpt lat="38.05850568675649" lon="13.343362654803048"><ele>704.0</ele><time>2026-04-26T07:54:44Z</time></trkpt><trkpt lat="38.058429776376435" lon="13.343377216799997"><ele>704.0</ele><time>2026-04-26T07:54:56Z</time></trkpt><trkpt lat="38.058358510636864" lon="13.343323437617745"><ele>704.0</ele><time>2026-04-26T07:55:00.001Z</time></trkpt><trkpt lat="38.058284389072895" lon="13.343310799298681"><ele>704.0</ele><time>2026-04-26T07:55:04.001Z</time></trkpt><trkpt lat="38.05821839394143" lon="13.343313364906631"><ele>704.0</ele><time>2026-04-26T07:55:06.001Z</time></trkpt><trkpt lat="38.05813871050788" lon="13.343320853409145"><ele>706.0</ele><time>2026-04-26T07:55:09.001Z</time></trkpt><trkpt lat="38.058062975159785" lon="13.343299545181486"><ele>708.0</ele><time>2026-04-26T07:55:12.001Z</time></trkpt><trkpt lat="38.0579975423107" lon="13.343297182644005"><ele>710.0</ele><time>2026-04-26T07:55:15.001Z</time></trkpt><trkpt lat="38.05792804821192" lon="13.343232475022743"><ele>712.0</ele><time>2026-04-26T07:55:18.001Z</time></trkpt><trkpt lat="38.05786197339083" lon="13.343197024258618"><ele>714.0</ele><time>2026-04-26T07:55:20.001Z</time></trkpt><trkpt lat="38.05778492371186" lon="13.343196551653175"><ele>716.0</ele><time>2026-04-26T07:55:22.001Z</time></trkpt><trkpt lat="38.05770501876211" lon="13.343161857655533"><ele>716.0</ele><time>2026-04-26T07:55:27.001Z</time></trkpt><trkpt lat="38.05764085090928" lon="13.343136651626098"><ele>716.0</ele><time>2026-04-26T07:55:31.002Z</time></trkpt><trkpt lat="38.05755051430141" lon="13.343088577028182"><ele>716.0</ele><time>2026-04-26T07:55:34.002Z</time></trkpt><trkpt lat="38.057484833265434" lon="13.343032597084834"><ele>716.0</ele><time>2026-04-26T07:55:37.002Z</time></trkpt><trkpt lat="38.057421094057155" lon="13.34301691337657"><ele>716.0</ele><time>2026-04-26T07:55:56.002Z</time></trkpt><trkpt lat="38.05735225222608" lon="13.34301895871197"><ele>716.0</ele><time>2026-04-26T07:57:04Z</time></trkpt><trkpt lat="38.05726333703159" lon="13.342989230967591"><ele>717.5</ele><time>2026-04-26T07:57:07Z</time></trkpt><trkpt lat="38.05722899633905" lon="13.342922005697636"><ele>719.0</ele><time>2026-04-26T07:57:26.001Z</time></trkpt><trkpt lat="38.0571419647365" lon="13.34289119555626"><ele>720.5</ele><time>2026-04-26T07:57:54.002Z</time></trkpt><trkpt lat="38.05706582337136" lon="13.342856865915335"><ele>722.0</ele><time>2026-04-26T07:57:56.002Z</time></trkpt><trkpt lat="38.056982061713164" lon="13.342806126495862"><ele>723.5</ele><time>2026-04-26T07:58:14.003Z</time></trkpt><trkpt lat="38.05692292290396" lon="13.342771068968384"><ele>725.0</ele><time>2026-04-26T07:58:15.003Z</time></trkpt><trkpt lat="38.05683474159218" lon="13.342731175753405"><ele>725.0</ele><time>2026-04-26T07:58:17.003Z</time></trkpt><trkpt lat="38.05675446100599" lon="13.342687340170455"><ele>725.0</ele><time>2026-04-26T07:58:21.003Z</time></trkpt><trkpt lat="38.05668994210731" lon="13.342697760229958"><ele>725.0</ele><time>2026-04-26T07:58:26.003Z</time></trkpt><trkpt lat="38.056653508116206" lon="13.34277648464188"><ele>725.0</ele><time>2026-04-26T07:58:29.003Z</time></trkpt><trkpt lat="38.05660482034606" lon="13.342865746486465"><ele>725.0</ele><time>2026-04-26T07:58:32.003Z</time></trkpt><trkpt lat="38.05655361301201" lon="13.34295265041386"><ele>725.0</ele><time>2026-04-26T07:58:35.003Z</time></trkpt><trkpt lat="38.056478119024526" lon="13.342956051003132"><ele>722.3333333333333</ele><time>2026-04-26T07:58:39.003Z</time></trkpt><trkpt lat="38.0563818626035" lon="13.342931666296067"><ele>719.6666666666666</ele><time>2026-04-26T07:58:41.999Z</time></trkpt><trkpt lat="38.05631662408343" lon="13.342916818265264"><ele>717.0</ele><time>2026-04-26T07:58:43.999Z</time></trkpt><trkpt lat="38.05624894752212" lon="13.342912353193354"><ele>714.3333333333334</ele><time>2026-04-26T07:58:46Z</time></trkpt><trkpt lat="38.05617119932849" lon="13.342922772188162"><ele>711.6666666666667</ele><time>2026-04-26T07:58:49Z</time></trkpt><trkpt lat="38.05612433941104" lon="13.342843464621398"><ele>709.0</ele><time>2026-04-26T07:58:52Z</time></trkpt><trkpt lat="38.05609932689455" lon="13.342738241547305"><ele>709.0000000000001</ele><time>2026-04-26T07:58:54Z</time></trkpt><trkpt lat="38.05605853917217" lon="13.342662205909619"><ele>709.0</ele><time>2026-04-26T07:58:57Z</time></trkpt><trkpt lat="38.05602128646281" lon="13.342590359812972"><ele>709.0</ele><time>2026-04-26T07:59:01Z</time></trkpt><trkpt lat="38.055990301273845" lon="13.342519573863992"><ele>709.0</ele><time>2026-04-26T07:59:22.001Z</time></trkpt><trkpt lat="38.05598986889295" lon="13.342431242406823"><ele>709.0</ele><time>2026-04-26T07:59:33.001Z</time></trkpt><trkpt lat="38.055917920224665" lon="13.342382140747343"><ele>709.0000000000001</ele><time>2026-04-26T07:59:54.002Z</time></trkpt><trkpt lat="38.05585522929708" lon="13.342323209702927"><ele>709.0</ele><time>2026-04-26T07:59:58.002Z</time></trkpt><trkpt lat="38.05579397389501" lon="13.342298381506094"><ele>705.0000000000001</ele><time>2026-04-26T08:00:02.002Z</time></trkpt><trkpt lat="38.05576096009711" lon="13.342226285690112"><ele>701.0</ele><time>2026-04-26T08:00:10.002Z</time></trkpt><trkpt lat="38.0556993964257" lon="13.342171989742505"><ele>697.0</ele><time>2026-04-26T08:00:26.003Z</time></trkpt><trkpt lat="38.05563131601023" lon="13.342127027012912"><ele>693.0</ele><time>2026-04-26T08:00:30.003Z</time></trkpt><trkpt lat="38.05557152920836" lon="13.342065252553983"><ele>689.0</ele><time>2026-04-26T08:00:42.003Z</time></trkpt><trkpt lat="38.05552050592115" lon="13.342013051975574"><ele>685.0000000000001</ele><time>2026-04-26T08:00:49.999Z</time></trkpt><trkpt lat="38.055459016345615" lon="13.341959457512667"><ele>681.0</ele><time>2026-04-26T08:00:54Z</time></trkpt><trkpt lat="38.055426877435636" lon="13.341889834804913"><ele>681.0000000000001</ele><time>2026-04-26T08:00:57Z</time></trkpt><trkpt lat="38.055387316199074" lon="13.341825617612427"><ele>681.0</ele><time>2026-04-26T08:00:59Z</time></trkpt><trkpt lat="38.05532089538734" lon="13.341780817396069"><ele>681.0</ele><time>2026-04-26T08:01:02Z</time></trkpt><trkpt lat="38.05525453932403" lon="13.341732835302826"><ele>681.0</ele><time>2026-04-26T08:01:06Z</time></trkpt><trkpt lat="38.05519431575033" lon="13.341682333806967"><ele>681.0</ele><time>2026-04-26T08:01:11Z</time></trkpt><trkpt lat="38.05516177490976" lon="13.34159816755396"><ele>681.0000000000001</ele><time>2026-04-26T08:01:14Z</time></trkpt><trkpt lat="38.05520584863312" lon="13.341503606449178"><ele>681.0</ele><time>2026-04-26T08:02:17.002Z</time></trkpt><trkpt lat="38.05529545250857" lon="13.341391090519107"><ele>679.5</ele><time>2026-04-26T08:02:19.002Z</time></trkpt><trkpt lat="38.055341368855125" lon="13.34132444758391"><ele>678.0</ele><time>2026-04-26T08:02:20.002Z</time></trkpt><trkpt lat="38.055390063642804" lon="13.341244636533965"><ele>676.5</ele><time>2026-04-26T08:02:21.002Z</time></trkpt><trkpt lat="38.05544253092441" lon="13.341152219105156"><ele>675.0</ele><time>2026-04-26T08:02:22.003Z</time></trkpt><trkpt lat="38.05550121450734" lon="13.341061724401447"><ele>673.5</ele><time>2026-04-26T08:02:23.003Z</time></trkpt><trkpt lat="38.05555588859415" lon="13.34097643954321"><ele>672.0</ele><time>2026-04-26T08:02:24.003Z</time></trkpt><trkpt lat="38.05560826275767" lon="13.340893453740588"><ele>672.0</ele><time>2026-04-26T08:02:25.003Z</time></trkpt><trkpt lat="38.055660548215606" lon="13.340804394904547"><ele>672.0</ele><time>2026-04-26T08:02:26.003Z</time></trkpt><trkpt lat="38.05571385633577" lon="13.340715602616923"><ele>672.0</ele><time>2026-04-26T08:02:27.003Z</time></trkpt><trkpt lat="38.055769094453076" lon="13.340638732458604"><ele>672.0</ele><time>2026-04-26T08:02:28.003Z</time></trkpt><trkpt lat="38.05582524349862" lon="13.340565872373332"><ele>672.0</ele><time>2026-04-26T08:02:29.003Z</time></trkpt><trkpt lat="38.05589992707237" lon="13.340488792480803"><ele>672.0</ele><time>2026-04-26T08:02:30.003Z</time></trkpt><trkpt lat="38.055966931073826" lon="13.340435609814307"><ele>669.8</ele><time>2026-04-26T08:02:31.003Z</time></trkpt><trkpt lat="38.056046346017006" lon="13.340374701322274"><ele>667.6</ele><time>2026-04-26T08:02:32.003Z</time></trkpt><trkpt lat="38.056134542546424" lon="13.340326394785317"><ele>665.4</ele><time>2026-04-26T08:02:33.003Z</time></trkpt><trkpt lat="38.056214159851415" lon="13.340287679232143"><ele>663.1999999999999</ele><time>2026-04-26T08:02:34.003Z</time></trkpt><trkpt lat="38.0562999821976" lon="13.340225746768859"><ele>661.0</ele><time>2026-04-26T08:02:35.003Z</time></trkpt><trkpt lat="38.056385495367955" lon="13.340159973456775"><ele>661.0</ele><time>2026-04-26T08:02:36.003Z</time></trkpt><trkpt lat="38.05646786019299" lon="13.340102583412708"><ele>661.0</ele><time>2026-04-26T08:02:37.003Z</time></trkpt><trkpt lat="38.05656583822086" lon="13.340048599423307"><ele>661.0</ele><time>2026-04-26T08:02:38.003Z</time></trkpt><trkpt lat="38.0566635855589" lon="13.340010403373242"><ele>661.0</ele><time>2026-04-26T08:02:39.003Z</time></trkpt><trkpt lat="38.05673697677311" lon="13.339973909222213"><ele>661.0</ele><time>2026-04-26T08:02:40.003Z</time></trkpt><trkpt lat="38.056807231998" lon="13.339944846142226"><ele>661.8</ele><time>2026-04-26T08:02:41.003Z</time></trkpt><trkpt lat="38.0569167052026" lon="13.339865382376226"><ele>662.5999999999999</ele><time>2026-04-26T08:02:43.003Z</time></trkpt><trkpt lat="38.05697505106827" lon="13.33983141144574"><ele>663.4</ele><time>2026-04-26T08:02:44.003Z</time></trkpt><trkpt lat="38.05708808320114" lon="13.33975996560113"><ele>664.2</ele><time>2026-04-26T08:02:46.003Z</time></trkpt><trkpt lat="38.05717350367213" lon="13.339633486528257"><ele>665.0</ele><time>2026-04-26T08:02:48.003Z</time></trkpt><trkpt lat="38.05720126301591" lon="13.339549659549936"><ele>662.6666666666666</ele><time>2026-04-26T08:02:49.003Z</time></trkpt><trkpt lat="38.05721692556067" lon="13.339406047892721"><ele>660.3333333333333</ele><time>2026-04-26T08:02:51.003Z</time></trkpt><trkpt lat="38.057221021821206" lon="13.339313362696648"><ele>658.0</ele><time>2026-04-26T08:02:52Z</time></trkpt><trkpt lat="38.05722900471834" lon="13.339219607077252"><ele>655.6666666666666</ele><time>2026-04-26T08:02:53Z</time></trkpt><trkpt lat="38.05722054775158" lon="13.33913740005347"><ele>653.3333333333334</ele><time>2026-04-26T08:02:54Z</time></trkpt><trkpt lat="38.05719885121163" lon="13.339039474178396"><ele>651.0</ele><time>2026-04-26T08:02:56Z</time></trkpt><trkpt lat="38.05715155237225" lon="13.338971358286663"><ele>651.0</ele><time>2026-04-26T08:02:58Z</time></trkpt><trkpt lat="38.057064227747404" lon="13.338980428196557"><ele>651.0</ele><time>2026-04-26T08:03:00Z</time></trkpt><trkpt lat="38.05699816771172" lon="13.339019092516224"><ele>651.0</ele><time>2026-04-26T08:03:01Z</time></trkpt><trkpt lat="38.05693015457278" lon="13.339051584616387"><ele>651.0</ele><time>2026-04-26T08:03:02Z</time></trkpt><trkpt lat="38.05684667091618" lon="13.339078847045256"><ele>651.0</ele><time>2026-04-26T08:03:03Z</time></trkpt><trkpt lat="38.05677327249432" lon="13.339108335427847"><ele>651.0</ele><time>2026-04-26T08:03:04Z</time></trkpt><trkpt lat="38.05669329224396" lon="13.33913496759763"><ele>648.5999999999999</ele><time>2026-04-26T08:03:05Z</time></trkpt><trkpt lat="38.05660635834969" lon="13.3391625961394"><ele>646.1999999999999</ele><time>2026-04-26T08:03:06Z</time></trkpt><trkpt lat="38.056515398881594" lon="13.339189390108263"><ele>643.8</ele><time>2026-04-26T08:03:07Z</time></trkpt><trkpt lat="38.05642407467497" lon="13.339218634632465"><ele>641.4</ele><time>2026-04-26T08:03:08Z</time></trkpt><trkpt lat="38.05633524594387" lon="13.339232445657125"><ele>639.0</ele><time>2026-04-26T08:03:09Z</time></trkpt><trkpt lat="38.0562501593444" lon="13.339240174123923"><ele>639.0000000000001</ele><time>2026-04-26T08:03:10Z</time></trkpt><trkpt lat="38.05617186994238" lon="13.339225267450855"><ele>639.0</ele><time>2026-04-26T08:03:11Z</time></trkpt><trkpt lat="38.05610581344805" lon="13.33920139826904"><ele>639.0</ele><time>2026-04-26T08:03:12Z</time></trkpt><trkpt lat="38.05603600161078" lon="13.339201793440381"><ele>639.0</ele><time>2026-04-26T08:03:13Z</time></trkpt><trkpt lat="38.05597410626449" lon="13.339175837404456"><ele>639.0</ele><time>2026-04-26T08:03:15Z</time></trkpt><trkpt lat="38.05601194591268" lon="13.339065722267748"><ele>639.0000000000001</ele><time>2026-04-26T08:03:17Z</time></trkpt><trkpt lat="38.05605526561111" lon="13.339002867727046"><ele>639.0</ele><time>2026-04-26T08:03:18Z</time></trkpt><trkpt lat="38.05605782297011" lon="13.338859409025613"><ele>638.0</ele><time>2026-04-26T08:03:20Z</time></trkpt><trkpt lat="38.0560182171552" lon="13.338778415761476"><ele>637.0</ele><time>2026-04-26T08:03:21Z</time></trkpt><trkpt lat="38.05595631140874" lon="13.338697028758798"><ele>636.0</ele><time>2026-04-26T08:03:22Z</time></trkpt><trkpt lat="38.05590239982599" lon="13.33862367234627"><ele>635.0</ele><time>2026-04-26T08:03:23Z</time></trkpt><trkpt lat="38.05586114733371" lon="13.338549782347096"><ele>634.0</ele><time>2026-04-26T08:03:24Z</time></trkpt><trkpt lat="38.05582190671295" lon="13.338486998919931"><ele>633.0</ele><time>2026-04-26T08:03:25.001Z</time></trkpt><trkpt lat="38.05571581524578" lon="13.33846300446635"><ele>629.0</ele><time>2026-04-26T08:03:27.001Z</time></trkpt><trkpt lat="38.05561433139588" lon="13.338588003526008"><ele>625.0</ele><time>2026-04-26T08:03:29.001Z</time></trkpt><trkpt lat="38.05553646185248" lon="13.338675227416038"><ele>621.0</ele><time>2026-04-26T08:03:30.001Z</time></trkpt><trkpt lat="38.055467735737196" lon="13.338733062330837"><ele>617.0</ele><time>2026-04-26T08:03:31.001Z</time></trkpt><trkpt lat="38.05538939060139" lon="13.338764855432828"><ele>613.0</ele><time>2026-04-26T08:03:32.001Z</time></trkpt><trkpt lat="38.05530942172909" lon="13.33876529075854"><ele>613.0</ele><time>2026-04-26T08:03:33.001Z</time></trkpt><trkpt lat="38.055213625281134" lon="13.338735664559183"><ele>613.0</ele><time>2026-04-26T08:03:34.001Z</time></trkpt><trkpt lat="38.0551177785095" lon="13.33871555763123"><ele>613.0</ele><time>2026-04-26T08:03:35.001Z</time></trkpt><trkpt lat="38.05502921201884" lon="13.33869647817294"><ele>613.0</ele><time>2026-04-26T08:03:36.001Z</time></trkpt><trkpt lat="38.0549453031402" lon="13.338653729311769"><ele>613.0</ele><time>2026-04-26T08:03:37.001Z</time></trkpt><trkpt lat="38.054883160968075" lon="13.33860587746922"><ele>613.0</ele><time>2026-04-26T08:03:38.001Z</time></trkpt><trkpt lat="38.05482865210388" lon="13.33853179142443"><ele>611.8</ele><time>2026-04-26T08:03:39.001Z</time></trkpt><trkpt lat="38.05478781317049" lon="13.338440922493428"><ele>610.5999999999999</ele><time>2026-04-26T08:03:40.001Z</time></trkpt><trkpt lat="38.05473860684425" lon="13.338325819422037"><ele>609.4000000000001</ele><time>2026-04-26T08:03:41.001Z</time></trkpt><trkpt lat="38.05470724032581" lon="13.338209926761389"><ele>608.2</ele><time>2026-04-26T08:03:42.001Z</time></trkpt><trkpt lat="38.054679026282926" lon="13.338088200301408"><ele>607.0</ele><time>2026-04-26T08:03:43.001Z</time></trkpt><trkpt lat="38.05464608305724" lon="13.337968892461197"><ele>607.0</ele><time>2026-04-26T08:03:44.001Z</time></trkpt><trkpt lat="38.054594602039806" lon="13.337862255986975"><ele>607.0</ele><time>2026-04-26T08:03:45.001Z</time></trkpt><trkpt lat="38.0545301514915" lon="13.337730764145556"><ele>607.0</ele><time>2026-04-26T08:03:46.001Z</time></trkpt><trkpt lat="38.0544729546785" lon="13.33762539940581"><ele>607.0</ele><time>2026-04-26T08:03:47.001Z</time></trkpt><trkpt lat="38.05439397431942" lon="13.337526500590444"><ele>607.0</ele><time>2026-04-26T08:03:48.001Z</time></trkpt><trkpt lat="38.05431266517741" lon="13.337428350534845"><ele>607.0</ele><time>2026-04-26T08:03:49.001Z</time></trkpt><trkpt lat="38.054253867168974" lon="13.337338632923672"><ele>607.0</ele><time>2026-04-26T08:03:50.001Z</time></trkpt><trkpt lat="38.05421600304893" lon="13.337231940605891"><ele>607.0</ele><time>2026-04-26T08:03:51.001Z</time></trkpt><trkpt lat="38.054188144835024" lon="13.337124243811957"><ele>607.0</ele><time>2026-04-26T08:03:52.001Z</time></trkpt><trkpt lat="38.054162846370026" lon="13.336990181088387"><ele>607.0</ele><time>2026-04-26T08:03:53.001Z</time></trkpt><trkpt lat="38.05413220182216" lon="13.336887866583812"><ele>607.75</ele><time>2026-04-26T08:03:54.001Z</time></trkpt><trkpt lat="38.0540743602264" lon="13.336770014642031"><ele>608.5</ele><time>2026-04-26T08:03:55.001Z</time></trkpt><trkpt lat="38.0540042584035" lon="13.33665086177013"><ele>609.25</ele><time>2026-04-26T08:03:56.001Z</time></trkpt><trkpt lat="38.053932896673416" lon="13.336531758411112"><ele>610.0</ele><time>2026-04-26T08:03:57.002Z</time></trkpt><trkpt lat="38.053870080803726" lon="13.336412583165066"><ele>604.5</ele><time>2026-04-26T08:03:58.002Z</time></trkpt><trkpt lat="38.053800068139005" lon="13.336292272660303"><ele>599.0</ele><time>2026-04-26T08:03:59.002Z</time></trkpt><trkpt lat="38.053726033621615" lon="13.336168432725518"><ele>593.5</ele><time>2026-04-26T08:04:00.002Z</time></trkpt><trkpt lat="38.05366062833068" lon="13.336033625618215"><ele>588.0</ele><time>2026-04-26T08:04:01.002Z</time></trkpt><trkpt lat="38.05359835490062" lon="13.335902246504133"><ele>588.0</ele><time>2026-04-26T08:04:02.002Z</time></trkpt><trkpt lat="38.05352946615918" lon="13.33575806327704"><ele>588.0</ele><time>2026-04-26T08:04:03.002Z</time></trkpt><trkpt lat="38.053468551737296" lon="13.335611846272398"><ele>588.0</ele><time>2026-04-26T08:04:04.002Z</time></trkpt><trkpt lat="38.05342046868096" lon="13.335482883544932"><ele>588.0</ele><time>2026-04-26T08:04:05.002Z</time></trkpt><trkpt lat="38.053376965344896" lon="13.335340932359887"><ele>587.0</ele><time>2026-04-26T08:04:06.002Z</time></trkpt><trkpt lat="38.05333565208688" lon="13.335207008534306"><ele>586.0</ele><time>2026-04-26T08:04:07.002Z</time></trkpt><trkpt lat="38.053321156237374" lon="13.335071838486504"><ele>585.0</ele><time>2026-04-26T08:04:08.002Z</time></trkpt><trkpt lat="38.05329303051825" lon="13.334943461342561"><ele>584.0</ele><time>2026-04-26T08:04:09.002Z</time></trkpt><trkpt lat="38.053249423463356" lon="13.334822248629507"><ele>583.0</ele><time>2026-04-26T08:04:10.002Z</time></trkpt><trkpt lat="38.05323894618204" lon="13.334696598027534"><ele>583.0</ele><time>2026-04-26T08:04:11.002Z</time></trkpt><trkpt lat="38.05319874793436" lon="13.334590051102591"><ele>583.0</ele><time>2026-04-26T08:04:12.002Z</time></trkpt><trkpt lat="38.053177002612045" lon="13.334488489892935"><ele>583.0</ele><time>2026-04-26T08:04:13.002Z</time></trkpt><trkpt lat="38.0531520000908" lon="13.334364155184598"><ele>583.0</ele><time>2026-04-26T08:04:14.002Z</time></trkpt><trkpt lat="38.053124660873436" lon="13.334234995659791"><ele>583.0</ele><time>2026-04-26T08:04:15.002Z</time></trkpt><trkpt lat="38.05310334914661" lon="13.334114256341168"><ele>583.0</ele><time>2026-04-26T08:04:16.002Z</time></trkpt><trkpt lat="38.053078447006634" lon="13.333994111538772"><ele>583.0</ele><time>2026-04-26T08:04:17.002Z</time></trkpt><trkpt lat="38.053036773274954" lon="13.333879058437908"><ele>583.0</ele><time>2026-04-26T08:04:18.002Z</time></trkpt><trkpt lat="38.05300293811466" lon="13.333775679920349"><ele>583.0</ele><time>2026-04-26T08:04:19.002Z</time></trkpt><trkpt lat="38.052956455230564" lon="13.33368329268635"><ele>583.0</ele><time>2026-04-26T08:04:20.002Z</time></trkpt><trkpt lat="38.05288606792473" lon="13.333578097094847"><ele>578.3333333333334</ele><time>2026-04-26T08:04:21.002Z</time></trkpt><trkpt lat="38.05280280027966" lon="13.333424327236223"><ele>573.6666666666666</ele><time>2026-04-26T08:04:22.002Z</time></trkpt><trkpt lat="38.05271947850351" lon="13.333236837254697"><ele>569.0</ele><time>2026-04-26T08:04:23.002Z</time></trkpt><trkpt lat="38.05261057639921" lon="13.33307578087805"><ele>567.25</ele><time>2026-04-26T08:04:24.002Z</time></trkpt><trkpt lat="38.05250543539441" lon="13.332935750956265"><ele>565.5</ele><time>2026-04-26T08:04:25.002Z</time></trkpt><trkpt lat="38.05242343021363" lon="13.332815219499844"><ele>563.75</ele><time>2026-04-26T08:04:26.002Z</time></trkpt><trkpt lat="38.052360401181886" lon="13.332699710922142"><ele>562.0</ele><time>2026-04-26T08:04:27.002Z</time></trkpt><trkpt lat="38.05229423042031" lon="13.332603852670625"><ele>562.0</ele><time>2026-04-26T08:04:28.002Z</time></trkpt><trkpt lat="38.05224614699555" lon="13.332525803026972"><ele>562.0</ele><time>2026-04-26T08:04:29.002Z</time></trkpt><trkpt lat="38.05217893404112" lon="13.332435026835611"><ele>562.0</ele><time>2026-04-26T08:04:31.003Z</time></trkpt><trkpt lat="38.05229719275627" lon="13.332295016910097"><ele>562.0</ele><time>2026-04-26T08:04:33.003Z</time></trkpt><trkpt lat="38.052326798023444" lon="13.332160661549398"><ele>562.0</ele><time>2026-04-26T08:04:35.003Z</time></trkpt><trkpt lat="38.05246084288559" lon="13.332199441334398"><ele>561.6</ele><time>2026-04-26T08:04:37.003Z</time></trkpt><trkpt lat="38.05253934545399" lon="13.332208233728792"><ele>561.2</ele><time>2026-04-26T08:04:38.003Z</time></trkpt><trkpt lat="38.05261075206807" lon="13.332254467769701"><ele>560.8</ele><time>2026-04-26T08:04:39.003Z</time></trkpt><trkpt lat="38.05269776251425" lon="13.33230650418092"><ele>560.4</ele><time>2026-04-26T08:04:40.003Z</time></trkpt><trkpt lat="38.05278545015491" lon="13.332363245187333"><ele>560.0</ele><time>2026-04-26T08:04:41.003Z</time></trkpt><trkpt lat="38.05287398833999" lon="13.332414445453368"><ele>560.0</ele><time>2026-04-26T08:04:42.003Z</time></trkpt><trkpt lat="38.052965366024864" lon="13.33243188320138"><ele>560.0</ele><time>2026-04-26T08:04:43.003Z</time></trkpt><trkpt lat="38.05304860565043" lon="13.332483047244981"><ele>560.0</ele><time>2026-04-26T08:04:44.003Z</time></trkpt><trkpt lat="38.05315558561932" lon="13.332504099802124"><ele>560.0</ele><time>2026-04-26T08:04:45.003Z</time></trkpt><trkpt lat="38.053264127712346" lon="13.332495413799792"><ele>560.0</ele><time>2026-04-26T08:04:46.003Z</time></trkpt><trkpt lat="38.053372563258804" lon="13.332490992865132"><ele>561.4</ele><time>2026-04-26T08:04:47.003Z</time></trkpt><trkpt lat="38.0534744138865" lon="13.332491843835523"><ele>562.8</ele><time>2026-04-26T08:04:48.003Z</time></trkpt><trkpt lat="38.05357078330884" lon="13.332490506957631"><ele>564.2</ele><time>2026-04-26T08:04:49.003Z</time></trkpt><trkpt lat="38.05366346936954" lon="13.332487612521582"><ele>565.6</ele><time>2026-04-26T08:04:50.003Z</time></trkpt><trkpt lat="38.05374621818597" lon="13.332506198144362"><ele>567.0</ele><time>2026-04-26T08:04:51.003Z</time></trkpt><trkpt lat="38.05384075436907" lon="13.33249836929676"><ele>567.0</ele><time>2026-04-26T08:04:52.003Z</time></trkpt><trkpt lat="38.05393193144931" lon="13.33247907248343"><ele>567.0</ele><time>2026-04-26T08:04:53.003Z</time></trkpt><trkpt lat="38.054032606584954" lon="13.332446861956019"><ele>567.0</ele><time>2026-04-26T08:04:54.003Z</time></trkpt><trkpt lat="38.05410772231152" lon="13.332432024172743"><ele>567.0</ele><time>2026-04-26T08:04:55.003Z</time></trkpt><trkpt lat="38.05420216763952" lon="13.332398119410051"><ele>567.0</ele><time>2026-04-26T08:04:56.003Z</time></trkpt><trkpt lat="38.054285704693584" lon="13.332373983765585"><ele>570.0</ele><time>2026-04-26T08:04:57.003Z</time></trkpt><trkpt lat="38.05436496906477" lon="13.332362592677283"><ele>573.0</ele><time>2026-04-26T08:04:58Z</time></trkpt><trkpt lat="38.054461672593455" lon="13.33237820077128"><ele>576.0</ele><time>2026-04-26T08:04:59Z</time></trkpt><trkpt lat="38.05456400418377" lon="13.332374035043381"><ele>579.0</ele><time>2026-04-26T08:05:00Z</time></trkpt><trkpt lat="38.05464748792182" lon="13.332371993224996"><ele>582.0</ele><time>2026-04-26T08:05:01Z</time></trkpt><trkpt lat="38.054759968482664" lon="13.33236548040488"><ele>582.0</ele><time>2026-04-26T08:05:02Z</time></trkpt><trkpt lat="38.05488988203423" lon="13.332351723899016"><ele>582.0</ele><time>2026-04-26T08:05:03Z</time></trkpt><trkpt lat="38.05500652994331" lon="13.332356565227666"><ele>582.0</ele><time>2026-04-26T08:05:04Z</time></trkpt><trkpt lat="38.055124868113104" lon="13.332362145437884"><ele>582.0</ele><time>2026-04-26T08:05:05Z</time></trkpt><trkpt lat="38.05524418892502" lon="13.33237475890492"><ele>587.0</ele><time>2026-04-26T08:05:06Z</time></trkpt><trkpt lat="38.05536319843294" lon="13.332388842292929"><ele>592.0</ele><time>2026-04-26T08:05:07Z</time></trkpt><trkpt lat="38.05548393451024" lon="13.33239772968006"><ele>597.0</ele><time>2026-04-26T08:05:08Z</time></trkpt><trkpt lat="38.055615398620304" lon="13.332401041817675"><ele>602.0</ele><time>2026-04-26T08:05:09Z</time></trkpt><trkpt lat="38.05573515300515" lon="13.332403530559816"><ele>603.0</ele><time>2026-04-26T08:05:10Z</time></trkpt><trkpt lat="38.05585950869889" lon="13.332390371634919"><ele>604.0</ele><time>2026-04-26T08:05:11Z</time></trkpt><trkpt lat="38.05596862511395" lon="13.332377066547965"><ele>605.0</ele><time>2026-04-26T08:05:12Z</time></trkpt><trkpt lat="38.05607879210021" lon="13.33237018019729"><ele>606.0</ele><time>2026-04-26T08:05:13Z</time></trkpt><trkpt lat="38.05619502402238" lon="13.332373171628666"><ele>606.0</ele><time>2026-04-26T08:05:14Z</time></trkpt><trkpt lat="38.05630808624286" lon="13.332382538594947"><ele>606.0</ele><time>2026-04-26T08:05:15Z</time></trkpt><trkpt lat="38.05643222301427" lon="13.332379172190507"><ele>606.0</ele><time>2026-04-26T08:05:16Z</time></trkpt><trkpt lat="38.05655308755887" lon="13.332367123567561"><ele>606.0</ele><time>2026-04-26T08:05:17Z</time></trkpt><trkpt lat="38.05668359765979" lon="13.332359342973877"><ele>606.25</ele><time>2026-04-26T08:05:18Z</time></trkpt><trkpt lat="38.056817384962194" lon="13.332373078185045"><ele>606.5</ele><time>2026-04-26T08:05:19Z</time></trkpt><trkpt lat="38.05696059346944" lon="13.33240025011388"><ele>606.75</ele><time>2026-04-26T08:05:20Z</time></trkpt><trkpt lat="38.057092467953034" lon="13.332417993910084"><ele>607.0</ele><time>2026-04-26T08:05:21Z</time></trkpt><trkpt lat="38.057218889823986" lon="13.33243948751107"><ele>607.0</ele><time>2026-04-26T08:05:22Z</time></trkpt><trkpt lat="38.057341711063486" lon="13.332482706694718"><ele>607.0</ele><time>2026-04-26T08:05:23Z</time></trkpt><trkpt lat="38.057440054581186" lon="13.33254871613746"><ele>607.0</ele><time>2026-04-26T08:05:24Z</time></trkpt><trkpt lat="38.05753008234851" lon="13.332633259576902"><ele>607.0</ele><time>2026-04-26T08:05:25Z</time></trkpt><trkpt lat="38.05758811588173" lon="13.332685827173648"><ele>607.0</ele><time>2026-04-26T08:05:26Z</time></trkpt><trkpt lat="38.05763032888636" lon="13.332814842187709"><ele>607.0</ele><time>2026-04-26T08:05:28Z</time></trkpt><trkpt lat="38.057643182433374" lon="13.332912381132047"><ele>607.0</ele><time>2026-04-26T08:05:29Z</time></trkpt><trkpt lat="38.057672948128136" lon="13.332996406682835"><ele>607.0</ele><time>2026-04-26T08:05:30Z</time></trkpt><trkpt lat="38.057772489042975" lon="13.333084504763065"><ele>607.0</ele><time>2026-04-26T08:05:32.001Z</time></trkpt><trkpt lat="38.057836883399425" lon="13.333113818535201"><ele>607.0</ele><time>2026-04-26T08:05:33.001Z</time></trkpt><trkpt lat="38.05789918253946" lon="13.333245186644723"><ele>607.0</ele><time>2026-04-26T08:05:35.001Z</time></trkpt><trkpt lat="38.05791362263948" lon="13.333332463608588"><ele>607.0</ele><time>2026-04-26T08:05:36.001Z</time></trkpt><trkpt lat="38.057921225461776" lon="13.333442017953578"><ele>607.0</ele><time>2026-04-26T08:05:37.001Z</time></trkpt><trkpt lat="38.05795097509695" lon="13.333532000572292"><ele>607.0</ele><time>2026-04-26T08:05:38.001Z</time></trkpt><trkpt lat="38.05799853676919" lon="13.33362023979296"><ele>607.0</ele><time>2026-04-26T08:05:39.001Z</time></trkpt><trkpt lat="38.058111702716026" lon="13.333645980154223"><ele>607.0</ele><time>2026-04-26T08:05:41.001Z</time></trkpt><trkpt lat="38.05818031390783" lon="13.333662088909337"><ele>607.0</ele><time>2026-04-26T08:05:42.001Z</time></trkpt><trkpt lat="38.058277275268736" lon="13.333726815037808"><ele>607.0</ele><time>2026-04-26T08:05:44.001Z</time></trkpt><trkpt lat="38.05834534316622" lon="13.33377927171408"><ele>607.0</ele><time>2026-04-26T08:05:46.001Z</time></trkpt><trkpt lat="38.058344726727135" lon="13.333877151239474"><ele>607.0</ele><time>2026-04-26T08:05:48.001Z</time></trkpt><trkpt lat="38.05828640178122" lon="13.333999385977044"><ele>607.0</ele><time>2026-04-26T08:05:50.001Z</time></trkpt><trkpt lat="38.05824751184202" lon="13.334075881510376"><ele>609.1666666666667</ele><time>2026-04-26T08:05:51.001Z</time></trkpt><trkpt lat="38.05821937451509" lon="13.334149601114271"><ele>611.3333333333334</ele><time>2026-04-26T08:05:52.001Z</time></trkpt><trkpt lat="38.058204460239104" lon="13.334234557996853"><ele>613.5</ele><time>2026-04-26T08:05:53.001Z</time></trkpt><trkpt lat="38.058222659879135" lon="13.334397659572392"><ele>615.6666666666666</ele><time>2026-04-26T08:05:55.001Z</time></trkpt><trkpt lat="38.058226127134745" lon="13.334483969724827"><ele>617.8333333333333</ele><time>2026-04-26T08:05:56.001Z</time></trkpt><trkpt lat="38.05820623355381" lon="13.334594690725407"><ele>620.0</ele><time>2026-04-26T08:05:57.001Z</time></trkpt><trkpt lat="38.05818144552792" lon="13.334685233577025"><ele>621.6666666666666</ele><time>2026-04-26T08:05:58.001Z</time></trkpt><trkpt lat="38.05815426501887" lon="13.334781361145856"><ele>623.3333333333333</ele><time>2026-04-26T08:05:59.001Z</time></trkpt><trkpt lat="38.05814282189929" lon="13.33487688626479"><ele>625.0</ele><time>2026-04-26T08:06:00.001Z</time></trkpt><trkpt lat="38.05813552550519" lon="13.334980710396623"><ele>626.6666666666666</ele><time>2026-04-26T08:06:01.001Z</time></trkpt><trkpt lat="38.05812164172722" lon="13.3351027801357"><ele>628.3333333333334</ele><time>2026-04-26T08:06:02.001Z</time></trkpt><trkpt lat="38.058094514684065" lon="13.33521951222148"><ele>630.0</ele><time>2026-04-26T08:06:03.001Z</time></trkpt><trkpt lat="38.05806500630131" lon="13.335317396585397"><ele>630.0</ele><time>2026-04-26T08:06:04.002Z</time></trkpt><trkpt lat="38.05803631507433" lon="13.33541020309618"><ele>630.0</ele><time>2026-04-26T08:06:05.002Z</time></trkpt><trkpt lat="38.05799731858942" lon="13.33550878347009"><ele>630.0</ele><time>2026-04-26T08:06:06.002Z</time></trkpt><trkpt lat="38.05796344424439" lon="13.335590927703446"><ele>630.0</ele><time>2026-04-26T08:06:07.002Z</time></trkpt><trkpt lat="38.05792708072847" lon="13.335690483941319"><ele>630.0</ele><time>2026-04-26T08:06:08.002Z</time></trkpt><trkpt lat="38.05790765610381" lon="13.335805210521734"><ele>630.0</ele><time>2026-04-26T08:06:09.002Z</time></trkpt><trkpt lat="38.05788510613776" lon="13.335912532989793"><ele>630.4</ele><time>2026-04-26T08:06:10.002Z</time></trkpt><trkpt lat="38.05785783731872" lon="13.336027950673651"><ele>630.8</ele><time>2026-04-26T08:06:11.002Z</time></trkpt><trkpt lat="38.05783618670647" lon="13.336137150617319"><ele>631.2</ele><time>2026-04-26T08:06:12.002Z</time></trkpt><trkpt lat="38.05780225530212" lon="13.336276273519577"><ele>631.6</ele><time>2026-04-26T08:06:13.002Z</time></trkpt><trkpt lat="38.05777318942352" lon="13.336378503707602"><ele>632.0</ele><time>2026-04-26T08:06:14.002Z</time></trkpt><trkpt lat="38.057728262762495" lon="13.336506309203958"><ele>630.6666666666666</ele><time>2026-04-26T08:06:15.002Z</time></trkpt><trkpt lat="38.05767941093875" lon="13.336617358739629"><ele>629.3333333333333</ele><time>2026-04-26T08:06:16.002Z</time></trkpt><trkpt lat="38.057648951376216" lon="13.336707276297629"><ele>628.0</ele><time>2026-04-26T08:06:17.002Z</time></trkpt><trkpt lat="38.05761877731047" lon="13.336791156607744"><ele>626.6666666666666</ele><time>2026-04-26T08:06:18.002Z</time></trkpt><trkpt lat="38.05759092087358" lon="13.336884347162735"><ele>625.3333333333334</ele><time>2026-04-26T08:06:19.002Z</time></trkpt><trkpt lat="38.057566629803155" lon="13.336969833635447"><ele>624.0</ele><time>2026-04-26T08:06:20.002Z</time></trkpt><trkpt lat="38.057537264489746" lon="13.33712375928568"><ele>623.4</ele><time>2026-04-26T08:06:22.002Z</time></trkpt><trkpt lat="38.057521512134564" lon="13.337231482218149"><ele>622.8</ele><time>2026-04-26T08:06:23.002Z</time></trkpt><trkpt lat="38.057507641397805" lon="13.337326737006618"><ele>622.2</ele><time>2026-04-26T08:06:24.002Z</time></trkpt><trkpt lat="38.0574867962556" lon="13.337478416631258"><ele>621.6</ele><time>2026-04-26T08:06:26.002Z</time></trkpt><trkpt lat="38.057477403950884" lon="13.33756066070714"><ele>621.0</ele><time>2026-04-26T08:06:27.002Z</time></trkpt><trkpt lat="38.057461363658774" lon="13.337714828420836"><ele>621.0</ele><time>2026-04-26T08:06:29.002Z</time></trkpt><trkpt lat="38.05746220752321" lon="13.337804048385532"><ele>621.0</ele><time>2026-04-26T08:06:30.002Z</time></trkpt><trkpt lat="38.05745175421709" lon="13.337904516093978"><ele>621.0</ele><time>2026-04-26T08:06:31.002Z</time></trkpt><trkpt lat="38.05744716169268" lon="13.337996535263233"><ele>621.0</ele><time>2026-04-26T08:06:32.002Z</time></trkpt><trkpt lat="38.057448164605894" lon="13.338097291068083"><ele>621.0</ele><time>2026-04-26T08:06:33.002Z</time></trkpt><trkpt lat="38.05744947436958" lon="13.338200795813902"><ele>621.0</ele><time>2026-04-26T08:06:34.002Z</time></trkpt><trkpt lat="38.05745240828683" lon="13.338311944610986"><ele>625.2857142857142</ele><time>2026-04-26T08:06:35.002Z</time></trkpt><trkpt lat="38.05744492915606" lon="13.338403539737287"><ele>629.5714285714286</ele><time>2026-04-26T08:06:36.002Z</time></trkpt><trkpt lat="38.05744359238453" lon="13.338500291027097"><ele>633.8571428571429</ele><time>2026-04-26T08:06:37.003Z</time></trkpt><trkpt lat="38.05743257499281" lon="13.338583883556012"><ele>638.1428571428571</ele><time>2026-04-26T08:06:38.003Z</time></trkpt><trkpt lat="38.057413910081884" lon="13.338679408442466"><ele>642.4285714285714</ele><time>2026-04-26T08:06:39.003Z</time></trkpt><trkpt lat="38.05739217503968" lon="13.338763657354466"><ele>646.7142857142857</ele><time>2026-04-26T08:06:40.003Z</time></trkpt><trkpt lat="38.0573597607811" lon="13.338835997038359"><ele>651.0</ele><time>2026-04-26T08:06:41.003Z</time></trkpt><trkpt lat="38.057336539744725" lon="13.33893825059059"><ele>651.0</ele><time>2026-04-26T08:06:42.003Z</time></trkpt><trkpt lat="38.05731932249979" lon="13.339030163188761"><ele>651.0</ele><time>2026-04-26T08:06:43.003Z</time></trkpt><trkpt lat="38.057309864600214" lon="13.339135955617513"><ele>651.0</ele><time>2026-04-26T08:06:44.003Z</time></trkpt><trkpt lat="38.057299657953315" lon="13.339235805533777"><ele>651.0</ele><time>2026-04-26T08:06:45.003Z</time></trkpt><trkpt lat="38.057285837640976" lon="13.339326275452784"><ele>651.0</ele><time>2026-04-26T08:06:46.003Z</time></trkpt><trkpt lat="38.05727166446125" lon="13.339423045915996"><ele>651.0</ele><time>2026-04-26T08:06:47.003Z</time></trkpt><trkpt lat="38.05725635236014" lon="13.339501853939238"><ele>651.0</ele><time>2026-04-26T08:06:48.003Z</time></trkpt><trkpt lat="38.05721325753638" lon="13.339574924530144"><ele>651.0</ele><time>2026-04-26T08:06:50.003Z</time></trkpt><trkpt lat="38.05715283489858" lon="13.33965598911328"><ele>651.0</ele><time>2026-04-26T08:06:53.003Z</time></trkpt><trkpt lat="38.05710779731571" lon="13.33971403608448"><ele>651.0</ele><time>2026-04-26T08:06:54.003Z</time></trkpt><trkpt lat="38.0570533689427" lon="13.339760331087222"><ele>651.0</ele><time>2026-04-26T08:06:55.003Z</time></trkpt><trkpt lat="38.05698891979333" lon="13.33980564467274"><ele>651.0</ele><time>2026-04-26T08:06:56.003Z</time></trkpt><trkpt lat="38.05691992799724" lon="13.339835708490021"><ele>651.0</ele><time>2026-04-26T08:06:57.003Z</time></trkpt><trkpt lat="38.05683864949775" lon="13.3398708284558"><ele>653.0</ele><time>2026-04-26T08:06:58.003Z</time></trkpt><trkpt lat="38.05675416795823" lon="13.339913434290045"><ele>655.0</ele><time>2026-04-26T08:06:59.003Z</time></trkpt><trkpt lat="38.056680959827396" lon="13.339959016354413"><ele>657.0</ele><time>2026-04-26T08:07:00.003Z</time></trkpt><trkpt lat="38.056592460378454" lon="13.340003435724597"><ele>659.0</ele><time>2026-04-26T08:07:01.003Z</time></trkpt><trkpt lat="38.056482008473154" lon="13.340068171035671"><ele>661.0</ele><time>2026-04-26T08:07:02.003Z</time></trkpt><trkpt lat="38.0563692516642" lon="13.340135023852561"><ele>661.0</ele><time>2026-04-26T08:07:03.003Z</time></trkpt><trkpt lat="38.05626366467181" lon="13.34020506162142"><ele>661.0</ele><time>2026-04-26T08:07:04Z</time></trkpt><trkpt lat="38.05616053139118" lon="13.340276796998792"><ele>661.0</ele><time>2026-04-26T08:07:05Z</time></trkpt><trkpt lat="38.05606740642019" lon="13.340340626902169"><ele>661.0</ele><time>2026-04-26T08:07:06Z</time></trkpt><trkpt lat="38.05597905441196" lon="13.34039354631541"><ele>661.0</ele><time>2026-04-26T08:07:07Z</time></trkpt><trkpt lat="38.055887010712276" lon="13.34047123525089"><ele>663.75</ele><time>2026-04-26T08:07:08Z</time></trkpt><trkpt lat="38.05579840295654" lon="13.340565563015275"><ele>666.5</ele><time>2026-04-26T08:07:09Z</time></trkpt><trkpt lat="38.055711829560686" lon="13.340681494201817"><ele>669.25</ele><time>2026-04-26T08:07:10Z</time></trkpt><trkpt lat="38.05563279291287" lon="13.340802326168724"><ele>672.0</ele><time>2026-04-26T08:07:11Z</time></trkpt><trkpt lat="38.05555941664609" lon="13.34092626238889"><ele>672.0</ele><time>2026-04-26T08:07:12Z</time></trkpt><trkpt lat="38.05547844386699" lon="13.341052332297247"><ele>672.0</ele><time>2026-04-26T08:07:13Z</time></trkpt><trkpt lat="38.05540618273266" lon="13.34117220947585"><ele>672.0</ele><time>2026-04-26T08:07:14Z</time></trkpt><trkpt lat="38.05534509318022" lon="13.341271074587693"><ele>672.0</ele><time>2026-04-26T08:07:15Z</time></trkpt><trkpt lat="38.055289566499745" lon="13.341359825168245"><ele>672.0</ele><time>2026-04-26T08:07:16Z</time></trkpt><trkpt lat="38.055239195288365" lon="13.341438453819556"><ele>671.0</ele><time>2026-04-26T08:07:17Z</time></trkpt><trkpt lat="38.05519627589546" lon="13.341508018498867"><ele>670.0</ele><time>2026-04-26T08:07:19Z</time></trkpt><trkpt lat="38.05514594321374" lon="13.341570661805642"><ele>669.0</ele><time>2026-04-26T08:08:30.002Z</time></trkpt><trkpt lat="38.05508865587964" lon="13.341605000790265"><ele>668.0</ele><time>2026-04-26T08:08:33.002Z</time></trkpt><trkpt lat="38.0550230895121" lon="13.341567166154615"><ele>667.0</ele><time>2026-04-26T08:08:35.002Z</time></trkpt><trkpt lat="38.05494119722267" lon="13.341514385408443"><ele>666.0</ele><time>2026-04-26T08:08:38.002Z</time></trkpt><trkpt lat="38.0548700854061" lon="13.341472075629262"><ele>665.0</ele><time>2026-04-26T08:08:41.003Z</time></trkpt><trkpt lat="38.054812577058414" lon="13.341429286960684"><ele>667.1428571428571</ele><time>2026-04-26T08:08:43.003Z</time></trkpt><trkpt lat="38.05475773623753" lon="13.341363403769735"><ele>669.2857142857142</ele><time>2026-04-26T08:08:47.003Z</time></trkpt><trkpt lat="38.05469448829384" lon="13.341347799553962"><ele>671.4285714285714</ele><time>2026-04-26T08:08:55.003Z</time></trkpt><trkpt lat="38.05463714955843" lon="13.341307913143343"><ele>673.5714285714286</ele><time>2026-04-26T08:09:30Z</time></trkpt><trkpt lat="38.05457149685895" lon="13.341275125518688"><ele>675.7142857142857</ele><time>2026-04-26T08:09:42.001Z</time></trkpt><trkpt lat="38.054502175197776" lon="13.34124416775564"><ele>677.8571428571429</ele><time>2026-04-26T08:10:08.001Z</time></trkpt><trkpt lat="38.05445914107226" lon="13.341163438104159"><ele>680.0</ele><time>2026-04-26T08:28:49.001Z</time></trkpt><trkpt lat="38.05440117443446" lon="13.341126241737621"><ele>680.0</ele><time>2026-04-26T08:28:57.001Z</time></trkpt><trkpt lat="38.05433198860385" lon="13.341100077488344"><ele>680.0</ele><time>2026-04-26T08:33:05.001Z</time></trkpt><trkpt lat="38.05438650626814" lon="13.34114772816976"><ele>680.0</ele><time>2026-04-26T08:36:55Z</time></trkpt><trkpt lat="38.05446287872806" lon="13.341159661716555"><ele>680.0</ele><time>2026-04-26T08:37:30.001Z</time></trkpt><trkpt lat="38.054519884830036" lon="13.341194612788957"><ele>680.0</ele><time>2026-04-26T08:37:42.002Z</time></trkpt><trkpt lat="38.05461889500593" lon="13.341261305927398"><ele>680.0</ele><time>2026-04-26T08:37:57.002Z</time></trkpt><trkpt lat="38.054665209692864" lon="13.341323838377072"><ele>680.0</ele><time>2026-04-26T08:38:02.002Z</time></trkpt><trkpt lat="38.054732390660575" lon="13.341354279333894"><ele>680.0</ele><time>2026-04-26T08:38:07.003Z</time></trkpt><trkpt lat="38.05479441435498" lon="13.341378953743469"><ele>680.0</ele><time>2026-04-26T08:38:10.003Z</time></trkpt><trkpt lat="38.05485971183553" lon="13.341464562378965"><ele>680.0</ele><time>2026-04-26T08:38:14.003Z</time></trkpt><trkpt lat="38.05493963805285" lon="13.341506766064537"><ele>680.0</ele><time>2026-04-26T08:38:17.003Z</time></trkpt><trkpt lat="38.054995493022844" lon="13.34154682650744"><ele>680.0</ele><time>2026-04-26T08:38:19.003Z</time></trkpt><trkpt lat="38.05506752381451" lon="13.341574342409888"><ele>680.1666666666666</ele><time>2026-04-26T08:38:21.003Z</time></trkpt><trkpt lat="38.055131065912924" lon="13.341600025774683"><ele>680.3333333333333</ele><time>2026-04-26T08:38:23.003Z</time></trkpt><trkpt lat="38.05514064171818" lon="13.3416839197177"><ele>680.5</ele><time>2026-04-26T08:43:14.001Z</time></trkpt><trkpt lat="38.05517118993439" lon="13.341768230679993"><ele>680.6666666666666</ele><time>2026-04-26T08:43:16.001Z</time></trkpt><trkpt lat="38.05525397051022" lon="13.341821756194875"><ele>680.8333333333334</ele><time>2026-04-26T08:43:18.001Z</time></trkpt><trkpt lat="38.05532009835528" lon="13.341816617904254"><ele>681.0</ele><time>2026-04-26T08:43:21.001Z</time></trkpt><trkpt lat="38.05540087785652" lon="13.341853730617121"><ele>681.0000000000001</ele><time>2026-04-26T08:43:26.001Z</time></trkpt><trkpt lat="38.05545292748459" lon="13.341917782365995"><ele>681.0</ele><time>2026-04-26T08:43:28.001Z</time></trkpt><trkpt lat="38.05548929319312" lon="13.341994483173329"><ele>681.0</ele><time>2026-04-26T08:43:35.001Z</time></trkpt><trkpt lat="38.05555385561649" lon="13.342041379193928"><ele>681.0</ele><time>2026-04-26T08:43:40.001Z</time></trkpt><trkpt lat="38.05560715786828" lon="13.342095759897035"><ele>681.0</ele><time>2026-04-26T08:43:43.001Z</time></trkpt><trkpt lat="38.05567409147009" lon="13.342151754596724"><ele>681.0000000000001</ele><time>2026-04-26T08:43:47.001Z</time></trkpt><trkpt lat="38.055740962357035" lon="13.342203360157338"><ele>681.0</ele><time>2026-04-26T08:44:08.002Z</time></trkpt><trkpt lat="38.05578806401945" lon="13.342268849899341"><ele>681.0000000000001</ele><time>2026-04-26T08:44:22.002Z</time></trkpt><trkpt lat="38.05584217947619" lon="13.342310143243521"><ele>681.0</ele><time>2026-04-26T08:45:38.001Z</time></trkpt><trkpt lat="38.05578380905776" lon="13.342274003491609"><ele>681.0</ele><time>2026-04-26T08:45:58.001Z</time></trkpt><trkpt lat="38.055746192245344" lon="13.3422047903216"><ele>681.0</ele><time>2026-04-26T08:46:02.001Z</time></trkpt><trkpt lat="38.05568435290665" lon="13.342164846081442"><ele>681.0</ele><time>2026-04-26T08:46:06.002Z</time></trkpt><trkpt lat="38.05562404816018" lon="13.342117132155783"><ele>681.0000000000001</ele><time>2026-04-26T08:46:10.002Z</time></trkpt><trkpt lat="38.055556229945374" lon="13.342046813694791"><ele>681.0</ele><time>2026-04-26T08:46:15.002Z</time></trkpt><trkpt lat="38.05548163038326" lon="13.341986047369934"><ele>681.0000000000001</ele><time>2026-04-26T08:46:19.002Z</time></trkpt><trkpt lat="38.05545583772426" lon="13.341900446897936"><ele>681.0</ele><time>2026-04-26T08:46:22.002Z</time></trkpt><trkpt lat="38.05539299494048" lon="13.341831874849865"><ele>681.0</ele><time>2026-04-26T08:46:25.002Z</time></trkpt><trkpt lat="38.05533545931142" lon="13.34179902396352"><ele>681.0</ele><time>2026-04-26T08:46:27.002Z</time></trkpt><trkpt lat="38.055281605632494" lon="13.341738107047934"><ele>681.0</ele><time>2026-04-26T08:46:30.002Z</time></trkpt><trkpt lat="38.05522534119622" lon="13.341673100013779"><ele>681.0000000000001</ele><time>2026-04-26T08:46:36.002Z</time></trkpt><trkpt lat="38.0551682587105" lon="13.341627515311439"><ele>681.0</ele><time>2026-04-26T08:47:07Z</time></trkpt><trkpt lat="38.05518090807874" lon="13.341531321615568"><ele>681.0</ele><time>2026-04-26T08:47:52.001Z</time></trkpt><trkpt lat="38.05525999751056" lon="13.341459323177876"><ele>681.0</ele><time>2026-04-26T08:47:54.001Z</time></trkpt><trkpt lat="38.05530019106359" lon="13.341394624650306"><ele>681.0</ele><time>2026-04-26T08:47:55.001Z</time></trkpt><trkpt lat="38.055342531688645" lon="13.341315357964127"><ele>681.0</ele><time>2026-04-26T08:47:56.001Z</time></trkpt><trkpt lat="38.0554013705874" lon="13.34122367432369"><ele>681.0</ele><time>2026-04-26T08:47:57.001Z</time></trkpt><trkpt lat="38.05547302968311" lon="13.341121598062383"><ele>681.0</ele><time>2026-04-26T08:47:58.001Z</time></trkpt><trkpt lat="38.05552736840796" lon="13.341038522276582"><ele>681.3333333333334</ele><time>2026-04-26T08:47:59.001Z</time></trkpt><trkpt lat="38.05556956977415" lon="13.34096836505229"><ele>681.6666666666666</ele><time>2026-04-26T08:48:00.001Z</time></trkpt><trkpt lat="38.05562682715837" lon="13.3408777526755"><ele>682.0</ele><time>2026-04-26T08:48:02.001Z</time></trkpt><trkpt lat="38.05567624082188" lon="13.340788242125448"><ele>682.3333333333333</ele><time>2026-04-26T08:48:04.001Z</time></trkpt><trkpt lat="38.055747365856426" lon="13.340689759793992"><ele>682.6666666666666</ele><time>2026-04-26T08:48:06.001Z</time></trkpt><trkpt lat="38.05578662894972" lon="13.340627172603831"><ele>683.0</ele><time>2026-04-26T08:48:07.001Z</time></trkpt><trkpt lat="38.05584413557765" lon="13.340552968833215"><ele>679.3333333333333</ele><time>2026-04-26T08:48:08.001Z</time></trkpt><trkpt lat="38.05590598149611" lon="13.340492414012715"><ele>675.6666666666666</ele><time>2026-04-26T08:48:09.001Z</time></trkpt><trkpt lat="38.05596420670157" lon="13.340439251203263"><ele>672.0</ele><time>2026-04-26T08:48:10.001Z</time></trkpt><trkpt lat="38.0560406420481" lon="13.340377288212455"><ele>668.3333333333334</ele><time>2026-04-26T08:48:11.001Z</time></trkpt><trkpt lat="38.056121608955536" lon="13.340332657196766"><ele>664.6666666666667</ele><time>2026-04-26T08:48:12.001Z</time></trkpt><trkpt lat="38.05619303152246" lon="13.340292006588616"><ele>661.0</ele><time>2026-04-26T08:48:13.001Z</time></trkpt><trkpt lat="38.05627295698737" lon="13.340238969348592"><ele>661.0</ele><time>2026-04-26T08:48:14.001Z</time></trkpt><trkpt lat="38.05633098697778" lon="13.340192958696694"><ele>661.0</ele><time>2026-04-26T08:48:15.002Z</time></trkpt><trkpt lat="38.05640616091776" lon="13.340144950147948"><ele>661.0</ele><time>2026-04-26T08:48:16.002Z</time></trkpt><trkpt lat="38.05647925382982" lon="13.340095611768287"><ele>661.0</ele><time>2026-04-26T08:48:17.002Z</time></trkpt><trkpt lat="38.05656177908097" lon="13.340054271120447"><ele>661.0</ele><time>2026-04-26T08:48:18.002Z</time></trkpt><trkpt lat="38.05664444092138" lon="13.340009984832925"><ele>661.0</ele><time>2026-04-26T08:48:19.002Z</time></trkpt><trkpt lat="38.056723406820176" lon="13.339959040540833"><ele>661.8</ele><time>2026-04-26T08:48:20.002Z</time></trkpt><trkpt lat="38.05679386630891" lon="13.33991914220128"><ele>662.5999999999999</ele><time>2026-04-26T08:48:21.002Z</time></trkpt><trkpt lat="38.056863824872465" lon="13.339893311757226"><ele>663.4</ele><time>2026-04-26T08:48:22.002Z</time></trkpt><trkpt lat="38.05693981488675" lon="13.339865416768703"><ele>664.2</ele><time>2026-04-26T08:48:23.002Z</time></trkpt><trkpt lat="38.05705459821006" lon="13.339806913216457"><ele>665.0</ele><time>2026-04-26T08:48:25.002Z</time></trkpt><trkpt lat="38.05714382635692" lon="13.339705256023514"><ele>662.6666666666666</ele><time>2026-04-26T08:48:27.002Z</time></trkpt><trkpt lat="38.057175607819374" lon="13.339630818845386"><ele>660.3333333333333</ele><time>2026-04-26T08:48:28.002Z</time></trkpt><trkpt lat="38.057210480197256" lon="13.339533359980297"><ele>658.0</ele><time>2026-04-26T08:48:29.002Z</time></trkpt><trkpt lat="38.0572225028895" lon="13.33944475562723"><ele>655.6666666666666</ele><time>2026-04-26T08:48:30.002Z</time></trkpt><trkpt lat="38.057234055998194" lon="13.339328778984305"><ele>653.3333333333334</ele><time>2026-04-26T08:48:31.002Z</time></trkpt><trkpt lat="38.05723964995115" lon="13.339223956841385"><ele>651.0</ele><time>2026-04-26T08:48:32.002Z</time></trkpt><trkpt lat="38.05722283217834" lon="13.339137341115759"><ele>651.0</ele><time>2026-04-26T08:48:33.002Z</time></trkpt><trkpt lat="38.057128595041625" lon="13.339025028230466"><ele>651.0</ele><time>2026-04-26T08:48:35.002Z</time></trkpt><trkpt lat="38.05706102928289" lon="13.33900522414877"><ele>651.0</ele><time>2026-04-26T08:48:36.002Z</time></trkpt><trkpt lat="38.05698716771283" lon="13.339009430966303"><ele>651.0</ele><time>2026-04-26T08:48:37.002Z</time></trkpt><trkpt lat="38.056902919092494" lon="13.339033047747328"><ele>651.0</ele><time>2026-04-26T08:48:38.002Z</time></trkpt><trkpt lat="38.0568257128656" lon="13.339077628918323"><ele>651.0</ele><time>2026-04-26T08:48:39.002Z</time></trkpt><trkpt lat="38.056755387641935" lon="13.339114617838918"><ele>651.0</ele><time>2026-04-26T08:48:40.002Z</time></trkpt><trkpt lat="38.05667463136038" lon="13.339143337468425"><ele>651.0</ele><time>2026-04-26T08:48:41.002Z</time></trkpt><trkpt lat="38.056584558417356" lon="13.339173345210135"><ele>651.0</ele><time>2026-04-26T08:48:42.002Z</time></trkpt><trkpt lat="38.05650223401166" lon="13.339203201775298"><ele>651.0</ele><time>2026-04-26T08:48:43.002Z</time></trkpt><trkpt lat="38.05640146444865" lon="13.3392242167285"><ele>651.0</ele><time>2026-04-26T08:48:44.002Z</time></trkpt><trkpt lat="38.05631399815021" lon="13.339236095294527"><ele>648.5999999999999</ele><time>2026-04-26T08:48:45.002Z</time></trkpt><trkpt lat="38.056229909272815" lon="13.339235716917276"><ele>646.1999999999999</ele><time>2026-04-26T08:48:46.002Z</time></trkpt><trkpt lat="38.056104765072284" lon="13.339206875472236"><ele>643.8</ele><time>2026-04-26T08:48:48.002Z</time></trkpt><trkpt lat="38.05602062702559" lon="13.339206082353513"><ele>641.4</ele><time>2026-04-26T08:48:50.002Z</time></trkpt><trkpt lat="38.056010973437445" lon="13.339067638596028"><ele>639.0</ele><time>2026-04-26T08:48:53.003Z</time></trkpt><trkpt lat="38.056056279802405" lon="13.339001651077538"><ele>638.0</ele><time>2026-04-26T08:48:54.003Z</time></trkpt><trkpt lat="38.05607323954779" lon="13.338873460896957"><ele>637.0</ele><time>2026-04-26T08:48:56.003Z</time></trkpt><trkpt lat="38.056037919161746" lon="13.338782834096442"><ele>636.0</ele><time>2026-04-26T08:48:57.003Z</time></trkpt><trkpt lat="38.05598085482804" lon="13.338708517946495"><ele>635.0</ele><time>2026-04-26T08:48:58.003Z</time></trkpt><trkpt lat="38.05591945681546" lon="13.33863923144899"><ele>634.0</ele><time>2026-04-26T08:48:59.003Z</time></trkpt><trkpt lat="38.05587453785144" lon="13.338571469217186"><ele>633.0</ele><time>2026-04-26T08:49:00.003Z</time></trkpt><trkpt lat="38.05581744493671" lon="13.338473996999731"><ele>629.6666666666666</ele><time>2026-04-26T08:49:02.003Z</time></trkpt><trkpt lat="38.055723121402394" lon="13.338483214451637"><ele>626.3333333333334</ele><time>2026-04-26T08:49:03.999Z</time></trkpt><trkpt lat="38.05566113183901" lon="13.338538455608688"><ele>623.0</ele><time>2026-04-26T08:49:04.999Z</time></trkpt><trkpt lat="38.05560681572822" lon="13.33861208197978"><ele>619.6666666666667</ele><time>2026-04-26T08:49:05.999Z</time></trkpt><trkpt lat="38.055538871647784" lon="13.338680278817664"><ele>616.3333333333334</ele><time>2026-04-26T08:49:06.999Z</time></trkpt><trkpt lat="38.05546903371142" lon="13.338731425782207"><ele>613.0</ele><time>2026-04-26T08:49:07.999Z</time></trkpt><trkpt lat="38.05539565227789" lon="13.338768693655137"><ele>613.0</ele><time>2026-04-26T08:49:08.999Z</time></trkpt><trkpt lat="38.05531828154881" lon="13.338769261565538"><ele>613.0</ele><time>2026-04-26T08:49:09.999Z</time></trkpt><trkpt lat="38.055230424414916" lon="13.338744973493213"><ele>613.0</ele><time>2026-04-26T08:49:10.999Z</time></trkpt><trkpt lat="38.05513893283938" lon="13.33872579925324"><ele>613.0</ele><time>2026-04-26T08:49:11.999Z</time></trkpt><trkpt lat="38.055051337112054" lon="13.338703588108357"><ele>613.0</ele><time>2026-04-26T08:49:12.999Z</time></trkpt><trkpt lat="38.05497404691976" lon="13.338674142450968"><ele>613.0</ele><time>2026-04-26T08:49:13.999Z</time></trkpt><trkpt lat="38.05491085137106" lon="13.33863776301114"><ele>614.8333333333334</ele><time>2026-04-26T08:49:14.999Z</time></trkpt><trkpt lat="38.054853331083436" lon="13.338585173609443"><ele>616.6666666666667</ele><time>2026-04-26T08:49:15.999Z</time></trkpt><trkpt lat="38.054806574122686" lon="13.338512794328249"><ele>618.5</ele><time>2026-04-26T08:49:16.999Z</time></trkpt><trkpt lat="38.05476053224053" lon="13.338412738298905"><ele>620.3333333333334</ele><time>2026-04-26T08:49:17.999Z</time></trkpt><trkpt lat="38.054730245924276" lon="13.338317792158755"><ele>622.1666666666666</ele><time>2026-04-26T08:49:18.999Z</time></trkpt><trkpt lat="38.05470095603143" lon="13.338208279035472"><ele>624.0</ele><time>2026-04-26T08:49:19.999Z</time></trkpt><trkpt lat="38.05466846119945" lon="13.338098812279593"><ele>620.6</ele><time>2026-04-26T08:49:20.999Z</time></trkpt><trkpt lat="38.05463224728634" lon="13.337987707611305"><ele>617.2</ele><time>2026-04-26T08:49:21.999Z</time></trkpt><trkpt lat="38.054588441829054" lon="13.337883041030283"><ele>613.8000000000001</ele><time>2026-04-26T08:49:22.999Z</time></trkpt><trkpt lat="38.05454369933696" lon="13.337778316777623"><ele>610.4</ele><time>2026-04-26T08:49:23.999Z</time></trkpt><trkpt lat="38.054482656170194" lon="13.337663180519089"><ele>607.0</ele><time>2026-04-26T08:49:24.999Z</time></trkpt><trkpt lat="38.054411974565326" lon="13.337552006877589"><ele>607.0</ele><time>2026-04-26T08:49:26Z</time></trkpt><trkpt lat="38.05433922868797" lon="13.33746846339224"><ele>607.0</ele><time>2026-04-26T08:49:27Z</time></trkpt><trkpt lat="38.05427038398828" lon="13.33738106695854"><ele>607.0</ele><time>2026-04-26T08:49:28Z</time></trkpt><trkpt lat="38.054226891821415" lon="13.33728666919381"><ele>607.0</ele><time>2026-04-26T08:49:29Z</time></trkpt><trkpt lat="38.05420219054967" lon="13.33718454633798"><ele>607.0</ele><time>2026-04-26T08:49:30Z</time></trkpt><trkpt lat="38.054171138963326" lon="13.337071219014216"><ele>607.6</ele><time>2026-04-26T08:49:31Z</time></trkpt><trkpt lat="38.05413035497329" lon="13.336972094153024"><ele>608.2</ele><time>2026-04-26T08:49:32Z</time></trkpt><trkpt lat="38.054097162464856" lon="13.33687460341394"><ele>608.8</ele><time>2026-04-26T08:49:33Z</time></trkpt><trkpt lat="38.054062664619885" lon="13.336784559052687"><ele>609.4</ele><time>2026-04-26T08:49:34Z</time></trkpt><trkpt lat="38.05401619383695" lon="13.336677968085064"><ele>610.0</ele><time>2026-04-26T08:49:35Z</time></trkpt><trkpt lat="38.053953096243006" lon="13.3365683462057"><ele>610.0</ele><time>2026-04-26T08:49:36Z</time></trkpt><trkpt lat="38.05388675084007" lon="13.336460078935904"><ele>610.0</ele><time>2026-04-26T08:49:37Z</time></trkpt><trkpt lat="38.05381974198374" lon="13.336338479716254"><ele>610.0</ele><time>2026-04-26T08:49:38Z</time></trkpt><trkpt lat="38.05375265666385" lon="13.33621918469481"><ele>610.0</ele><time>2026-04-26T08:49:39Z</time></trkpt><trkpt lat="38.0536916550739" lon="13.336097897847916"><ele>604.5</ele><time>2026-04-26T08:49:40Z</time></trkpt><trkpt lat="38.05362905558011" lon="13.33597628609576"><ele>599.0</ele><time>2026-04-26T08:49:41Z</time></trkpt><trkpt lat="38.053567387450386" lon="13.335848711485555"><ele>593.5</ele><time>2026-04-26T08:49:42Z</time></trkpt><trkpt lat="38.0535111148164" lon="13.335723299813115"><ele>588.0</ele><time>2026-04-26T08:49:43Z</time></trkpt><trkpt lat="38.05345487314892" lon="13.335592740526035"><ele>585.6</ele><time>2026-04-26T08:49:44Z</time></trkpt><trkpt lat="38.05340889041563" lon="13.335465625129668"><ele>583.1999999999999</ele><time>2026-04-26T08:49:45Z</time></trkpt><trkpt lat="38.05337592339079" lon="13.335343006723685"><ele>580.8</ele><time>2026-04-26T08:49:46Z</time></trkpt><trkpt lat="38.05334257254336" lon="13.335217587992389"><ele>578.4</ele><time>2026-04-26T08:49:47Z</time></trkpt><trkpt lat="38.05333018502459" lon="13.33511305019752"><ele>576.0</ele><time>2026-04-26T08:49:48Z</time></trkpt><trkpt lat="38.05330459703155" lon="13.334996255461103"><ele>577.4</ele><time>2026-04-26T08:49:49Z</time></trkpt><trkpt lat="38.053277044913905" lon="13.334870496281283"><ele>578.8</ele><time>2026-04-26T08:49:50Z</time></trkpt><trkpt lat="38.05325199422901" lon="13.334756154675706"><ele>580.1999999999999</ele><time>2026-04-26T08:49:51.001Z</time></trkpt><trkpt lat="38.05322705797379" lon="13.334642335361163"><ele>581.6</ele><time>2026-04-26T08:49:52.001Z</time></trkpt><trkpt lat="38.05320340848638" lon="13.334534389394047"><ele>583.0</ele><time>2026-04-26T08:49:53.001Z</time></trkpt><trkpt lat="38.053165877215605" lon="13.334438534638362"><ele>583.0</ele><time>2026-04-26T08:49:54.001Z</time></trkpt><trkpt lat="38.053144337214796" lon="13.33432153483388"><ele>583.0</ele><time>2026-04-26T08:49:55.001Z</time></trkpt><trkpt lat="38.0531142947061" lon="13.33419474095505"><ele>583.0</ele><time>2026-04-26T08:49:56.001Z</time></trkpt><trkpt lat="38.053083677298794" lon="13.334066162410743"><ele>583.0</ele><time>2026-04-26T08:49:57.001Z</time></trkpt><trkpt lat="38.053058130357364" lon="13.333942245525732"><ele>583.0</ele><time>2026-04-26T08:49:58.001Z</time></trkpt><trkpt lat="38.05301655055479" lon="13.333832963571053"><ele>580.1999999999999</ele><time>2026-04-26T08:49:59.001Z</time></trkpt><trkpt lat="38.05297572919284" lon="13.333733072038338"><ele>577.4</ele><time>2026-04-26T08:50:00.001Z</time></trkpt><trkpt lat="38.05291534290648" lon="13.333627716390767"><ele>574.5999999999999</ele><time>2026-04-26T08:50:01.001Z</time></trkpt><trkpt lat="38.052850587215175" lon="13.33350672986223"><ele>571.8</ele><time>2026-04-26T08:50:02.001Z</time></trkpt><trkpt lat="38.05278537764683" lon="13.333385013397638"><ele>569.0</ele><time>2026-04-26T08:50:03.001Z</time></trkpt><trkpt lat="38.05271635120972" lon="13.333243452522245"><ele>569.0</ele><time>2026-04-26T08:50:04.001Z</time></trkpt><trkpt lat="38.05262981798328" lon="13.333122329772165"><ele>569.0</ele><time>2026-04-26T08:50:05.001Z</time></trkpt><trkpt lat="38.05254110259884" lon="13.33298594563644"><ele>569.0</ele><time>2026-04-26T08:50:06.001Z</time></trkpt><trkpt lat="38.05247000824133" lon="13.332856767701177"><ele>569.0</ele><time>2026-04-26T08:50:07.001Z</time></trkpt><trkpt lat="38.0523888017682" lon="13.332764582161495"><ele>567.6</ele><time>2026-04-26T08:50:08.001Z</time></trkpt><trkpt lat="38.05233137847524" lon="13.332665257639297"><ele>566.2</ele><time>2026-04-26T08:50:09.001Z</time></trkpt><trkpt lat="38.052276525315285" lon="13.33258189823203"><ele>564.8000000000001</ele><time>2026-04-26T08:50:10.001Z</time></trkpt><trkpt lat="38.05220671170671" lon="13.332490471890564"><ele>563.4</ele><time>2026-04-26T08:50:12.001Z</time></trkpt><trkpt lat="38.05217199762005" lon="13.332418990952023"><ele>562.0</ele><time>2026-04-26T08:50:14.001Z</time></trkpt><trkpt lat="38.05228247229589" lon="13.33229834656334"><ele>562.0</ele><time>2026-04-26T08:50:15.001Z</time></trkpt><trkpt lat="38.052302643488574" lon="13.33220459092311"><ele>562.0</ele><time>2026-04-26T08:50:16.001Z</time></trkpt><trkpt lat="38.05228841488519" lon="13.332102301965156"><ele>562.0</ele><time>2026-04-26T08:50:18.001Z</time></trkpt><trkpt lat="38.052043943323724" lon="13.332275759829262"><ele>562.0</ele><time>2026-04-26T08:50:19.001Z</time></trkpt><trkpt lat="38.05197274768109" lon="13.332194978244187"><ele>561.0</ele><time>2026-04-26T08:50:20.001Z</time></trkpt><trkpt lat="38.05189963444495" lon="13.33211687413491"><ele>560.0</ele><time>2026-04-26T08:50:21.001Z</time></trkpt><trkpt lat="38.05181293999963" lon="13.33203075325797"><ele>559.0</ele><time>2026-04-26T08:50:22.001Z</time></trkpt><trkpt lat="38.0517446989655" lon="13.331965095567568"><ele>558.0</ele><time>2026-04-26T08:50:23.002Z</time></trkpt><trkpt lat="38.05166921474929" lon="13.331898771936508"><ele>557.0</ele><time>2026-04-26T08:50:24.002Z</time></trkpt><trkpt lat="38.05159286356312" lon="13.331832617718623"><ele>554.8000000000001</ele><time>2026-04-26T08:50:25.002Z</time></trkpt><trkpt lat="38.05150446978919" lon="13.331764029846957"><ele>552.6</ele><time>2026-04-26T08:50:26.002Z</time></trkpt><trkpt lat="38.051408520154105" lon="13.331716441853317"><ele>550.4000000000001</ele><time>2026-04-26T08:50:27.002Z</time></trkpt><trkpt lat="38.051322964278924" lon="13.331649384209502"><ele>548.2</ele><time>2026-04-26T08:50:28.002Z</time></trkpt><trkpt lat="38.05122164391405" lon="13.331600754051427"><ele>546.0</ele><time>2026-04-26T08:50:29.002Z</time></trkpt><trkpt lat="38.05110787542278" lon="13.331554321778157"><ele>546.0</ele><time>2026-04-26T08:50:30.002Z</time></trkpt><trkpt lat="38.05099505089733" lon="13.331519268667764"><ele>546.0</ele><time>2026-04-26T08:50:31.002Z</time></trkpt><trkpt lat="38.0508858134756" lon="13.331489894766639"><ele>546.0</ele><time>2026-04-26T08:50:32.002Z</time></trkpt><trkpt lat="38.05077486260784" lon="13.33146385867677"><ele>546.0</ele><time>2026-04-26T08:50:33.002Z</time></trkpt><trkpt lat="38.050674523275696" lon="13.331415326502128"><ele>546.0</ele><time>2026-04-26T08:50:34.002Z</time></trkpt><trkpt lat="38.050581665037086" lon="13.331385507437377"><ele>543.6</ele><time>2026-04-26T08:50:35.002Z</time></trkpt><trkpt lat="38.050485268674976" lon="13.331364231674598"><ele>541.2</ele><time>2026-04-26T08:50:36.002Z</time></trkpt><trkpt lat="38.050395416833695" lon="13.331309551099302"><ele>538.8</ele><time>2026-04-26T08:50:37.002Z</time></trkpt><trkpt lat="38.05031129996155" lon="13.33128843009177"><ele>536.4</ele><time>2026-04-26T08:50:38.002Z</time></trkpt><trkpt lat="38.05021205816042" lon="13.331245094176893"><ele>534.0</ele><time>2026-04-26T08:50:39.002Z</time></trkpt><trkpt lat="38.05012067619349" lon="13.33120416102102"><ele>534.0</ele><time>2026-04-26T08:50:40.002Z</time></trkpt><trkpt lat="38.05003991771061" lon="13.331163731304644"><ele>534.0</ele><time>2026-04-26T08:50:41.002Z</time></trkpt><trkpt lat="38.04994963416454" lon="13.331131978460848"><ele>534.0</ele><time>2026-04-26T08:50:42.002Z</time></trkpt><trkpt lat="38.04989223096341" lon="13.331048881025955"><ele>534.0</ele><time>2026-04-26T08:50:43.002Z</time></trkpt><trkpt lat="38.049826496214656" lon="13.331035770975987"><ele>534.0</ele><time>2026-04-26T08:50:44.002Z</time></trkpt><trkpt lat="38.04975205051215" lon="13.331008391496209"><ele>534.0</ele><time>2026-04-26T08:50:45.002Z</time></trkpt><trkpt lat="38.04966979336935" lon="13.331020626367554"><ele>531.4</ele><time>2026-04-26T08:50:46.002Z</time></trkpt><trkpt lat="38.04957116337943" lon="13.331010223547851"><ele>528.8</ele><time>2026-04-26T08:50:47.002Z</time></trkpt><trkpt lat="38.049475956441846" lon="13.331013508598616"><ele>526.2</ele><time>2026-04-26T08:50:48.002Z</time></trkpt><trkpt lat="38.04939529079182" lon="13.331030401751725"><ele>523.6</ele><time>2026-04-26T08:50:49.002Z</time></trkpt><trkpt lat="38.04931730951058" lon="13.331097674702066"><ele>521.0</ele><time>2026-04-26T08:50:50.002Z</time></trkpt><trkpt lat="38.04922630823666" lon="13.331160031263563"><ele>519.25</ele><time>2026-04-26T08:50:51.002Z</time></trkpt><trkpt lat="38.04912166328555" lon="13.33123294370451"><ele>517.5</ele><time>2026-04-26T08:50:52.002Z</time></trkpt><trkpt lat="38.04900430830708" lon="13.331304874738453"><ele>515.75</ele><time>2026-04-26T08:50:53.002Z</time></trkpt><trkpt lat="38.048885989732064" lon="13.331338239743033"><ele>514.0</ele><time>2026-04-26T08:50:54.002Z</time></trkpt><trkpt lat="38.04877014068928" lon="13.331380049247857"><ele>512.8</ele><time>2026-04-26T08:50:55.002Z</time></trkpt><trkpt lat="38.04865581848168" lon="13.331425066118735"><ele>511.59999999999997</ele><time>2026-04-26T08:50:56.003Z</time></trkpt><trkpt lat="38.04854913943053" lon="13.331477509327259"><ele>510.4</ele><time>2026-04-26T08:50:57.003Z</time></trkpt><trkpt lat="38.04845334841322" lon="13.331518016302088"><ele>509.2</ele><time>2026-04-26T08:50:58.003Z</time></trkpt><trkpt lat="38.04836427866623" lon="13.331550858676623"><ele>508.0</ele><time>2026-04-26T08:50:59.003Z</time></trkpt><trkpt lat="38.048290349433216" lon="13.331573048497352"><ele>508.0</ele><time>2026-04-26T08:51:00.003Z</time></trkpt><trkpt lat="38.04816252340894" lon="13.331536578490777"><ele>507.99999999999994</ele><time>2026-04-26T08:51:02.003Z</time></trkpt><trkpt lat="38.048104294022544" lon="13.331473969834093"><ele>507.99999999999994</ele><time>2026-04-26T08:51:03.003Z</time></trkpt><trkpt lat="38.04804369530451" lon="13.331367561806456"><ele>508.0</ele><time>2026-04-26T08:51:04.003Z</time></trkpt><trkpt lat="38.04796311480139" lon="13.331287633121654"><ele>508.0</ele><time>2026-04-26T08:51:05.003Z</time></trkpt><trkpt lat="38.04787437935317" lon="13.331231347742115"><ele>506.0</ele><time>2026-04-26T08:51:06.003Z</time></trkpt><trkpt lat="38.047768639658614" lon="13.331186475387172"><ele>503.99999999999994</ele><time>2026-04-26T08:51:07.003Z</time></trkpt><trkpt lat="38.047660716823785" lon="13.331161046862436"><ele>501.99999999999994</ele><time>2026-04-26T08:51:08.003Z</time></trkpt><trkpt lat="38.047575466747524" lon="13.33114149573889"><ele>500.0</ele><time>2026-04-26T08:51:09.003Z</time></trkpt><trkpt lat="38.047497102757205" lon="13.33110767133179"><ele>498.0</ele><time>2026-04-26T08:51:09.999Z</time></trkpt><trkpt lat="38.04744075730519" lon="13.331069412509262"><ele>494.6666666666667</ele><time>2026-04-26T08:51:10.999Z</time></trkpt><trkpt lat="38.04736425759744" lon="13.331008022203012"><ele>491.33333333333337</ele><time>2026-04-26T08:51:11.999Z</time></trkpt><trkpt lat="38.047304808562416" lon="13.330941245065384"><ele>488.0</ele><time>2026-04-26T08:51:12.999Z</time></trkpt><trkpt lat="38.0472556537425" lon="13.330879634655922"><ele>484.6666666666667</ele><time>2026-04-26T08:51:13.999Z</time></trkpt><trkpt lat="38.04717170366605" lon="13.330862808007577"><ele>481.33333333333337</ele><time>2026-04-26T08:51:14.999Z</time></trkpt><trkpt lat="38.04706787598234" lon="13.330944968299063"><ele>478.0</ele><time>2026-04-26T08:51:15.999Z</time></trkpt><trkpt lat="38.04695633760806" lon="13.330954945130827"><ele>478.0</ele><time>2026-04-26T08:51:16.999Z</time></trkpt><trkpt lat="38.04686024509483" lon="13.330988079384106"><ele>477.99999999999994</ele><time>2026-04-26T08:51:18Z</time></trkpt><trkpt lat="38.04677791660428" lon="13.330997995316888"><ele>477.99999999999994</ele><time>2026-04-26T08:51:19Z</time></trkpt><trkpt lat="38.046678773720366" lon="13.330984925212839"><ele>478.0</ele><time>2026-04-26T08:51:20Z</time></trkpt><trkpt lat="38.04657007193945" lon="13.330984517387611"><ele>478.0</ele><time>2026-04-26T08:51:21Z</time></trkpt><trkpt lat="38.04647742963074" lon="13.330962867927596"><ele>474.1666666666667</ele><time>2026-04-26T08:51:22Z</time></trkpt><trkpt lat="38.04640320686889" lon="13.330949482983494"><ele>470.33333333333337</ele><time>2026-04-26T08:51:23Z</time></trkpt><trkpt lat="38.04633659398082" lon="13.330967668977332"><ele>466.5</ele><time>2026-04-26T08:51:24Z</time></trkpt><trkpt lat="38.04625567956827" lon="13.33100723130144"><ele>462.66666666666663</ele><time>2026-04-26T08:51:25Z</time></trkpt><trkpt lat="38.046176686670066" lon="13.331062954374469"><ele>458.8333333333333</ele><time>2026-04-26T08:51:26Z</time></trkpt><trkpt lat="38.04610187759326" lon="13.331091425118657"><ele>455.0</ele><time>2026-04-26T08:51:27Z</time></trkpt><trkpt lat="38.04600985392661" lon="13.331158858049255"><ele>455.0</ele><time>2026-04-26T08:51:28Z</time></trkpt><trkpt lat="38.04591829120307" lon="13.331198518569064"><ele>455.0</ele><time>2026-04-26T08:51:29Z</time></trkpt><trkpt lat="38.04581867375308" lon="13.331240839944313"><ele>455.0</ele><time>2026-04-26T08:51:30Z</time></trkpt><trkpt lat="38.045713796167526" lon="13.331266991458047"><ele>455.0</ele><time>2026-04-26T08:51:31Z</time></trkpt><trkpt lat="38.04561032598311" lon="13.3313119756068"><ele>455.0</ele><time>2026-04-26T08:51:32Z</time></trkpt><trkpt lat="38.04550378748246" lon="13.331358293731418"><ele>452.4</ele><time>2026-04-26T08:51:33Z</time></trkpt><trkpt lat="38.04539874889995" lon="13.33139613372268"><ele>449.8</ele><time>2026-04-26T08:51:34Z</time></trkpt><trkpt lat="38.04529937060627" lon="13.331445948599894"><ele>447.20000000000005</ele><time>2026-04-26T08:51:35Z</time></trkpt><trkpt lat="38.045214791554436" lon="13.33148334152596"><ele>444.6</ele><time>2026-04-26T08:51:36Z</time></trkpt><trkpt lat="38.04512388124285" lon="13.331532688421527"><ele>442.0</ele><time>2026-04-26T08:51:37Z</time></trkpt><trkpt lat="38.04503588917358" lon="13.331605421757029"><ele>441.33333333333337</ele><time>2026-04-26T08:51:38Z</time></trkpt><trkpt lat="38.04495219729154" lon="13.33167587877805"><ele>440.6666666666667</ele><time>2026-04-26T08:51:39Z</time></trkpt><trkpt lat="38.044883028521205" lon="13.331723485592724"><ele>440.0</ele><time>2026-04-26T08:51:40Z</time></trkpt><trkpt lat="38.04481450677069" lon="13.331775709729643"><ele>439.33333333333337</ele><time>2026-04-26T08:51:41Z</time></trkpt><trkpt lat="38.04474444603313" lon="13.331823392087705"><ele>438.6666666666667</ele><time>2026-04-26T08:51:42Z</time></trkpt><trkpt lat="38.044670677104484" lon="13.331881426267998"><ele>438.0</ele><time>2026-04-26T08:51:43Z</time></trkpt><trkpt lat="38.04459140781004" lon="13.331940877723483"><ele>438.0</ele><time>2026-04-26T08:51:44.001Z</time></trkpt><trkpt lat="38.044527443722224" lon="13.332003172527363"><ele>438.0</ele><time>2026-04-26T08:51:45.001Z</time></trkpt><trkpt lat="38.044450110581806" lon="13.332066188772114"><ele>438.0</ele><time>2026-04-26T08:51:46.001Z</time></trkpt><trkpt lat="38.04438291590271" lon="13.332106813575876"><ele>438.0</ele><time>2026-04-26T08:51:47.001Z</time></trkpt><trkpt lat="38.04432531704706" lon="13.332175546867138"><ele>438.0</ele><time>2026-04-26T08:51:49.001Z</time></trkpt><trkpt lat="38.04426448533339" lon="13.33219892426785"><ele>438.0</ele><time>2026-04-26T08:51:51.001Z</time></trkpt><trkpt lat="38.04418258028032" lon="13.332237007504238"><ele>440.4</ele><time>2026-04-26T08:52:18.002Z</time></trkpt><trkpt lat="38.04408261469009" lon="13.332295247491906"><ele>442.79999999999995</ele><time>2026-04-26T08:52:20.002Z</time></trkpt><trkpt lat="38.044029234432436" lon="13.332359132534526"><ele>445.2</ele><time>2026-04-26T08:52:21.002Z</time></trkpt><trkpt lat="38.04394557077689" lon="13.332435172755972"><ele>447.6</ele><time>2026-04-26T08:52:22.002Z</time></trkpt><trkpt lat="38.04385054749769" lon="13.332482657257614"><ele>450.0</ele><time>2026-04-26T08:52:23.002Z</time></trkpt><trkpt lat="38.04378079464331" lon="13.332577408288824"><ele>450.0</ele><time>2026-04-26T08:52:24.002Z</time></trkpt><trkpt lat="38.043703643196785" lon="13.332684917984825"><ele>450.0</ele><time>2026-04-26T08:52:25.002Z</time></trkpt><trkpt lat="38.04362664711158" lon="13.332808530927798"><ele>450.0</ele><time>2026-04-26T08:52:26.002Z</time></trkpt><trkpt lat="38.043526489725245" lon="13.332905678171183"><ele>450.0</ele><time>2026-04-26T08:52:27.002Z</time></trkpt><trkpt lat="38.043447643570936" lon="13.333010687280542"><ele>447.5</ele><time>2026-04-26T08:52:28.002Z</time></trkpt><trkpt lat="38.04339612902089" lon="13.333145340424261"><ele>445.0</ele><time>2026-04-26T08:52:29.002Z</time></trkpt><trkpt lat="38.04333441490999" lon="13.333274954461704"><ele>442.5</ele><time>2026-04-26T08:52:30.002Z</time></trkpt><trkpt lat="38.04328380582096" lon="13.333405349936672"><ele>440.0</ele><time>2026-04-26T08:52:31.002Z</time></trkpt><trkpt lat="38.043237354288905" lon="13.333537579835141"><ele>445.2</ele><time>2026-04-26T08:52:32.002Z</time></trkpt><trkpt lat="38.043212966503816" lon="13.333652786076343"><ele>450.4</ele><time>2026-04-26T08:52:33.002Z</time></trkpt><trkpt lat="38.04320101408853" lon="13.333770540748176"><ele>455.6</ele><time>2026-04-26T08:52:34.002Z</time></trkpt><trkpt lat="38.04320422040817" lon="13.333885766669686"><ele>460.8</ele><time>2026-04-26T08:52:35.002Z</time></trkpt><trkpt lat="38.043221487852364" lon="13.334005813685325"><ele>466.0</ele><time>2026-04-26T08:52:36.002Z</time></trkpt><trkpt lat="38.0432281051614" lon="13.334137434940248"><ele>466.0</ele><time>2026-04-26T08:52:37.002Z</time></trkpt><trkpt lat="38.043276018695266" lon="13.334271775828322"><ele>466.0</ele><time>2026-04-26T08:52:38.002Z</time></trkpt><trkpt lat="38.04331174649" lon="13.334416448320784"><ele>466.0</ele><time>2026-04-26T08:52:39.002Z</time></trkpt><trkpt lat="38.043348990933474" lon="13.334565134695412"><ele>466.0</ele><time>2026-04-26T08:52:40.002Z</time></trkpt><trkpt lat="38.04338122090679" lon="13.33471350175764"><ele>461.20000000000005</ele><time>2026-04-26T08:52:41.002Z</time></trkpt><trkpt lat="38.04339120034814" lon="13.334870660163974"><ele>456.40000000000003</ele><time>2026-04-26T08:52:42.002Z</time></trkpt><trkpt lat="38.04340947743092" lon="13.335000565608073"><ele>451.6</ele><time>2026-04-26T08:52:43.002Z</time></trkpt><trkpt lat="38.04342190337769" lon="13.335084565869193"><ele>446.8</ele><time>2026-04-26T08:52:44.002Z</time></trkpt><trkpt lat="38.04344850632864" lon="13.33516424649201"><ele>442.0</ele><time>2026-04-26T08:52:47.002Z</time></trkpt><trkpt lat="38.043469188761655" lon="13.33531881348067"><ele>442.0</ele><time>2026-04-26T08:52:49.003Z</time></trkpt><trkpt lat="38.04352255579343" lon="13.335425210311547"><ele>442.00000000000006</ele><time>2026-04-26T08:52:50.003Z</time></trkpt><trkpt lat="38.04356215593887" lon="13.335532593185842"><ele>442.00000000000006</ele><time>2026-04-26T08:52:51.003Z</time></trkpt><trkpt lat="38.043613241361456" lon="13.335655562983185"><ele>442.0</ele><time>2026-04-26T08:52:52.003Z</time></trkpt><trkpt lat="38.043660323159365" lon="13.335760433730647"><ele>442.0</ele><time>2026-04-26T08:52:53.003Z</time></trkpt><trkpt lat="38.04370949595983" lon="13.335863663957669"><ele>442.20000000000005</ele><time>2026-04-26T08:52:54.003Z</time></trkpt><trkpt lat="38.043720448537364" lon="13.335977844294876"><ele>442.40000000000003</ele><time>2026-04-26T08:52:55.003Z</time></trkpt><trkpt lat="38.04370429991244" lon="13.336107353230938"><ele>442.59999999999997</ele><time>2026-04-26T08:52:56.003Z</time></trkpt><trkpt lat="38.04371161551667" lon="13.336236592165315"><ele>442.79999999999995</ele><time>2026-04-26T08:52:57.003Z</time></trkpt><trkpt lat="38.04373423743499" lon="13.33636501717677"><ele>443.0</ele><time>2026-04-26T08:52:58.003Z</time></trkpt><trkpt lat="38.04375819956733" lon="13.33647791436228"><ele>445.4</ele><time>2026-04-26T08:52:59.003Z</time></trkpt><trkpt lat="38.04380134151866" lon="13.336593173689673"><ele>447.79999999999995</ele><time>2026-04-26T08:53:00.003Z</time></trkpt><trkpt lat="38.04385274885341" lon="13.336676095493475"><ele>450.2</ele><time>2026-04-26T08:53:01.003Z</time></trkpt><trkpt lat="38.04392781836209" lon="13.336755659776365"><ele>452.6</ele><time>2026-04-26T08:53:02.003Z</time></trkpt><trkpt lat="38.044004905994555" lon="13.336846005389853"><ele>455.0</ele><time>2026-04-26T08:53:03.003Z</time></trkpt><trkpt lat="38.04402068418041" lon="13.336959336690585"><ele>455.0</ele><time>2026-04-26T08:53:04.003Z</time></trkpt><trkpt lat="38.04404928619683" lon="13.337078315881946"><ele>455.0</ele><time>2026-04-26T08:53:05.003Z</time></trkpt><trkpt lat="38.04408440343898" lon="13.337210468395277"><ele>455.0</ele><time>2026-04-26T08:53:06.003Z</time></trkpt><trkpt lat="38.04408670962692" lon="13.337352480801112"><ele>455.0</ele><time>2026-04-26T08:53:07.003Z</time></trkpt><trkpt lat="38.044041219247596" lon="13.33747367319992"><ele>455.0</ele><time>2026-04-26T08:53:08.003Z</time></trkpt><trkpt lat="38.04400402520102" lon="13.337592809539393"><ele>456.8</ele><time>2026-04-26T08:53:09.003Z</time></trkpt><trkpt lat="38.04397558976363" lon="13.337712410566393"><ele>458.6</ele><time>2026-04-26T08:53:10.003Z</time></trkpt><trkpt lat="38.04398216487643" lon="13.337816133004608"><ele>460.4</ele><time>2026-04-26T08:53:11.003Z</time></trkpt><trkpt lat="38.04399606105336" lon="13.337934612252393"><ele>462.2</ele><time>2026-04-26T08:53:12.003Z</time></trkpt><trkpt lat="38.0440177761169" lon="13.338084631349258"><ele>464.0</ele><time>2026-04-26T08:53:13.003Z</time></trkpt><trkpt lat="38.04401283311864" lon="13.33824442567672"><ele>463.75</ele><time>2026-04-26T08:53:14.003Z</time></trkpt><trkpt lat="38.044017559998586" lon="13.338401560434708"><ele>463.5</ele><time>2026-04-26T08:53:15.003Z</time></trkpt><trkpt lat="38.04404405608971" lon="13.3385372182633"><ele>463.25</ele><time>2026-04-26T08:53:16Z</time></trkpt><trkpt lat="38.04408687335381" lon="13.338680268878756"><ele>463.0</ele><time>2026-04-26T08:53:17Z</time></trkpt><trkpt lat="38.044156192907174" lon="13.33881457847694"><ele>462.5</ele><time>2026-04-26T08:53:18Z</time></trkpt><trkpt lat="38.04420169222422" lon="13.338954939566667"><ele>462.0</ele><time>2026-04-26T08:53:19Z</time></trkpt><trkpt lat="38.044264448998206" lon="13.339079997666037"><ele>461.5</ele><time>2026-04-26T08:53:20Z</time></trkpt><trkpt lat="38.04433056246568" lon="13.339196720979691"><ele>461.0</ele><time>2026-04-26T08:53:21Z</time></trkpt><trkpt lat="38.04439329092164" lon="13.339311330159035"><ele>460.99999999999994</ele><time>2026-04-26T08:53:22Z</time></trkpt><trkpt lat="38.044440631812726" lon="13.339414675817396"><ele>461.0</ele><time>2026-04-26T08:53:23Z</time></trkpt><trkpt lat="38.044468071079876" lon="13.339505889878552"><ele>461.0</ele><time>2026-04-26T08:53:24Z</time></trkpt><trkpt lat="38.04449108732527" lon="13.339606927999533"><ele>461.0</ele><time>2026-04-26T08:53:25Z</time></trkpt><trkpt lat="38.044537971400544" lon="13.339709689133649"><ele>460.99999999999994</ele><time>2026-04-26T08:53:26Z</time></trkpt><trkpt lat="38.044567379343725" lon="13.339823629838175"><ele>461.0</ele><time>2026-04-26T08:53:27Z</time></trkpt><trkpt lat="38.04460217496476" lon="13.33994558388403"><ele>461.4</ele><time>2026-04-26T08:53:28Z</time></trkpt><trkpt lat="38.04461694686145" lon="13.340062923704705"><ele>461.8</ele><time>2026-04-26T08:53:29Z</time></trkpt><trkpt lat="38.04467417996797" lon="13.340187340339833"><ele>462.19999999999993</ele><time>2026-04-26T08:53:30Z</time></trkpt><trkpt lat="38.04470446730634" lon="13.340326621199235"><ele>462.59999999999997</ele><time>2026-04-26T08:53:31Z</time></trkpt><trkpt lat="38.04474172455322" lon="13.340440043128426"><ele>463.0</ele><time>2026-04-26T08:53:32Z</time></trkpt><trkpt lat="38.04478168474742" lon="13.340546749129839"><ele>462.59999999999997</ele><time>2026-04-26T08:53:33Z</time></trkpt><trkpt lat="38.04484742540106" lon="13.340646665844286"><ele>462.19999999999993</ele><time>2026-04-26T08:53:34Z</time></trkpt><trkpt lat="38.04489741768416" lon="13.340753825926537"><ele>461.8</ele><time>2026-04-26T08:53:35Z</time></trkpt><trkpt lat="38.04496150079245" lon="13.340862501888605"><ele>461.4</ele><time>2026-04-26T08:53:36Z</time></trkpt><trkpt lat="38.04503612644761" lon="13.340964993083837"><ele>461.0</ele><time>2026-04-26T08:53:37Z</time></trkpt><trkpt lat="38.04508345425465" lon="13.341084332639047"><ele>461.0</ele><time>2026-04-26T08:53:38Z</time></trkpt><trkpt lat="38.045139746801944" lon="13.341192552366335"><ele>461.0</ele><time>2026-04-26T08:53:39Z</time></trkpt><trkpt lat="38.045185125977184" lon="13.341282717878821"><ele>461.0</ele><time>2026-04-26T08:53:40Z</time></trkpt><trkpt lat="38.04524511086542" lon="13.341385600599441"><ele>461.0</ele><time>2026-04-26T08:53:41Z</time></trkpt><trkpt lat="38.04530300731358" lon="13.34144757600109"><ele>461.0</ele><time>2026-04-26T08:53:42Z</time></trkpt><trkpt lat="38.045362182310974" lon="13.34154517892393"><ele>462.6</ele><time>2026-04-26T08:53:43Z</time></trkpt><trkpt lat="38.045423507964465" lon="13.341626355400185"><ele>464.20000000000005</ele><time>2026-04-26T08:53:44Z</time></trkpt><trkpt lat="38.045478792680576" lon="13.341716980318044"><ele>465.79999999999995</ele><time>2026-04-26T08:53:45Z</time></trkpt><trkpt lat="38.04548119709776" lon="13.341858818205665"><ele>467.4</ele><time>2026-04-26T08:53:46Z</time></trkpt><trkpt lat="38.04551868403377" lon="13.34197893708249"><ele>469.0</ele><time>2026-04-26T08:53:47.001Z</time></trkpt><trkpt lat="38.045590762795115" lon="13.342079594549755"><ele>469.0</ele><time>2026-04-26T08:53:48.001Z</time></trkpt><trkpt lat="38.04565325975639" lon="13.342158162761766"><ele>469.0</ele><time>2026-04-26T08:53:49.001Z</time></trkpt><trkpt lat="38.04570724130648" lon="13.342248839952827"><ele>469.0</ele><time>2026-04-26T08:53:50.001Z</time></trkpt><trkpt lat="38.04582549497728" lon="13.342277658530197"><ele>469.0</ele><time>2026-04-26T08:53:51.001Z</time></trkpt><trkpt lat="38.04592346186523" lon="13.342364772744652"><ele>469.0</ele><time>2026-04-26T08:53:52.001Z</time></trkpt><trkpt lat="38.04601062881218" lon="13.342479400946878"><ele>468.75</ele><time>2026-04-26T08:53:53.001Z</time></trkpt><trkpt lat="38.04611445179576" lon="13.342594561031556"><ele>468.5</ele><time>2026-04-26T08:53:54.001Z</time></trkpt><trkpt lat="38.04620981647123" lon="13.342675533880396"><ele>468.25</ele><time>2026-04-26T08:53:55.001Z</time></trkpt><trkpt lat="38.04629115860353" lon="13.342772647249658"><ele>468.0</ele><time>2026-04-26T08:53:56.001Z</time></trkpt><trkpt lat="38.04636791909237" lon="13.34284149553733"><ele>468.0</ele><time>2026-04-26T08:53:57.001Z</time></trkpt><trkpt lat="38.04643295663494" lon="13.342899902354974"><ele>467.99999999999994</ele><time>2026-04-26T08:53:58.001Z</time></trkpt><trkpt lat="38.04652276530048" lon="13.342937619069728"><ele>467.99999999999994</ele><time>2026-04-26T08:53:59.001Z</time></trkpt><trkpt lat="38.04660838936203" lon="13.342978890069661"><ele>468.0</ele><time>2026-04-26T08:54:00.001Z</time></trkpt><trkpt lat="38.04669769873161" lon="13.34302662993171"><ele>468.0</ele><time>2026-04-26T08:54:01.001Z</time></trkpt><trkpt lat="38.046793689335324" lon="13.343054920776911"><ele>469.0</ele><time>2026-04-26T08:54:02.001Z</time></trkpt><trkpt lat="38.046897435707436" lon="13.343103195447112"><ele>470.0</ele><time>2026-04-26T08:54:03.001Z</time></trkpt><trkpt lat="38.04698380576908" lon="13.343139779340374"><ele>471.0</ele><time>2026-04-26T08:54:04.001Z</time></trkpt><trkpt lat="38.04705169496031" lon="13.343162947960707"><ele>472.0</ele><time>2026-04-26T08:54:05.001Z</time></trkpt><trkpt lat="38.04712401530497" lon="13.343189230894607"><ele>473.0</ele><time>2026-04-26T08:54:06.001Z</time></trkpt><trkpt lat="38.04718147279816" lon="13.343276030076664"><ele>474.0</ele><time>2026-04-26T08:54:07.001Z</time></trkpt><trkpt lat="38.04726197822014" lon="13.343342212469306"><ele>474.0</ele><time>2026-04-26T08:54:08.001Z</time></trkpt><trkpt lat="38.047347485737475" lon="13.34340202891778"><ele>474.0</ele><time>2026-04-26T08:54:09.001Z</time></trkpt><trkpt lat="38.04743186773071" lon="13.343456164570373"><ele>474.0</ele><time>2026-04-26T08:54:10.001Z</time></trkpt><trkpt lat="38.04752450047018" lon="13.343479089101665"><ele>474.0</ele><time>2026-04-26T08:54:11.001Z</time></trkpt><trkpt lat="38.04761784322529" lon="13.343478288373644"><ele>474.0</ele><time>2026-04-26T08:54:12.001Z</time></trkpt><trkpt lat="38.04769941360587" lon="13.343458935720003"><ele>474.0</ele><time>2026-04-26T08:54:13.001Z</time></trkpt><trkpt lat="38.04777426619926" lon="13.343414087014555"><ele>474.0</ele><time>2026-04-26T08:54:14.001Z</time></trkpt><trkpt lat="38.047858920362266" lon="13.343394826462745"><ele>474.0</ele><time>2026-04-26T08:54:15.001Z</time></trkpt><trkpt lat="38.047946062565074" lon="13.343364259885307"><ele>474.0</ele><time>2026-04-26T08:54:16.001Z</time></trkpt><trkpt lat="38.048032441396856" lon="13.343317380508658"><ele>474.0</ele><time>2026-04-26T08:54:17.001Z</time></trkpt><trkpt lat="38.048120529288546" lon="13.343287368270255"><ele>474.0</ele><time>2026-04-26T08:54:18.001Z</time></trkpt><trkpt lat="38.048209570267346" lon="13.343308875081544"><ele>475.6</ele><time>2026-04-26T08:54:19.001Z</time></trkpt><trkpt lat="38.04829656556555" lon="13.34330864831759"><ele>477.2</ele><time>2026-04-26T08:54:20.001Z</time></trkpt><trkpt lat="38.048385869725145" lon="13.343291400189509"><ele>478.80000000000007</ele><time>2026-04-26T08:54:21.002Z</time></trkpt><trkpt lat="38.04849869437152" lon="13.343271466990815"><ele>480.40000000000003</ele><time>2026-04-26T08:54:22.002Z</time></trkpt><trkpt lat="38.048627422078944" lon="13.343264598279998"><ele>482.0</ele><time>2026-04-26T08:54:23.002Z</time></trkpt><trkpt lat="38.04875657270605" lon="13.343238379661093"><ele>482.0</ele><time>2026-04-26T08:54:24.002Z</time></trkpt><trkpt lat="38.04890074431832" lon="13.343209111659272"><ele>482.0</ele><time>2026-04-26T08:54:25.002Z</time></trkpt><trkpt lat="38.04902282428069" lon="13.34316601377766"><ele>482.0</ele><time>2026-04-26T08:54:26.002Z</time></trkpt><trkpt lat="38.0491251755389" lon="13.343166123730725"><ele>482.0</ele><time>2026-04-26T08:54:27.002Z</time></trkpt><trkpt lat="38.0492210009839" lon="13.343184954810413"><ele>483.16666666666663</ele><time>2026-04-26T08:54:28.002Z</time></trkpt><trkpt lat="38.04930852612576" lon="13.343189816031085"><ele>484.3333333333333</ele><time>2026-04-26T08:54:29.002Z</time></trkpt><trkpt lat="38.04939527913461" lon="13.343175830272198"><ele>485.5</ele><time>2026-04-26T08:54:30.002Z</time></trkpt><trkpt lat="38.04948774313629" lon="13.343152169218083"><ele>486.66666666666663</ele><time>2026-04-26T08:54:31.002Z</time></trkpt><trkpt lat="38.04956757092062" lon="13.343157998942733"><ele>487.8333333333333</ele><time>2026-04-26T08:54:32.002Z</time></trkpt><trkpt lat="38.049635542005156" lon="13.34318004378349"><ele>489.0</ele><time>2026-04-26T08:54:33.002Z</time></trkpt><trkpt lat="38.04971763519466" lon="13.343178705326409"><ele>489.0</ele><time>2026-04-26T08:54:34.002Z</time></trkpt><trkpt lat="38.049797434857055" lon="13.3431629362835"><ele>489.0</ele><time>2026-04-26T08:54:35.002Z</time></trkpt><trkpt lat="38.04988105946111" lon="13.343170954115948"><ele>489.0</ele><time>2026-04-26T08:54:36.002Z</time></trkpt><trkpt lat="38.04998037399452" lon="13.343193713929303"><ele>489.0</ele><time>2026-04-26T08:54:37.002Z</time></trkpt><trkpt lat="38.050074239859825" lon="13.343197143029391"><ele>489.0</ele><time>2026-04-26T08:54:38.002Z</time></trkpt><trkpt lat="38.05016494510019" lon="13.343172743538549"><ele>490.6</ele><time>2026-04-26T08:54:39.002Z</time></trkpt><trkpt lat="38.05025204725947" lon="13.343139726645441"><ele>492.2</ele><time>2026-04-26T08:54:40.002Z</time></trkpt><trkpt lat="38.05034450957553" lon="13.343155688375749"><ele>493.80000000000007</ele><time>2026-04-26T08:54:41.002Z</time></trkpt><trkpt lat="38.050434675713674" lon="13.343202643431887"><ele>495.40000000000003</ele><time>2026-04-26T08:54:42.002Z</time></trkpt><trkpt lat="38.05054224196029" lon="13.343220160770043"><ele>497.0</ele><time>2026-04-26T08:54:43.002Z</time></trkpt><trkpt lat="38.05063689359817" lon="13.343225092325104"><ele>496.99999999999994</ele><time>2026-04-26T08:54:44.002Z</time></trkpt><trkpt lat="38.050706282587704" lon="13.34324148540885"><ele>497.0</ele><time>2026-04-26T08:54:45.002Z</time></trkpt><trkpt lat="38.050779138002255" lon="13.343250056493716"><ele>497.0</ele><time>2026-04-26T08:54:46.002Z</time></trkpt><trkpt lat="38.05086276986698" lon="13.34325251681287"><ele>497.0</ele><time>2026-04-26T08:54:47.002Z</time></trkpt><trkpt lat="38.05093368772368" lon="13.34324584385142"><ele>496.99999999999994</ele><time>2026-04-26T08:54:48.002Z</time></trkpt><trkpt lat="38.05099938622377" lon="13.343234317138265"><ele>497.0</ele><time>2026-04-26T08:54:49.002Z</time></trkpt><trkpt lat="38.05109557162637" lon="13.343303941678906"><ele>498.6</ele><time>2026-04-26T08:54:51.002Z</time></trkpt><trkpt lat="38.05115631293069" lon="13.343372926140821"><ele>500.20000000000005</ele><time>2026-04-26T08:54:52.002Z</time></trkpt><trkpt lat="38.051261000975586" lon="13.343406096141706"><ele>501.8</ele><time>2026-04-26T08:54:54.003Z</time></trkpt><trkpt lat="38.05137853047027" lon="13.343476590774234"><ele>503.4</ele><time>2026-04-26T08:54:56.003Z</time></trkpt><trkpt lat="38.0514543352406" lon="13.343524477139972"><ele>505.0</ele><time>2026-04-26T08:54:57.003Z</time></trkpt><trkpt lat="38.0515148229503" lon="13.343570929292577"><ele>505.0</ele><time>2026-04-26T08:54:58.003Z</time></trkpt><trkpt lat="38.05156121028825" lon="13.343632259046652"><ele>505.0</ele><time>2026-04-26T08:54:59.003Z</time></trkpt><trkpt lat="38.05168108880312" lon="13.343718340610712"><ele>505.0</ele><time>2026-04-26T08:55:01.003Z</time></trkpt><trkpt lat="38.05179458657019" lon="13.343755929862738"><ele>505.0</ele><time>2026-04-26T08:55:02.003Z</time></trkpt><trkpt lat="38.051900246252295" lon="13.343787710172613"><ele>505.0</ele><time>2026-04-26T08:55:03.003Z</time></trkpt><trkpt lat="38.051978899358026" lon="13.343850991946965"><ele>509.4</ele><time>2026-04-26T08:55:04.003Z</time></trkpt><trkpt lat="38.05205286200739" lon="13.343923156572439"><ele>513.8</ele><time>2026-04-26T08:55:05.003Z</time></trkpt><trkpt lat="38.05213370426965" lon="13.34397115990674"><ele>518.2</ele><time>2026-04-26T08:55:06.003Z</time></trkpt><trkpt lat="38.052206002481746" lon="13.344013012943009"><ele>522.6</ele><time>2026-04-26T08:55:07.003Z</time></trkpt><trkpt lat="38.05228542140901" lon="13.344067421762643"><ele>527.0</ele><time>2026-04-26T08:55:08.003Z</time></trkpt><trkpt lat="38.052377976356375" lon="13.344124536619653"><ele>525.4</ele><time>2026-04-26T08:55:09.003Z</time></trkpt><trkpt lat="38.05249506565409" lon="13.34420975032716"><ele>523.8000000000001</ele><time>2026-04-26T08:55:11.003Z</time></trkpt><trkpt lat="38.052559637214074" lon="13.3442771051782"><ele>522.2</ele><time>2026-04-26T08:55:12.003Z</time></trkpt><trkpt lat="38.05262873228968" lon="13.34436499820105"><ele>520.6</ele><time>2026-04-26T08:55:13.003Z</time></trkpt><trkpt lat="38.05271778652396" lon="13.344426829874715"><ele>519.0</ele><time>2026-04-26T08:55:14.003Z</time></trkpt><trkpt lat="38.05280328732332" lon="13.344460444535237"><ele>519.0</ele><time>2026-04-26T08:55:15.003Z</time></trkpt><trkpt lat="38.05287385455661" lon="13.344487817898527"><ele>519.0</ele><time>2026-04-26T08:55:16.003Z</time></trkpt><trkpt lat="38.05292628954051" lon="13.344547270401764"><ele>519.0</ele><time>2026-04-26T08:55:17.003Z</time></trkpt><trkpt lat="38.052997164901775" lon="13.344643960247069"><ele>519.0</ele><time>2026-04-26T08:55:18.003Z</time></trkpt><trkpt lat="38.05307954436362" lon="13.344739088461498"><ele>519.0</ele><time>2026-04-26T08:55:19.003Z</time></trkpt><trkpt lat="38.05315429445854" lon="13.34480989816692"><ele>520.8</ele><time>2026-04-26T08:55:20.003Z</time></trkpt><trkpt lat="38.05321976409958" lon="13.34487162389609"><ele>522.5999999999999</ele><time>2026-04-26T08:55:21.003Z</time></trkpt><trkpt lat="38.05328437547328" lon="13.344964881930617"><ele>524.4</ele><time>2026-04-26T08:55:22Z</time></trkpt><trkpt lat="38.053363262639095" lon="13.345060717584222"><ele>526.1999999999999</ele><time>2026-04-26T08:55:23Z</time></trkpt><trkpt lat="38.05342442914365" lon="13.345123959415927"><ele>528.0</ele><time>2026-04-26T08:55:24Z</time></trkpt><trkpt lat="38.05349181481963" lon="13.345210192292814"><ele>528.0</ele><time>2026-04-26T08:55:25Z</time></trkpt><trkpt lat="38.05356253533717" lon="13.345304106867657"><ele>528.0</ele><time>2026-04-26T08:55:26Z</time></trkpt><trkpt lat="38.05367617541682" lon="13.345438251656393"><ele>528.0</ele><time>2026-04-26T08:55:28Z</time></trkpt><trkpt lat="38.05373089453237" lon="13.345510654008427"><ele>528.0</ele><time>2026-04-26T08:55:29Z</time></trkpt><trkpt lat="38.05379158090561" lon="13.345592843464496"><ele>528.0</ele><time>2026-04-26T08:55:30Z</time></trkpt><trkpt lat="38.05383750598624" lon="13.345680379477606"><ele>529.4</ele><time>2026-04-26T08:55:31Z</time></trkpt><trkpt lat="38.05390384356516" lon="13.34579149905872"><ele>530.8</ele><time>2026-04-26T08:55:32Z</time></trkpt><trkpt lat="38.05397042157887" lon="13.345852651987519"><ele>532.2</ele><time>2026-04-26T08:55:33Z</time></trkpt><trkpt lat="38.05406840411513" lon="13.34595519669498"><ele>533.6</ele><time>2026-04-26T08:55:34Z</time></trkpt><trkpt lat="38.05416410154982" lon="13.346061364868035"><ele>535.0</ele><time>2026-04-26T08:55:35Z</time></trkpt><trkpt lat="38.054261969423074" lon="13.346167168559424"><ele>535.0</ele><time>2026-04-26T08:55:36Z</time></trkpt><trkpt lat="38.054356836833506" lon="13.34627154859209"><ele>535.0</ele><time>2026-04-26T08:55:37Z</time></trkpt><trkpt lat="38.05443684716919" lon="13.346356493082023"><ele>535.0</ele><time>2026-04-26T08:55:38Z</time></trkpt><trkpt lat="38.05450731785076" lon="13.346423053118746"><ele>535.0</ele><time>2026-04-26T08:55:39Z</time></trkpt><trkpt lat="38.05458072646322" lon="13.346504564953493"><ele>535.0</ele><time>2026-04-26T08:55:40Z</time></trkpt><trkpt lat="38.05463723178176" lon="13.346579372660155"><ele>537.0</ele><time>2026-04-26T08:55:41Z</time></trkpt><trkpt lat="38.05473264027353" lon="13.346679884643013"><ele>539.0</ele><time>2026-04-26T08:55:42Z</time></trkpt><trkpt lat="38.05481156513168" lon="13.346770158692086"><ele>541.0</ele><time>2026-04-26T08:55:43Z</time></trkpt><trkpt lat="38.054894292511506" lon="13.346849078515485"><ele>543.0</ele><time>2026-04-26T08:55:44Z</time></trkpt><trkpt lat="38.05498170527599" lon="13.346923006155388"><ele>545.0</ele><time>2026-04-26T08:55:45Z</time></trkpt><trkpt lat="38.05506616608816" lon="13.347001642251778"><ele>545.0</ele><time>2026-04-26T08:55:46Z</time></trkpt><trkpt lat="38.05515560520835" lon="13.347076630821862"><ele>545.0</ele><time>2026-04-26T08:55:47Z</time></trkpt><trkpt lat="38.05524342580358" lon="13.34715234944787"><ele>545.0</ele><time>2026-04-26T08:55:48Z</time></trkpt><trkpt lat="38.05533758521472" lon="13.347233916978608"><ele>545.0</ele><time>2026-04-26T08:55:49Z</time></trkpt><trkpt lat="38.055439169879016" lon="13.347290373866901"><ele>545.0</ele><time>2026-04-26T08:55:50Z</time></trkpt><trkpt lat="38.055553221374254" lon="13.347335841481359"><ele>547.0</ele><time>2026-04-26T08:55:51Z</time></trkpt><trkpt lat="38.0556857468835" lon="13.347395124454959"><ele>549.0</ele><time>2026-04-26T08:55:52Z</time></trkpt><trkpt lat="38.055800942777914" lon="13.3474567758137"><ele>551.0</ele><time>2026-04-26T08:55:53Z</time></trkpt><trkpt lat="38.055873661859245" lon="13.347516378677486"><ele>553.0</ele><time>2026-04-26T08:55:54Z</time></trkpt><trkpt lat="38.0559333792579" lon="13.347587218710798"><ele>555.0</ele><time>2026-04-26T08:55:55Z</time></trkpt><trkpt lat="38.05600698766323" lon="13.347673265260326"><ele>555.0</ele><time>2026-04-26T08:55:56Z</time></trkpt><trkpt lat="38.056094678722054" lon="13.347744939595213"><ele>555.0</ele><time>2026-04-26T08:55:57Z</time></trkpt><trkpt lat="38.056173750771755" lon="13.347814719237673"><ele>555.0</ele><time>2026-04-26T08:55:58Z</time></trkpt><trkpt lat="38.05626593266189" lon="13.34789497173033"><ele>555.0</ele><time>2026-04-26T08:55:59.001Z</time></trkpt><trkpt lat="38.05633911609892" lon="13.347933258572594"><ele>555.0</ele><time>2026-04-26T08:56:00.001Z</time></trkpt><trkpt lat="38.05641707678056" lon="13.34799341143061"><ele>555.0</ele><time>2026-04-26T08:56:01.001Z</time></trkpt><trkpt lat="38.0564934612339" lon="13.348020665813385"><ele>555.0</ele><time>2026-04-26T08:56:02.001Z</time></trkpt><trkpt lat="38.05657928176656" lon="13.348016480050044"><ele>555.0</ele><time>2026-04-26T08:56:03.001Z</time></trkpt><trkpt lat="38.05667023231962" lon="13.347987845223425"><ele>555.0</ele><time>2026-04-26T08:56:04.001Z</time></trkpt><trkpt lat="38.05676366767867" lon="13.34793879119906"><ele>555.0</ele><time>2026-04-26T08:56:05.001Z</time></trkpt><trkpt lat="38.05684537832042" lon="13.347887794435314"><ele>555.75</ele><time>2026-04-26T08:56:06.001Z</time></trkpt><trkpt lat="38.05694308591544" lon="13.347844931104362"><ele>556.5</ele><time>2026-04-26T08:56:07.001Z</time></trkpt><trkpt lat="38.05706015571003" lon="13.347797789262152"><ele>557.25</ele><time>2026-04-26T08:56:08.001Z</time></trkpt><trkpt lat="38.05719882890819" lon="13.347751106838043"><ele>558.0</ele><time>2026-04-26T08:56:09.001Z</time></trkpt><trkpt lat="38.05730301627274" lon="13.347711118724623"><ele>558.0</ele><time>2026-04-26T08:56:10.001Z</time></trkpt><trkpt lat="38.05737625518717" lon="13.34768631743511"><ele>558.0</ele><time>2026-04-26T08:56:11.001Z</time></trkpt><trkpt lat="38.05744365869882" lon="13.347695520066049"><ele>558.0</ele><time>2026-04-26T08:56:12.001Z</time></trkpt><trkpt lat="38.057546828972455" lon="13.347737958844903"><ele>558.0</ele><time>2026-04-26T08:56:13.001Z</time></trkpt><trkpt lat="38.05763341782746" lon="13.347788370339574"><ele>558.0</ele><time>2026-04-26T08:56:14.001Z</time></trkpt><trkpt lat="38.05775371379355" lon="13.34783519824937"><ele>559.0</ele><time>2026-04-26T08:56:15.001Z</time></trkpt><trkpt lat="38.05787883239589" lon="13.34785290510388"><ele>560.0</ele><time>2026-04-26T08:56:16.001Z</time></trkpt><trkpt lat="38.05799115340414" lon="13.34787208075231"><ele>561.0</ele><time>2026-04-26T08:56:17.001Z</time></trkpt><trkpt lat="38.05809942793737" lon="13.347887999364898"><ele>562.0</ele><time>2026-04-26T08:56:18.001Z</time></trkpt><trkpt lat="38.05821611277644" lon="13.347879111645197"><ele>563.8000000000001</ele><time>2026-04-26T08:56:19.001Z</time></trkpt><trkpt lat="38.058344008879544" lon="13.347881716958161"><ele>565.6</ele><time>2026-04-26T08:56:20.001Z</time></trkpt><trkpt lat="38.05843604812741" lon="13.347890771328647"><ele>567.4000000000001</ele><time>2026-04-26T08:56:21.001Z</time></trkpt><trkpt lat="38.05850973850704" lon="13.347876818405647"><ele>569.2</ele><time>2026-04-26T08:56:22.001Z</time></trkpt><trkpt lat="38.05859215492446" lon="13.347867967934262"><ele>571.0</ele><time>2026-04-26T08:56:23.001Z</time></trkpt><trkpt lat="38.05866945032289" lon="13.347883365694408"><ele>571.0</ele><time>2026-04-26T08:56:24.001Z</time></trkpt><trkpt lat="38.058768230045956" lon="13.347890050003755"><ele>571.0</ele><time>2026-04-26T08:56:25.001Z</time></trkpt><trkpt lat="38.05886728097279" lon="13.347921022798685"><ele>571.0</ele><time>2026-04-26T08:56:26.001Z</time></trkpt><trkpt lat="38.058955193752595" lon="13.347953871014473"><ele>571.0</ele><time>2026-04-26T08:56:27.001Z</time></trkpt><trkpt lat="38.05903783329387" lon="13.347981631863153"><ele>571.0</ele><time>2026-04-26T08:56:28.001Z</time></trkpt><trkpt lat="38.05913282067056" lon="13.348010261421441"><ele>571.0</ele><time>2026-04-26T08:56:29.001Z</time></trkpt><trkpt lat="38.05921577335167" lon="13.348001821893059"><ele>571.0</ele><time>2026-04-26T08:56:30.001Z</time></trkpt><trkpt lat="38.05929663531706" lon="13.34798419890547"><ele>571.0</ele><time>2026-04-26T08:56:31.001Z</time></trkpt><trkpt lat="38.05938424865089" lon="13.3479626125739"><ele>571.0</ele><time>2026-04-26T08:56:32.001Z</time></trkpt><trkpt lat="38.05948309829667" lon="13.34788084768305"><ele>571.0</ele><time>2026-04-26T08:56:34.002Z</time></trkpt><trkpt lat="38.059539920245875" lon="13.347830757009191"><ele>571.0</ele><time>2026-04-26T08:56:35.002Z</time></trkpt><trkpt lat="38.05966225317939" lon="13.347881629192369"><ele>571.0</ele><time>2026-04-26T08:56:37.002Z</time></trkpt><trkpt lat="38.05971798548692" lon="13.347962360870048"><ele>571.0</ele><time>2026-04-26T08:56:38.002Z</time></trkpt><trkpt lat="38.059773080471686" lon="13.348069050655791"><ele>571.0</ele><time>2026-04-26T08:56:39.002Z</time></trkpt><trkpt lat="38.059841623241596" lon="13.348205184806835"><ele>571.0</ele><time>2026-04-26T08:56:40.002Z</time></trkpt><trkpt lat="38.059904664417516" lon="13.348338382814624"><ele>571.0</ele><time>2026-04-26T08:56:41.002Z</time></trkpt><trkpt lat="38.059957381219284" lon="13.34844215960281"><ele>570.6666666666667</ele><time>2026-04-26T08:56:42.002Z</time></trkpt><trkpt lat="38.06001951450962" lon="13.348507176264093"><ele>570.3333333333334</ele><time>2026-04-26T08:56:43.002Z</time></trkpt><trkpt lat="38.06009834789738" lon="13.34856997128077"><ele>570.0</ele><time>2026-04-26T08:56:44.002Z</time></trkpt><trkpt lat="38.060164234533964" lon="13.348633944120213"><ele>569.6666666666666</ele><time>2026-04-26T08:56:45.002Z</time></trkpt><trkpt lat="38.06022700858335" lon="13.348728935826651"><ele>569.3333333333333</ele><time>2026-04-26T08:56:46.002Z</time></trkpt><trkpt lat="38.060263437219795" lon="13.348839222449442"><ele>569.0</ele><time>2026-04-26T08:56:47.002Z</time></trkpt><trkpt lat="38.06028784715531" lon="13.348950905342434"><ele>569.0</ele><time>2026-04-26T08:56:48.002Z</time></trkpt><trkpt lat="38.060298618521436" lon="13.349068843312429"><ele>569.0</ele><time>2026-04-26T08:56:49.002Z</time></trkpt><trkpt lat="38.06026763283257" lon="13.349161942432294"><ele>569.0</ele><time>2026-04-26T08:56:51.002Z</time></trkpt><trkpt lat="38.060260189662124" lon="13.349299683038808"><ele>569.0</ele><time>2026-04-26T08:56:53.002Z</time></trkpt><trkpt lat="38.060256352394944" lon="13.349391829986738"><ele>569.0</ele><time>2026-04-26T08:56:54.002Z</time></trkpt><trkpt lat="38.060317667451315" lon="13.349561129842332"><ele>569.0</ele><time>2026-04-26T08:56:56.002Z</time></trkpt><trkpt lat="38.06036819374699" lon="13.34967763394678"><ele>569.0</ele><time>2026-04-26T08:56:57.002Z</time></trkpt><trkpt lat="38.06040535097368" lon="13.349797826279556"><ele>569.0</ele><time>2026-04-26T08:56:58.002Z</time></trkpt><trkpt lat="38.06042721711758" lon="13.349925734612624"><ele>569.0</ele><time>2026-04-26T08:56:59.002Z</time></trkpt><trkpt lat="38.06044266083539" lon="13.350048151135205"><ele>569.0</ele><time>2026-04-26T08:57:00.002Z</time></trkpt><trkpt lat="38.0604783275299" lon="13.350135050474313"><ele>570.8</ele><time>2026-04-26T08:57:01.002Z</time></trkpt><trkpt lat="38.060525506499594" lon="13.350194387478755"><ele>572.5999999999999</ele><time>2026-04-26T08:57:02.002Z</time></trkpt><trkpt lat="38.06055463833514" lon="13.350349203487182"><ele>574.4</ele><time>2026-04-26T08:57:04.002Z</time></trkpt><trkpt lat="38.060535456596135" lon="13.350462639929708"><ele>576.1999999999999</ele><time>2026-04-26T08:57:05.002Z</time></trkpt><trkpt lat="38.060498983155" lon="13.350555209072128"><ele>578.0</ele><time>2026-04-26T08:57:06.002Z</time></trkpt><trkpt lat="38.06050437810606" lon="13.350691385864435"><ele>578.5</ele><time>2026-04-26T08:57:08.003Z</time></trkpt><trkpt lat="38.06056890299002" lon="13.350792812887647"><ele>579.0</ele><time>2026-04-26T08:57:10.003Z</time></trkpt><trkpt lat="38.06060756481602" lon="13.350976082023665"><ele>579.5</ele><time>2026-04-26T08:57:12.003Z</time></trkpt><trkpt lat="38.06063919026951" lon="13.351120078102456"><ele>580.0</ele><time>2026-04-26T08:57:13.003Z</time></trkpt><trkpt lat="38.06068176585267" lon="13.351282637864115"><ele>580.5</ele><time>2026-04-26T08:57:14.003Z</time></trkpt><trkpt lat="38.060736372214905" lon="13.351413431489956"><ele>581.0</ele><time>2026-04-26T08:57:15.003Z</time></trkpt><trkpt lat="38.06077557848691" lon="13.351528703007705"><ele>581.5</ele><time>2026-04-26T08:57:16.003Z</time></trkpt><trkpt lat="38.060795790597595" lon="13.351617166232195"><ele>582.0</ele><time>2026-04-26T08:57:17.003Z</time></trkpt><trkpt lat="38.06084078090606" lon="13.35167586380609"><ele>582.5</ele><time>2026-04-26T08:57:18.003Z</time></trkpt><trkpt lat="38.060922205336276" lon="13.351716355167047"><ele>583.0</ele><time>2026-04-26T08:57:19.003Z</time></trkpt><trkpt lat="38.06103229881219" lon="13.351780371297712"><ele>581.6666666666667</ele><time>2026-04-26T08:57:20.003Z</time></trkpt><trkpt lat="38.06112276604034" lon="13.351851878257769"><ele>580.3333333333334</ele><time>2026-04-26T08:57:21.003Z</time></trkpt><trkpt lat="38.06118445103973" lon="13.351904948147311"><ele>579.0</ele><time>2026-04-26T08:57:22.003Z</time></trkpt><trkpt lat="38.061240560243704" lon="13.351965955819422"><ele>577.6666666666666</ele><time>2026-04-26T08:57:24.003Z</time></trkpt><trkpt lat="38.06130302463306" lon="13.352047860045966"><ele>576.3333333333333</ele><time>2026-04-26T08:58:30.001Z</time></trkpt><trkpt lat="38.06134837060077" lon="13.352106422078053"><ele>575.0</ele><time>2026-04-26T08:58:31.001Z</time></trkpt><trkpt lat="38.06144683020409" lon="13.352182251773442"><ele>575.3333333333333</ele><time>2026-04-26T08:58:33.002Z</time></trkpt><trkpt lat="38.06147187061445" lon="13.352333230592485"><ele>575.6666666666666</ele><time>2026-04-26T08:58:35.002Z</time></trkpt><trkpt lat="38.061466714772514" lon="13.35241960300898"><ele>576.0</ele><time>2026-04-26T08:58:36.002Z</time></trkpt><trkpt lat="38.061446610973874" lon="13.352508045730229"><ele>576.3333333333334</ele><time>2026-04-26T08:58:37.002Z</time></trkpt><trkpt lat="38.06143458338305" lon="13.352590271308117"><ele>576.6666666666667</ele><time>2026-04-26T08:58:38.002Z</time></trkpt><trkpt lat="38.06140768962249" lon="13.352672513300135"><ele>577.0</ele><time>2026-04-26T08:58:39.002Z</time></trkpt><trkpt lat="38.061366441060095" lon="13.352743350031131"><ele>577.0</ele><time>2026-04-26T08:58:40.002Z</time></trkpt><trkpt lat="38.061319287217415" lon="13.35282651176501"><ele>577.0</ele><time>2026-04-26T08:58:41.002Z</time></trkpt><trkpt lat="38.06126868473022" lon="13.352907239298336"><ele>577.0</ele><time>2026-04-26T08:58:42.002Z</time></trkpt><trkpt lat="38.06117812735451" lon="13.352959489061035"><ele>577.0</ele><time>2026-04-26T08:58:44.002Z</time></trkpt><trkpt lat="38.06107273469579" lon="13.352938082522282"><ele>577.0</ele><time>2026-04-26T08:58:46.002Z</time></trkpt><trkpt lat="38.06097692602424" lon="13.353050796239874"><ele>578.5</ele><time>2026-04-26T08:58:48.002Z</time></trkpt><trkpt lat="38.060931799211644" lon="13.353128713828307"><ele>580.0</ele><time>2026-04-26T08:58:49.002Z</time></trkpt><trkpt lat="38.060865846035114" lon="13.35319318774714"><ele>581.5</ele><time>2026-04-26T08:58:50.002Z</time></trkpt><trkpt lat="38.06077701905392" lon="13.353261335812803"><ele>583.0</ele><time>2026-04-26T08:58:52.002Z</time></trkpt><trkpt lat="38.06074932423941" lon="13.35339002828583"><ele>584.5</ele><time>2026-04-26T08:58:54.002Z</time></trkpt><trkpt lat="38.060734425046675" lon="13.353475868602631"><ele>586.0</ele><time>2026-04-26T08:58:55.002Z</time></trkpt><trkpt lat="38.060708440927236" lon="13.353591563313575"><ele>586.0</ele><time>2026-04-26T08:58:56.002Z</time></trkpt><trkpt lat="38.06067371000451" lon="13.35369407194698"><ele>586.0</ele><time>2026-04-26T08:58:57.002Z</time></trkpt><trkpt lat="38.060659071478895" lon="13.35379999977923"><ele>586.0</ele><time>2026-04-26T08:58:58.002Z</time></trkpt><trkpt lat="38.06066165890652" lon="13.35389318818729"><ele>586.0</ele><time>2026-04-26T08:58:59.002Z</time></trkpt><trkpt lat="38.0606509714581" lon="13.35398713578838"><ele>586.0</ele><time>2026-04-26T08:59:00.002Z</time></trkpt><trkpt lat="38.06061990819857" lon="13.354075069725917"><ele>586.0</ele><time>2026-04-26T08:59:01.002Z</time></trkpt><trkpt lat="38.06058898345863" lon="13.354152219098493"><ele>586.6666666666667</ele><time>2026-04-26T08:59:02.002Z</time></trkpt><trkpt lat="38.060580568268406" lon="13.354231698835129"><ele>587.3333333333334</ele><time>2026-04-26T08:59:03.002Z</time></trkpt><trkpt lat="38.06062517180238" lon="13.354389397459823"><ele>588.0</ele><time>2026-04-26T08:59:05.002Z</time></trkpt><trkpt lat="38.06062861591077" lon="13.354471701345721"><ele>588.6666666666666</ele><time>2026-04-26T08:59:06.003Z</time></trkpt><trkpt lat="38.06062912878041" lon="13.354579357550522"><ele>589.3333333333333</ele><time>2026-04-26T08:59:08.003Z</time></trkpt><trkpt lat="38.06069774881616" lon="13.354590289581827"><ele>590.0</ele><time>2026-04-26T08:59:11.003Z</time></trkpt><trkpt lat="38.0607902476614" lon="13.354507516306283"><ele>591.2</ele><time>2026-04-26T08:59:13.003Z</time></trkpt><trkpt lat="38.060888811957184" lon="13.354416203319548"><ele>592.4</ele><time>2026-04-26T08:59:15.003Z</time></trkpt><trkpt lat="38.06101499383206" lon="13.354350878076009"><ele>593.6</ele><time>2026-04-26T08:59:17.003Z</time></trkpt><trkpt lat="38.06109081008355" lon="13.35430313100365"><ele>594.8</ele><time>2026-04-26T08:59:18.003Z</time></trkpt><trkpt lat="38.06116740525074" lon="13.354242507009452"><ele>596.0</ele><time>2026-04-26T08:59:19.003Z</time></trkpt><trkpt lat="38.061282393389504" lon="13.354205220521756"><ele>596.0</ele><time>2026-04-26T08:59:21.003Z</time></trkpt><trkpt lat="38.06136814941499" lon="13.35428794335357"><ele>596.0</ele><time>2026-04-26T08:59:23.003Z</time></trkpt><trkpt lat="38.06147474984309" lon="13.354424767129103"><ele>596.0</ele><time>2026-04-26T08:59:25.003Z</time></trkpt><trkpt lat="38.06156316778097" lon="13.35454604917128"><ele>596.0</ele><time>2026-04-26T08:59:27.003Z</time></trkpt><trkpt lat="38.061625866427065" lon="13.354633625288301"><ele>601.1666666666666</ele><time>2026-04-26T08:59:28.003Z</time></trkpt><trkpt lat="38.061667110583876" lon="13.354710065281358"><ele>606.3333333333333</ele><time>2026-04-26T08:59:29.003Z</time></trkpt><trkpt lat="38.061696667446235" lon="13.354798046184904"><ele>611.5</ele><time>2026-04-26T08:59:30.003Z</time></trkpt><trkpt lat="38.061712679875626" lon="13.354884827483371"><ele>616.6666666666666</ele><time>2026-04-26T08:59:31.003Z</time></trkpt><trkpt lat="38.06176423087957" lon="13.354975416316927"><ele>621.8333333333334</ele><time>2026-04-26T08:59:33.003Z</time></trkpt><trkpt lat="38.06182556203679" lon="13.355037881655461"><ele>627.0</ele><time>2026-04-26T08:59:35Z</time></trkpt><trkpt lat="38.06192332775779" lon="13.355050876756268"><ele>627.0</ele><time>2026-04-26T08:59:37Z</time></trkpt><trkpt lat="38.06203028233736" lon="13.35511629765783"><ele>627.0</ele><time>2026-04-26T08:59:39Z</time></trkpt><trkpt lat="38.06215060179033" lon="13.355183076419928"><ele>627.0</ele><time>2026-04-26T08:59:41Z</time></trkpt><trkpt lat="38.06221205906364" lon="13.355205729618016"><ele>627.0</ele><time>2026-04-26T08:59:42Z</time></trkpt><trkpt lat="38.06226681253144" lon="13.355263871772909"><ele>627.0</ele><time>2026-04-26T08:59:43Z</time></trkpt><trkpt lat="38.06234365221913" lon="13.355382023417876"><ele>629.5</ele><time>2026-04-26T08:59:45Z</time></trkpt><trkpt lat="38.0624555642057" lon="13.35544038184944"><ele>632.0</ele><time>2026-04-26T08:59:47Z</time></trkpt><trkpt lat="38.062564854480534" lon="13.355502892004878"><ele>634.5</ele><time>2026-04-26T08:59:49Z</time></trkpt><trkpt lat="38.062648788522274" lon="13.355628416547065"><ele>637.0</ele><time>2026-04-26T08:59:51Z</time></trkpt><trkpt lat="38.06271631509265" lon="13.355722778503884"><ele>639.8333333333334</ele><time>2026-04-26T08:59:53Z</time></trkpt><trkpt lat="38.062772075578835" lon="13.355867165030265"><ele>642.6666666666667</ele><time>2026-04-26T08:59:55Z</time></trkpt><trkpt lat="38.06281128588484" lon="13.355931947577172"><ele>645.5</ele><time>2026-04-26T09:00:28.001Z</time></trkpt><trkpt lat="38.0628604296076" lon="13.355985946076004"><ele>648.3333333333334</ele><time>2026-04-26T09:00:30.001Z</time></trkpt><trkpt lat="38.06293386665343" lon="13.355961318177147"><ele>651.1666666666666</ele><time>2026-04-26T09:00:33.001Z</time></trkpt><trkpt lat="38.0630120285177" lon="13.355975063212382"><ele>654.0</ele><time>2026-04-26T09:00:37.002Z</time></trkpt><trkpt lat="38.06305745677423" lon="13.356076017015331"><ele>654.0</ele><time>2026-04-26T09:00:40.002Z</time></trkpt><trkpt lat="38.0630899265629" lon="13.356159431117378"><ele>654.0</ele><time>2026-04-26T09:00:42.002Z</time></trkpt><trkpt lat="38.06312977066023" lon="13.356241062164399"><ele>654.0</ele><time>2026-04-26T09:00:45.002Z</time></trkpt><trkpt lat="38.06318941412769" lon="13.356325953981255"><ele>654.0</ele><time>2026-04-26T09:00:49.002Z</time></trkpt><trkpt lat="38.063252850418934" lon="13.356409342902188"><ele>654.0</ele><time>2026-04-26T09:00:54.002Z</time></trkpt><trkpt lat="38.0633046896905" lon="13.356477692062033"><ele>654.0</ele><time>2026-04-26T09:01:09.002Z</time></trkpt><trkpt lat="38.06336550989504" lon="13.356554468116336"><ele>658.6666666666666</ele><time>2026-04-26T09:04:18.001Z</time></trkpt><trkpt lat="38.06343026785313" lon="13.356640270988864"><ele>663.3333333333334</ele><time>2026-04-26T09:04:21.001Z</time></trkpt><trkpt lat="38.063456913374715" lon="13.356713238925183"><ele>668.0</ele><time>2026-04-26T09:04:43.001Z</time></trkpt><trkpt lat="38.06349378236446" lon="13.356786281764451"><ele>672.6666666666667</ele><time>2026-04-26T09:05:16.002Z</time></trkpt><trkpt lat="38.063554097302244" lon="13.356833237389957"><ele>677.3333333333334</ele><time>2026-04-26T09:05:20.002Z</time></trkpt><trkpt lat="38.06360131973141" lon="13.356933995018537"><ele>682.0</ele><time>2026-04-26T09:05:23.002Z</time></trkpt><trkpt lat="38.063640057383395" lon="13.35700167860048"><ele>682.0</ele><time>2026-04-26T09:05:24.002Z</time></trkpt><trkpt lat="38.06370753833801" lon="13.357099719829645"><ele>682.0</ele><time>2026-04-26T09:05:26.002Z</time></trkpt><trkpt lat="38.06374813905617" lon="13.35721151585733"><ele>682.0</ele><time>2026-04-26T09:05:28.003Z</time></trkpt><trkpt lat="38.06375358242201" lon="13.357351059094956"><ele>682.0</ele><time>2026-04-26T09:05:30.003Z</time></trkpt><trkpt lat="38.063756994792435" lon="13.357439580080008"><ele>682.0</ele><time>2026-04-26T09:05:31.003Z</time></trkpt><trkpt lat="38.063755609278225" lon="13.357527094333635"><ele>682.0</ele><time>2026-04-26T09:05:32.003Z</time></trkpt><trkpt lat="38.063742737159835" lon="13.35764267191325"><ele>683.1666666666667</ele><time>2026-04-26T09:05:34.003Z</time></trkpt><trkpt lat="38.06375586524541" lon="13.357721985492933"><ele>684.3333333333334</ele><time>2026-04-26T09:05:37.003Z</time></trkpt><trkpt lat="38.063700354787265" lon="13.357770840328262"><ele>685.5</ele><time>2026-04-26T09:08:37.001Z</time></trkpt><trkpt lat="38.063657177056164" lon="13.357835090938806"><ele>686.6666666666666</ele><time>2026-04-26T09:08:41.001Z</time></trkpt><trkpt lat="38.063727031599605" lon="13.357936070128305"><ele>687.8333333333333</ele><time>2026-04-26T09:08:44.001Z</time></trkpt><trkpt lat="38.06374519846479" lon="13.358033956873594"><ele>689.0</ele><time>2026-04-26T09:08:46.001Z</time></trkpt><trkpt lat="38.06373916055723" lon="13.358128339043063"><ele>689.0</ele><time>2026-04-26T09:08:48.001Z</time></trkpt><trkpt lat="38.063724823297335" lon="13.358216916101496"><ele>689.0</ele><time>2026-04-26T09:08:50.001Z</time></trkpt><trkpt lat="38.06370943332479" lon="13.358306399634417"><ele>689.0</ele><time>2026-04-26T09:08:52.001Z</time></trkpt><trkpt lat="38.06371403711095" lon="13.358406267364348"><ele>689.0</ele><time>2026-04-26T09:08:54.001Z</time></trkpt><trkpt lat="38.06376228450629" lon="13.358490397678322"><ele>689.0</ele><time>2026-04-26T09:08:57.001Z</time></trkpt><trkpt lat="38.06379079802275" lon="13.35856531629778"><ele>689.0</ele><time>2026-04-26T09:08:59.001Z</time></trkpt><trkpt lat="38.063799776121236" lon="13.35866480595375"><ele>689.0</ele><time>2026-04-26T09:09:03.002Z</time></trkpt><trkpt lat="38.06383074973953" lon="13.358747646736806"><ele>689.0</ele><time>2026-04-26T09:09:07.002Z</time></trkpt><trkpt lat="38.063834449888084" lon="13.358854394621954"><ele>689.0</ele><time>2026-04-26T09:09:10.002Z</time></trkpt><trkpt lat="38.06381764876714" lon="13.358938386182064"><ele>689.0</ele><time>2026-04-26T09:09:13.002Z</time></trkpt><trkpt lat="38.063770872842994" lon="13.359025674191107"><ele>689.0</ele><time>2026-04-26T09:09:16.002Z</time></trkpt><trkpt lat="38.063740480082316" lon="13.359110527373605"><ele>689.0</ele><time>2026-04-26T09:09:19.002Z</time></trkpt><trkpt lat="38.06371776439605" lon="13.359210222249141"><ele>689.0</ele><time>2026-04-26T09:09:22.002Z</time></trkpt><trkpt lat="38.06370807975973" lon="13.359314723749042"><ele>685.5</ele><time>2026-04-26T09:09:25.002Z</time></trkpt><trkpt lat="38.06371431000128" lon="13.35940247437125"><ele>682.0</ele><time>2026-04-26T09:09:27.002Z</time></trkpt><trkpt lat="38.06372671632391" lon="13.359495753227021"><ele>678.5</ele><time>2026-04-26T09:09:30.002Z</time></trkpt><trkpt lat="38.06372774200509" lon="13.359604372358202"><ele>675.0</ele><time>2026-04-26T09:09:32.002Z</time></trkpt><trkpt lat="38.063744779912284" lon="13.35972253757763"><ele>671.5</ele><time>2026-04-26T09:09:34.002Z</time></trkpt><trkpt lat="38.06375207144559" lon="13.359821689801352"><ele>668.0</ele><time>2026-04-26T09:09:36.003Z</time></trkpt><trkpt lat="38.06376437721254" lon="13.359917241872232"><ele>665.5</ele><time>2026-04-26T09:09:43.003Z</time></trkpt><trkpt lat="38.0638526634522" lon="13.359893198182089"><ele>663.0</ele><time>2026-04-26T09:09:47.003Z</time></trkpt><trkpt lat="38.06393751317761" lon="13.35985741746511"><ele>660.5</ele><time>2026-04-26T09:09:49.003Z</time></trkpt><trkpt lat="38.06401296162652" lon="13.359840161621305"><ele>658.0</ele><time>2026-04-26T09:09:50.003Z</time></trkpt><trkpt lat="38.064094790075856" lon="13.359832064037532"><ele>655.5</ele><time>2026-04-26T09:09:51.003Z</time></trkpt><trkpt lat="38.06420427042281" lon="13.35984910376379"><ele>653.0</ele><time>2026-04-26T09:09:52.003Z</time></trkpt><trkpt lat="38.064298160931735" lon="13.35985759122573"><ele>653.0</ele><time>2026-04-26T09:09:53.003Z</time></trkpt><trkpt lat="38.064362925498365" lon="13.359890633336004"><ele>653.0</ele><time>2026-04-26T09:09:55.003Z</time></trkpt><trkpt lat="38.06437420532386" lon="13.360005119437016"><ele>653.0</ele><time>2026-04-26T09:09:58.003Z</time></trkpt><trkpt lat="38.064357389256394" lon="13.360168258712214"><ele>653.0</ele><time>2026-04-26T09:10:00.003Z</time></trkpt><trkpt lat="38.06434100985376" lon="13.360272225102385"><ele>653.0</ele><time>2026-04-26T09:10:01.003Z</time></trkpt><trkpt lat="38.064313962451436" lon="13.360384241919345"><ele>653.0</ele><time>2026-04-26T09:10:02.003Z</time></trkpt><trkpt lat="38.064283063253306" lon="13.360485265342612"><ele>653.0</ele><time>2026-04-26T09:10:03.003Z</time></trkpt><trkpt lat="38.06425164871736" lon="13.360585752270449"><ele>653.0</ele><time>2026-04-26T09:10:04Z</time></trkpt><trkpt lat="38.06422102119741" lon="13.36069004636072"><ele>653.0</ele><time>2026-04-26T09:10:05Z</time></trkpt><trkpt lat="38.06421361324506" lon="13.360774909484453"><ele>653.0</ele><time>2026-04-26T09:10:06Z</time></trkpt><trkpt lat="38.06420650680098" lon="13.360872502269302"><ele>653.0</ele><time>2026-04-26T09:10:07Z</time></trkpt><trkpt lat="38.06422227008293" lon="13.361021735629361"><ele>653.8</ele><time>2026-04-26T09:10:09Z</time></trkpt><trkpt lat="38.06422721312067" lon="13.361121395005842"><ele>654.5999999999999</ele><time>2026-04-26T09:10:10Z</time></trkpt><trkpt lat="38.06421541761014" lon="13.361237563498543"><ele>655.4000000000001</ele><time>2026-04-26T09:10:12Z</time></trkpt><trkpt lat="38.06421497220567" lon="13.361337799224696"><ele>656.2</ele><time>2026-04-26T09:10:20Z</time></trkpt><trkpt lat="38.06417028966337" lon="13.361416618051422"><ele>657.0</ele><time>2026-04-26T09:10:22Z</time></trkpt><trkpt lat="38.06407291595068" lon="13.361519460191976"><ele>657.0</ele><time>2026-04-26T09:10:24Z</time></trkpt><trkpt lat="38.064010753375086" lon="13.361574072161494"><ele>657.0</ele><time>2026-04-26T09:10:25Z</time></trkpt><trkpt lat="38.06393295686473" lon="13.36164179035371"><ele>657.0</ele><time>2026-04-26T09:10:26Z</time></trkpt><trkpt lat="38.063868051147594" lon="13.361704865327733"><ele>657.0</ele><time>2026-04-26T09:10:27Z</time></trkpt><trkpt lat="38.06380086494089" lon="13.361771437217204"><ele>657.0</ele><time>2026-04-26T09:10:28Z</time></trkpt><trkpt lat="38.0637561880149" lon="13.361830937971733"><ele>657.0</ele><time>2026-04-26T09:10:29Z</time></trkpt><trkpt lat="38.06371297003738" lon="13.361904683644676"><ele>657.0</ele><time>2026-04-26T09:10:30Z</time></trkpt><trkpt lat="38.063668641193075" lon="13.362019689868008"><ele>657.0</ele><time>2026-04-26T09:10:32Z</time></trkpt><trkpt lat="38.06360770460591" lon="13.362100764021243"><ele>657.0</ele><time>2026-04-26T09:10:34.001Z</time></trkpt><trkpt lat="38.06356454149762" lon="13.362194809543082"><ele>657.0</ele><time>2026-04-26T09:10:37.001Z</time></trkpt><trkpt lat="38.06349847661996" lon="13.36228044566307"><ele>657.0</ele><time>2026-04-26T09:10:39.001Z</time></trkpt><trkpt lat="38.06344132502846" lon="13.362341698915696"><ele>657.0</ele><time>2026-04-26T09:10:41.001Z</time></trkpt><trkpt lat="38.063365383153226" lon="13.362379188088461"><ele>658.1666666666666</ele><time>2026-04-26T09:10:45.001Z</time></trkpt><trkpt lat="38.0632814071976" lon="13.362446477421"><ele>659.3333333333334</ele><time>2026-04-26T09:10:47.001Z</time></trkpt><trkpt lat="38.063229148937026" lon="13.362536592793013"><ele>660.5</ele><time>2026-04-26T09:10:49.001Z</time></trkpt><trkpt lat="38.063216260739324" lon="13.362638886857328"><ele>661.6666666666667</ele><time>2026-04-26T09:10:51.001Z</time></trkpt><trkpt lat="38.06319705896036" lon="13.362736579220778"><ele>662.8333333333334</ele><time>2026-04-26T09:10:54.001Z</time></trkpt><trkpt lat="38.063182543256325" lon="13.362820223919716"><ele>664.0</ele><time>2026-04-26T09:10:56.001Z</time></trkpt><trkpt lat="38.063141324668855" lon="13.362921726960199"><ele>664.0</ele><time>2026-04-26T09:11:06.001Z</time></trkpt><trkpt lat="38.06311438013935" lon="13.36301325739114"><ele>664.0</ele><time>2026-04-26T09:11:09.002Z</time></trkpt><trkpt lat="38.06309347027745" lon="13.363105122536318"><ele>664.0</ele><time>2026-04-26T09:11:27.002Z</time></trkpt><trkpt lat="38.063078264614674" lon="13.363206473966452"><ele>664.0</ele><time>2026-04-26T09:11:33.002Z</time></trkpt><trkpt lat="38.06306960660765" lon="13.363295536044754"><ele>664.0</ele><time>2026-04-26T09:11:36.002Z</time></trkpt><trkpt lat="38.06304634715124" lon="13.363397119267763"><ele>664.0</ele><time>2026-04-26T09:11:39.002Z</time></trkpt><trkpt lat="38.06300156179302" lon="13.36348811431508"><ele>664.5</ele><time>2026-04-26T09:11:42.003Z</time></trkpt><trkpt lat="38.06295485673198" lon="13.363549781782584"><ele>665.0</ele><time>2026-04-26T09:11:45.003Z</time></trkpt><trkpt lat="38.06293679137551" lon="13.363636432788798"><ele>665.5</ele><time>2026-04-26T09:12:05.003Z</time></trkpt><trkpt lat="38.062950661476506" lon="13.363722843545213"><ele>666.0</ele><time>2026-04-26T09:12:07.003Z</time></trkpt><trkpt lat="38.06293039970759" lon="13.363829786043619"><ele>666.5</ele><time>2026-04-26T09:12:10Z</time></trkpt><trkpt lat="38.06292138980782" lon="13.363928678565184"><ele>667.0</ele><time>2026-04-26T09:12:12Z</time></trkpt><trkpt lat="38.06293997839183" lon="13.364066707528949"><ele>667.0</ele><time>2026-04-26T09:12:14Z</time></trkpt><trkpt lat="38.06298102067641" lon="13.364191614165978"><ele>667.0</ele><time>2026-04-26T09:12:16Z</time></trkpt><trkpt lat="38.06300484937324" lon="13.364266985337352"><ele>667.0</ele><time>2026-04-26T09:12:18Z</time></trkpt><trkpt lat="38.06302212545834" lon="13.364398412829493"><ele>667.0</ele><time>2026-04-26T09:12:21Z</time></trkpt><trkpt lat="38.06305502164643" lon="13.36448720878003"><ele>667.0</ele><time>2026-04-26T09:12:23Z</time></trkpt><trkpt lat="38.06306319962455" lon="13.364612235547112"><ele>668.1666666666667</ele><time>2026-04-26T09:12:25Z</time></trkpt><trkpt lat="38.06307537798451" lon="13.364725908895698"><ele>669.3333333333334</ele><time>2026-04-26T09:12:27Z</time></trkpt><trkpt lat="38.06312186398381" lon="13.36480924859721"><ele>670.5</ele><time>2026-04-26T09:12:29Z</time></trkpt><trkpt lat="38.06316038625958" lon="13.364913583646263"><ele>671.6666666666666</ele><time>2026-04-26T09:12:31Z</time></trkpt><trkpt lat="38.06320967356725" lon="13.365033481152194"><ele>672.8333333333333</ele><time>2026-04-26T09:12:33Z</time></trkpt><trkpt lat="38.063186880272276" lon="13.365128941698059"><ele>674.0</ele><time>2026-04-26T09:12:35Z</time></trkpt><trkpt lat="38.06314657056446" lon="13.365207235584124"><ele>674.0</ele><time>2026-04-26T09:12:36Z</time></trkpt><trkpt lat="38.06310511824741" lon="13.365280967496744"><ele>674.0</ele><time>2026-04-26T09:12:37Z</time></trkpt><trkpt lat="38.063058682942" lon="13.365367141714522"><ele>674.0</ele><time>2026-04-26T09:12:38Z</time></trkpt><trkpt lat="38.06301760553318" lon="13.365450862206451"><ele>674.0</ele><time>2026-04-26T09:12:39Z</time></trkpt><trkpt lat="38.0629937988656" lon="13.365546417637484"><ele>674.0</ele><time>2026-04-26T09:12:40Z</time></trkpt><trkpt lat="38.06296904514579" lon="13.365645960923036"><ele>674.0</ele><time>2026-04-26T09:12:41Z</time></trkpt><trkpt lat="38.06293647274792" lon="13.365755528650508"><ele>675.8333333333333</ele><time>2026-04-26T09:12:42Z</time></trkpt><trkpt lat="38.06292208302534" lon="13.365877685768995"><ele>677.6666666666666</ele><time>2026-04-26T09:12:43Z</time></trkpt><trkpt lat="38.06289677487696" lon="13.366010497456427"><ele>679.5</ele><time>2026-04-26T09:12:44Z</time></trkpt><trkpt lat="38.06288132182747" lon="13.366111767746654"><ele>681.3333333333334</ele><time>2026-04-26T09:12:45Z</time></trkpt><trkpt lat="38.06287246257981" lon="13.3662138675317"><ele>683.1666666666667</ele><time>2026-04-26T09:12:46Z</time></trkpt><trkpt lat="38.06285966026166" lon="13.366313038762181"><ele>685.0</ele><time>2026-04-26T09:12:47Z</time></trkpt><trkpt lat="38.0628618513528" lon="13.366441668424148"><ele>685.0</ele><time>2026-04-26T09:12:49.001Z</time></trkpt><trkpt lat="38.06287850162765" lon="13.366571910680197"><ele>685.0</ele><time>2026-04-26T09:12:51.001Z</time></trkpt><trkpt lat="38.06291269194238" lon="13.366687959621878"><ele>685.0</ele><time>2026-04-26T09:12:53.001Z</time></trkpt><trkpt lat="38.06293239455535" lon="13.36677029383781"><ele>685.0</ele><time>2026-04-26T09:12:56.001Z</time></trkpt><trkpt lat="38.062946787075205" lon="13.366862720841645"><ele>685.0</ele><time>2026-04-26T09:13:00.001Z</time></trkpt><trkpt lat="38.062937301902714" lon="13.366955704886072"><ele>685.0</ele><time>2026-04-26T09:13:04.001Z</time></trkpt><trkpt lat="38.06293295140608" lon="13.367053302603491"><ele>685.0</ele><time>2026-04-26T09:13:07.001Z</time></trkpt><trkpt lat="38.06291793923421" lon="13.367153862499089"><ele>685.0</ele><time>2026-04-26T09:13:10.001Z</time></trkpt><trkpt lat="38.06290310148216" lon="13.367251330999633"><ele>685.0</ele><time>2026-04-26T09:13:13.001Z</time></trkpt><trkpt lat="38.06289217687967" lon="13.36734758143056"><ele>685.0</ele><time>2026-04-26T09:13:16.001Z</time></trkpt><trkpt lat="38.062869765223134" lon="13.367431687576182"><ele>685.0</ele><time>2026-04-26T09:13:20.002Z</time></trkpt><trkpt lat="38.062831344004344" lon="13.367501740293989"><ele>685.0</ele><time>2026-04-26T09:13:23.002Z</time></trkpt><trkpt lat="38.06277020656496" lon="13.367586722377718"><ele>681.5</ele><time>2026-04-26T09:13:27.002Z</time></trkpt><trkpt lat="38.06278535376957" lon="13.36768269295033"><ele>678.0</ele><time>2026-04-26T09:13:31.002Z</time></trkpt><trkpt lat="38.062801648910536" lon="13.36779736563964"><ele>674.5</ele><time>2026-04-26T09:13:34.002Z</time></trkpt><trkpt lat="38.06279855185309" lon="13.367893075375534"><ele>671.0</ele><time>2026-04-26T09:13:36.002Z</time></trkpt><trkpt lat="38.06276459597881" lon="13.368003819221109"><ele>667.5</ele><time>2026-04-26T09:13:38.002Z</time></trkpt><trkpt lat="38.06273101422168" lon="13.368101399152396"><ele>664.0</ele><time>2026-04-26T09:13:41.002Z</time></trkpt><trkpt lat="38.06270103738287" lon="13.368190290213326"><ele>660.0</ele><time>2026-04-26T09:13:44.002Z</time></trkpt><trkpt lat="38.06267464403663" lon="13.368269379168668"><ele>656.0</ele><time>2026-04-26T09:13:47.002Z</time></trkpt><trkpt lat="38.0626507434061" lon="13.36836622080171"><ele>652.0</ele><time>2026-04-26T09:13:50.002Z</time></trkpt><trkpt lat="38.06264059636903" lon="13.368447838304771"><ele>648.0</ele><time>2026-04-26T09:14:03.003Z</time></trkpt><trkpt lat="38.06261483782751" lon="13.368562804578133"><ele>644.0</ele><time>2026-04-26T09:14:07.003Z</time></trkpt><trkpt lat="38.06258787237047" lon="13.368648380974166"><ele>640.0</ele><time>2026-04-26T09:14:12.003Z</time></trkpt><trkpt lat="38.062570787053936" lon="13.36874287452264"><ele>636.4285714285714</ele><time>2026-04-26T09:14:15.003Z</time></trkpt><trkpt lat="38.062522335063655" lon="13.368865062022174"><ele>632.8571428571429</ele><time>2026-04-26T09:14:19.999Z</time></trkpt><trkpt lat="38.062493447507656" lon="13.368951264893395"><ele>629.2857142857142</ele><time>2026-04-26T09:14:23.999Z</time></trkpt><trkpt lat="38.06246981685636" lon="13.369029253525971"><ele>625.7142857142858</ele><time>2026-04-26T09:14:28Z</time></trkpt><trkpt lat="38.06242467671411" lon="13.369092359026954"><ele>622.1428571428572</ele><time>2026-04-26T09:14:31Z</time></trkpt><trkpt lat="38.06240173087735" lon="13.369177829494054"><ele>618.5714285714286</ele><time>2026-04-26T09:14:34Z</time></trkpt><trkpt lat="38.06238787298305" lon="13.369256345850319"><ele>615.0</ele><time>2026-04-26T09:14:36Z</time></trkpt><trkpt lat="38.06235563245624" lon="13.369350734132052"><ele>614.8333333333334</ele><time>2026-04-26T09:14:40Z</time></trkpt><trkpt lat="38.062334349358906" lon="13.369447194930515"><ele>614.6666666666666</ele><time>2026-04-26T09:14:44Z</time></trkpt><trkpt lat="38.062323807136195" lon="13.36954439479997"><ele>614.5</ele><time>2026-04-26T09:14:48Z</time></trkpt><trkpt lat="38.06233447270288" lon="13.36966259553207"><ele>614.3333333333333</ele><time>2026-04-26T09:14:53.001Z</time></trkpt><trkpt lat="38.062310416342555" lon="13.369752642713204"><ele>614.1666666666666</ele><time>2026-04-26T09:14:56.001Z</time></trkpt><trkpt lat="38.062286235404024" lon="13.36982809134479"><ele>614.0</ele><time>2026-04-26T09:15:00.001Z</time></trkpt><trkpt lat="38.06228804843036" lon="13.369935835362128"><ele>610.8333333333333</ele><time>2026-04-26T09:15:10.001Z</time></trkpt><trkpt lat="38.062293048324605" lon="13.370034856308605"><ele>607.6666666666666</ele><time>2026-04-26T09:15:13.001Z</time></trkpt><trkpt lat="38.06226744158042" lon="13.370123404262536"><ele>604.5</ele><time>2026-04-26T09:15:17.001Z</time></trkpt><trkpt lat="38.06227927598482" lon="13.370219507344597"><ele>601.3333333333334</ele><time>2026-04-26T09:15:20.001Z</time></trkpt><trkpt lat="38.06227830116785" lon="13.370325962570213"><ele>598.1666666666667</ele><time>2026-04-26T09:15:23.002Z</time></trkpt><trkpt lat="38.06228318542151" lon="13.370423424488278"><ele>595.0</ele><time>2026-04-26T09:15:26.002Z</time></trkpt><trkpt lat="38.06227409106766" lon="13.370514582909413"><ele>592.0</ele><time>2026-04-26T09:15:29.002Z</time></trkpt><trkpt lat="38.06228292294587" lon="13.37061737310679"><ele>589.0</ele><time>2026-04-26T09:15:35.002Z</time></trkpt><trkpt lat="38.06225620334185" lon="13.370740171892948"><ele>586.0</ele><time>2026-04-26T09:15:39.002Z</time></trkpt><trkpt lat="38.06224119974012" lon="13.370829820943426"><ele>583.0</ele><time>2026-04-26T09:15:41.002Z</time></trkpt><trkpt lat="38.06223584744323" lon="13.370939379434768"><ele>580.0</ele><time>2026-04-26T09:15:45.002Z</time></trkpt><trkpt lat="38.062258617010244" lon="13.371036589896296"><ele>577.0</ele><time>2026-04-26T09:15:48.002Z</time></trkpt><trkpt lat="38.06226168870008" lon="13.371134972062075"><ele>577.0</ele><time>2026-04-26T09:15:50.002Z</time></trkpt><trkpt lat="38.06227740061462" lon="13.371221921702084"><ele>577.0</ele><time>2026-04-26T09:15:53.002Z</time></trkpt><trkpt lat="38.06227789007977" lon="13.371317744806984"><ele>577.0</ele><time>2026-04-26T09:15:59.003Z</time></trkpt><trkpt lat="38.06226176496199" lon="13.371411259269257"><ele>577.0</ele><time>2026-04-26T09:16:03.003Z</time></trkpt><trkpt lat="38.062229376386995" lon="13.371513346357888"><ele>577.0</ele><time>2026-04-26T09:16:06.003Z</time></trkpt><trkpt lat="38.062278842934916" lon="13.371616444818722"><ele>577.0</ele><time>2026-04-26T09:16:12.003Z</time></trkpt><trkpt lat="38.06230202356444" lon="13.371699578682165"><ele>574.5</ele><time>2026-04-26T09:16:15.003Z</time></trkpt><trkpt lat="38.062309676865915" lon="13.371802052136417"><ele>572.0</ele><time>2026-04-26T09:16:18.003Z</time></trkpt><trkpt lat="38.06230237753668" lon="13.37189819554771"><ele>569.5</ele><time>2026-04-26T09:16:23.999Z</time></trkpt><trkpt lat="38.062310013776695" lon="13.37197768878387"><ele>567.0</ele><time>2026-04-26T09:16:56.001Z</time></trkpt><trkpt lat="38.06234144719851" lon="13.372072213315121"><ele>564.5</ele><time>2026-04-26T09:16:59.001Z</time></trkpt><trkpt lat="38.062360650606976" lon="13.372175203821111"><ele>562.0</ele><time>2026-04-26T09:17:02.001Z</time></trkpt><trkpt lat="38.06237655886026" lon="13.372278409380163"><ele>560.8333333333334</ele><time>2026-04-26T09:17:05.001Z</time></trkpt><trkpt lat="38.06237971734224" lon="13.372371518764648"><ele>559.6666666666667</ele><time>2026-04-26T09:17:07.001Z</time></trkpt><trkpt lat="38.062415083481596" lon="13.37246145117453"><ele>558.5</ele><time>2026-04-26T09:17:10.001Z</time></trkpt><trkpt lat="38.062440016524526" lon="13.372536092082255"><ele>557.3333333333334</ele><time>2026-04-26T09:17:47.002Z</time></trkpt><trkpt lat="38.06246125240261" lon="13.372631801327524"><ele>556.1666666666666</ele><time>2026-04-26T09:18:16.003Z</time></trkpt><trkpt lat="38.062482089551374" lon="13.372738858216993"><ele>555.0</ele><time>2026-04-26T09:18:20.003Z</time></trkpt><trkpt lat="38.06251860179385" lon="13.372829424013371"><ele>551.5</ele><time>2026-04-26T09:18:24.003Z</time></trkpt><trkpt lat="38.062553400222605" lon="13.372926620447611"><ele>548.0</ele><time>2026-04-26T09:18:27.003Z</time></trkpt><trkpt lat="38.062581792762444" lon="13.373015395683092"><ele>544.5</ele><time>2026-04-26T09:18:30Z</time></trkpt><trkpt lat="38.062604372762614" lon="13.373117241186648"><ele>541.0</ele><time>2026-04-26T09:18:32Z</time></trkpt><trkpt lat="38.062636363243485" lon="13.373205240168884"><ele>537.5</ele><time>2026-04-26T09:18:34Z</time></trkpt><trkpt lat="38.06268249015652" lon="13.373274883277128"><ele>534.0</ele><time>2026-04-26T09:18:36Z</time></trkpt><trkpt lat="38.06274286154139" lon="13.373348158542312"><ele>531.8571428571429</ele><time>2026-04-26T09:18:40Z</time></trkpt><trkpt lat="38.06278808356208" lon="13.37341270850919"><ele>529.7142857142858</ele><time>2026-04-26T09:18:46Z</time></trkpt><trkpt lat="38.06282167780041" lon="13.373490244241358"><ele>527.5714285714286</ele><time>2026-04-26T09:18:48Z</time></trkpt><trkpt lat="38.06288452293416" lon="13.373536513157253"><ele>525.4285714285714</ele><time>2026-04-26T09:18:51Z</time></trkpt><trkpt lat="38.06295885243559" lon="13.373592860532074"><ele>523.2857142857142</ele><time>2026-04-26T09:18:54Z</time></trkpt><trkpt lat="38.06298850351291" lon="13.37366560819507"><ele>521.1428571428571</ele><time>2026-04-26T09:18:56Z</time></trkpt><trkpt lat="38.0630398307886" lon="13.37375577013295"><ele>519.0</ele><time>2026-04-26T09:18:58Z</time></trkpt><trkpt lat="38.063127269436784" lon="13.373859634673346"><ele>519.0</ele><time>2026-04-26T09:19:00.001Z</time></trkpt><trkpt lat="38.0631811059281" lon="13.373916399489103"><ele>519.0</ele><time>2026-04-26T09:19:01.001Z</time></trkpt><trkpt lat="38.06326767856873" lon="13.374013196083583"><ele>519.0</ele><time>2026-04-26T09:19:03.001Z</time></trkpt><trkpt lat="38.063314773989994" lon="13.37406841779057"><ele>519.0</ele><time>2026-04-26T09:19:04.001Z</time></trkpt><trkpt lat="38.06335617099476" lon="13.374173919347058"><ele>519.0</ele><time>2026-04-26T09:19:06.001Z</time></trkpt><trkpt lat="38.063368694007806" lon="13.374256325061689"><ele>519.0</ele><time>2026-04-26T09:19:09.001Z</time></trkpt><trkpt lat="38.063449827419724" lon="13.374233519842724"><ele>513.8333333333334</ele><time>2026-04-26T09:19:35.002Z</time></trkpt><trkpt lat="38.06350754854753" lon="13.374187555123543"><ele>508.66666666666663</ele><time>2026-04-26T09:19:36.002Z</time></trkpt><trkpt lat="38.06362534379741" lon="13.374148605049292"><ele>503.5</ele><time>2026-04-26T09:19:38.002Z</time></trkpt><trkpt lat="38.06369106289677" lon="13.374140416138442"><ele>498.3333333333333</ele><time>2026-04-26T09:19:39.002Z</time></trkpt><trkpt lat="38.06375817713515" lon="13.374127397106006"><ele>493.16666666666663</ele><time>2026-04-26T09:19:40.002Z</time></trkpt><trkpt lat="38.06381999100362" lon="13.374111865933607"><ele>488.0</ele><time>2026-04-26T09:19:41.002Z</time></trkpt><trkpt lat="38.063926417334095" lon="13.374061289948424"><ele>488.0</ele><time>2026-04-26T09:19:43.002Z</time></trkpt><trkpt lat="38.0640465317129" lon="13.374015627184917"><ele>488.0</ele><time>2026-04-26T09:19:45.002Z</time></trkpt><trkpt lat="38.06415710724582" lon="13.373955357937474"><ele>488.0</ele><time>2026-04-26T09:19:47.002Z</time></trkpt><trkpt lat="38.06423512135306" lon="13.373868826767033"><ele>488.0</ele><time>2026-04-26T09:19:49.002Z</time></trkpt><trkpt lat="38.06432643960709" lon="13.373783704010478"><ele>488.4</ele><time>2026-04-26T09:19:51.002Z</time></trkpt><trkpt lat="38.0644256742132" lon="13.373713299143468"><ele>488.79999999999995</ele><time>2026-04-26T09:19:53.002Z</time></trkpt><trkpt lat="38.06448736627071" lon="13.373663603743088"><ele>489.2</ele><time>2026-04-26T09:19:54.002Z</time></trkpt><trkpt lat="38.064581650528424" lon="13.373592863319404"><ele>489.6</ele><time>2026-04-26T09:19:56.002Z</time></trkpt><trkpt lat="38.06464248611158" lon="13.373532807501295"><ele>490.0</ele><time>2026-04-26T09:19:57.002Z</time></trkpt><trkpt lat="38.064742460663865" lon="13.373451291282043"><ele>490.0</ele><time>2026-04-26T09:19:59.002Z</time></trkpt><trkpt lat="38.0647970064923" lon="13.373409334767985"><ele>490.0</ele><time>2026-04-26T09:20:00.002Z</time></trkpt><trkpt lat="38.064885625846" lon="13.373332489129332"><ele>490.0</ele><time>2026-04-26T09:20:02.002Z</time></trkpt><trkpt lat="38.06498424534802" lon="13.373269505418248"><ele>490.0</ele><time>2026-04-26T09:20:04.003Z</time></trkpt><trkpt lat="38.06507169029789" lon="13.373223787387621"><ele>490.0</ele><time>2026-04-26T09:20:06.003Z</time></trkpt><trkpt lat="38.065155639469104" lon="13.373182829152597"><ele>488.4</ele><time>2026-04-26T09:20:08.003Z</time></trkpt><trkpt lat="38.06523576126495" lon="13.37311248707948"><ele>486.8</ele><time>2026-04-26T09:20:10.003Z</time></trkpt><trkpt lat="38.065332866961796" lon="13.373039941265622"><ele>485.20000000000005</ele><time>2026-04-26T09:20:12.003Z</time></trkpt><trkpt lat="38.065413046088814" lon="13.372993255839868"><ele>483.6</ele><time>2026-04-26T09:20:14.003Z</time></trkpt><trkpt lat="38.065486333897546" lon="13.372949077126956"><ele>482.0</ele><time>2026-04-26T09:20:17.003Z</time></trkpt><trkpt lat="38.06556543231823" lon="13.372924535297658"><ele>482.0</ele><time>2026-04-26T09:20:20.003Z</time></trkpt><trkpt lat="38.06562492043544" lon="13.372886910789925"><ele>482.00000000000006</ele><time>2026-04-26T09:20:22.003Z</time></trkpt><trkpt lat="38.0656888830435" lon="13.372878652212345"><ele>482.0</ele><time>2026-04-26T09:20:25.003Z</time></trkpt><trkpt lat="38.065752418331584" lon="13.372859147272537"><ele>482.0</ele><time>2026-04-26T09:20:28.003Z</time></trkpt><trkpt lat="38.06581828502168" lon="13.372809069967186"><ele>482.00000000000006</ele><time>2026-04-26T09:20:31.003Z</time></trkpt><trkpt lat="38.06588993123582" lon="13.372780970451885"><ele>482.0</ele><time>2026-04-26T09:20:34Z</time></trkpt><trkpt lat="38.06595671685113" lon="13.372746082204992"><ele>482.0</ele><time>2026-04-26T09:20:38Z</time></trkpt><trkpt lat="38.06602506058577" lon="13.372725730146664"><ele>476.42857142857144</ele><time>2026-04-26T09:20:41Z</time></trkpt><trkpt lat="38.06608328707608" lon="13.372688146711416"><ele>470.8571428571429</ele><time>2026-04-26T09:20:45Z</time></trkpt><trkpt lat="38.06616952678345" lon="13.372662736614743"><ele>465.28571428571433</ele><time>2026-04-26T09:20:48Z</time></trkpt><trkpt lat="38.066234749306155" lon="13.37263490112484"><ele>459.7142857142857</ele><time>2026-04-26T09:20:52Z</time></trkpt><trkpt lat="38.0663043369411" lon="13.372597464096593"><ele>454.14285714285717</ele><time>2026-04-26T09:20:56Z</time></trkpt><trkpt lat="38.06636345822616" lon="13.3725507831166"><ele>448.57142857142856</ele><time>2026-04-26T09:20:59Z</time></trkpt><trkpt lat="38.0664184179169" lon="13.372481971760779"><ele>443.0</ele><time>2026-04-26T09:21:03Z</time></trkpt><trkpt lat="38.066472071608565" lon="13.372531133550515"><ele>443.0</ele><time>2026-04-26T09:21:12.001Z</time></trkpt><trkpt lat="38.066438229615095" lon="13.372623912435527"><ele>443.0</ele><time>2026-04-26T09:21:15.001Z</time></trkpt><trkpt lat="38.066397196433016" lon="13.372697157902069"><ele>443.0</ele><time>2026-04-26T09:21:17.001Z</time></trkpt><trkpt lat="38.06645959103225" lon="13.3727471962581"><ele>443.0</ele><time>2026-04-26T09:21:23.001Z</time></trkpt><trkpt lat="38.06652208807278" lon="13.372687137543183"><ele>443.0</ele><time>2026-04-26T09:21:25.001Z</time></trkpt><trkpt lat="38.066575269498834" lon="13.372635527259154"><ele>443.0</ele><time>2026-04-26T09:21:27.001Z</time></trkpt><trkpt lat="38.06663896659518" lon="13.372599596948916"><ele>443.0</ele><time>2026-04-26T09:21:29.001Z</time></trkpt><trkpt lat="38.066701328181615" lon="13.372523618784907"><ele>435.66666666666663</ele><time>2026-04-26T09:21:32.001Z</time></trkpt><trkpt lat="38.06677228556828" lon="13.372471533478034"><ele>428.3333333333333</ele><time>2026-04-26T09:21:34.001Z</time></trkpt><trkpt lat="38.06682714172387" lon="13.37241941339203"><ele>421.0</ele><time>2026-04-26T09:21:37.002Z</time></trkpt><trkpt lat="38.06689647305985" lon="13.37234763442888"><ele>413.66666666666663</ele><time>2026-04-26T09:21:40.002Z</time></trkpt><trkpt lat="38.06696152079226" lon="13.372332131284498"><ele>406.3333333333333</ele><time>2026-04-26T09:21:43.002Z</time></trkpt><trkpt lat="38.06703235190276" lon="13.372291748818668"><ele>399.0</ele><time>2026-04-26T09:21:46.002Z</time></trkpt><trkpt lat="38.06708551231362" lon="13.372234543663607"><ele>402.5</ele><time>2026-04-26T09:21:48.002Z</time></trkpt><trkpt lat="38.06713921429474" lon="13.372155904482252"><ele>406.0</ele><time>2026-04-26T09:21:50.002Z</time></trkpt><trkpt lat="38.06716610514911" lon="13.372072953553918"><ele>409.5</ele><time>2026-04-26T09:21:52.002Z</time></trkpt><trkpt lat="38.0672338556117" lon="13.371978012161415"><ele>413.0</ele><time>2026-04-26T09:21:54.002Z</time></trkpt><trkpt lat="38.06728007386986" lon="13.371913713865004"><ele>416.5</ele><time>2026-04-26T09:21:56.002Z</time></trkpt><trkpt lat="38.06735199986824" lon="13.371832382449089"><ele>420.0</ele><time>2026-04-26T09:21:58.002Z</time></trkpt><trkpt lat="38.067431227315616" lon="13.371734733035547"><ele>416.0</ele><time>2026-04-26T09:22:00.002Z</time></trkpt><trkpt lat="38.06751022678321" lon="13.371670282195177"><ele>412.0</ele><time>2026-04-26T09:22:02.002Z</time></trkpt><trkpt lat="38.06756270739635" lon="13.371616539403723"><ele>408.0</ele><time>2026-04-26T09:22:04.002Z</time></trkpt><trkpt lat="38.06763936161023" lon="13.37155829588335"><ele>404.0</ele><time>2026-04-26T09:22:06.002Z</time></trkpt><trkpt lat="38.067708425034496" lon="13.37150005493565"><ele>400.0</ele><time>2026-04-26T09:22:08.002Z</time></trkpt><trkpt lat="38.067758497193786" lon="13.37143145456999"><ele>396.0</ele><time>2026-04-26T09:22:10.003Z</time></trkpt><trkpt lat="38.067821690573645" lon="13.371352574316763"><ele>396.0</ele><time>2026-04-26T09:22:12.003Z</time></trkpt><trkpt lat="38.067894100807834" lon="13.371280966098361"><ele>396.0</ele><time>2026-04-26T09:22:14.003Z</time></trkpt><trkpt lat="38.06798024936239" lon="13.371233628995366"><ele>396.0</ele><time>2026-04-26T09:22:16.003Z</time></trkpt><trkpt lat="38.06805506125439" lon="13.371149418201279"><ele>396.0</ele><time>2026-04-26T09:22:18.003Z</time></trkpt><trkpt lat="38.06810997295752" lon="13.371035811316387"><ele>396.0</ele><time>2026-04-26T09:22:20.003Z</time></trkpt><trkpt lat="38.068157974161885" lon="13.370933320710137"><ele>396.0</ele><time>2026-04-26T09:22:22.003Z</time></trkpt><trkpt lat="38.068247581287025" lon="13.370812012075213"><ele>396.0</ele><time>2026-04-26T09:22:24.003Z</time></trkpt><trkpt lat="38.068300946677354" lon="13.370753395513628"><ele>396.0</ele><time>2026-04-26T09:22:25.003Z</time></trkpt><trkpt lat="38.068345687394256" lon="13.370696039653025"><ele>396.0</ele><time>2026-04-26T09:22:26.003Z</time></trkpt><trkpt lat="38.0683984774425" lon="13.370576263862937"><ele>396.0</ele><time>2026-04-26T09:22:28.003Z</time></trkpt><trkpt lat="38.06840973191555" lon="13.370463757650349"><ele>390.6</ele><time>2026-04-26T09:22:30.003Z</time></trkpt><trkpt lat="38.068474044122084" lon="13.370430401136632"><ele>385.20000000000005</ele><time>2026-04-26T09:22:33.003Z</time></trkpt><trkpt lat="38.0684867382534" lon="13.370553911147278"><ele>379.79999999999995</ele><time>2026-04-26T09:22:36.003Z</time></trkpt><trkpt lat="38.06845244453915" lon="13.370667232695713"><ele>374.4</ele><time>2026-04-26T09:22:38.003Z</time></trkpt><trkpt lat="38.06843075558564" lon="13.37080048379421"><ele>369.0</ele><time>2026-04-26T09:22:39.999Z</time></trkpt><trkpt lat="38.06837714160425" lon="13.370934886081503"><ele>364.4</ele><time>2026-04-26T09:22:41.999Z</time></trkpt><trkpt lat="38.06835145398356" lon="13.3710671946395"><ele>359.79999999999995</ele><time>2026-04-26T09:22:44Z</time></trkpt><trkpt lat="38.06834069761015" lon="13.371153506268667"><ele>355.20000000000005</ele><time>2026-04-26T09:22:45Z</time></trkpt><trkpt lat="38.06832513013507" lon="13.371273196724426"><ele>350.6</ele><time>2026-04-26T09:22:47Z</time></trkpt><trkpt lat="38.06830565749422" lon="13.371389941243555"><ele>346.0</ele><time>2026-04-26T09:22:49Z</time></trkpt><trkpt lat="38.06832014272601" lon="13.37149616982539"><ele>346.0</ele><time>2026-04-26T09:22:51Z</time></trkpt><trkpt lat="38.06841869169672" lon="13.371523638192244"><ele>346.0</ele><time>2026-04-26T09:22:53Z</time></trkpt><trkpt lat="38.068489090318515" lon="13.37142702283069"><ele>346.0</ele><time>2026-04-26T09:22:55Z</time></trkpt><trkpt lat="38.06850894562777" lon="13.37128280830276"><ele>346.0</ele><time>2026-04-26T09:22:57Z</time></trkpt><trkpt lat="38.068527751749166" lon="13.37116838776848"><ele>346.0</ele><time>2026-04-26T09:22:59Z</time></trkpt><trkpt lat="38.06858551477857" lon="13.371087986627934"><ele>346.0</ele><time>2026-04-26T09:23:01Z</time></trkpt><trkpt lat="38.06863539688055" lon="13.371007932688526"><ele>346.0</ele><time>2026-04-26T09:23:03Z</time></trkpt><trkpt lat="38.068706925570844" lon="13.370915383385933"><ele>346.0</ele><time>2026-04-26T09:23:05Z</time></trkpt><trkpt lat="38.06875246077822" lon="13.370846294708064"><ele>346.0</ele><time>2026-04-26T09:23:07Z</time></trkpt><trkpt lat="38.06880974080302" lon="13.37076329911814"><ele>346.0</ele><time>2026-04-26T09:23:09Z</time></trkpt><trkpt lat="38.06887641486455" lon="13.37065403807234"><ele>346.0</ele><time>2026-04-26T09:23:11Z</time></trkpt><trkpt lat="38.06893124410924" lon="13.370531884922404"><ele>346.0</ele><time>2026-04-26T09:23:13Z</time></trkpt><trkpt lat="38.068971066395385" lon="13.37040907057202"><ele>346.0</ele><time>2026-04-26T09:23:15.001Z</time></trkpt><trkpt lat="38.068988481507766" lon="13.370300284864827"><ele>346.0</ele><time>2026-04-26T09:23:17.001Z</time></trkpt><trkpt lat="38.069040343316374" lon="13.370242417401549"><ele>346.0</ele><time>2026-04-26T09:23:19.001Z</time></trkpt><trkpt lat="38.06907492460342" lon="13.370330360301447"><ele>346.0</ele><time>2026-04-26T09:23:21.001Z</time></trkpt><trkpt lat="38.069044714706045" lon="13.37045818549157"><ele>346.0</ele><time>2026-04-26T09:23:23.001Z</time></trkpt><trkpt lat="38.06902205034725" lon="13.370622098251996"><ele>346.0</ele><time>2026-04-26T09:23:25.001Z</time></trkpt><trkpt lat="38.06902567474123" lon="13.370721385035854"><ele>346.0</ele><time>2026-04-26T09:23:26.001Z</time></trkpt><trkpt lat="38.069036864624515" lon="13.370820891029796"><ele>346.0</ele><time>2026-04-26T09:23:27.001Z</time></trkpt><trkpt lat="38.0690521909849" lon="13.370923419380686"><ele>346.0</ele><time>2026-04-26T09:23:28.001Z</time></trkpt><trkpt lat="38.06905867464062" lon="13.371061461805292"><ele>346.0</ele><time>2026-04-26T09:23:30.001Z</time></trkpt><trkpt lat="38.069123770485746" lon="13.371162331502555"><ele>337.6</ele><time>2026-04-26T09:23:33.001Z</time></trkpt><trkpt lat="38.0692287307958" lon="13.371133722430582"><ele>329.20000000000005</ele><time>2026-04-26T09:23:35.001Z</time></trkpt><trkpt lat="38.06929950753759" lon="13.37104298348678"><ele>320.79999999999995</ele><time>2026-04-26T09:23:37.001Z</time></trkpt><trkpt lat="38.06936249132346" lon="13.370979549080198"><ele>312.4</ele><time>2026-04-26T09:23:39.001Z</time></trkpt><trkpt lat="38.069462184130714" lon="13.370927783222996"><ele>304.0</ele><time>2026-04-26T09:23:42.001Z</time></trkpt><trkpt lat="38.069531949065045" lon="13.370898208699295"><ele>304.0</ele><time>2026-04-26T09:23:44.001Z</time></trkpt><trkpt lat="38.06960281565157" lon="13.370856399227389"><ele>304.0</ele><time>2026-04-26T09:23:46.002Z</time></trkpt><trkpt lat="38.06967502229748" lon="13.370828563093612"><ele>304.0</ele><time>2026-04-26T09:23:48.002Z</time></trkpt><trkpt lat="38.069732121362826" lon="13.370770187760957"><ele>304.0</ele><time>2026-04-26T09:23:50.002Z</time></trkpt><trkpt lat="38.069801541840455" lon="13.370703961050964"><ele>304.0</ele><time>2026-04-26T09:23:52.002Z</time></trkpt><trkpt lat="38.06988848978701" lon="13.370639924934968"><ele>304.0</ele><time>2026-04-26T09:23:54.002Z</time></trkpt><trkpt lat="38.069976884546776" lon="13.370575986078993"><ele>302.4</ele><time>2026-04-26T09:23:57.002Z</time></trkpt><trkpt lat="38.0700862687069" lon="13.370553375115335"><ele>300.79999999999995</ele><time>2026-04-26T09:23:59.002Z</time></trkpt><trkpt lat="38.07018416098085" lon="13.370555527724608"><ele>299.20000000000005</ele><time>2026-04-26T09:24:01.002Z</time></trkpt><trkpt lat="38.070188546754856" lon="13.37045841269849"><ele>297.6</ele><time>2026-04-26T09:24:03.002Z</time></trkpt><trkpt lat="38.07011017649973" lon="13.37042677024655"><ele>296.0</ele><time>2026-04-26T09:24:05.002Z</time></trkpt><trkpt lat="38.070015243715936" lon="13.370444345639116"><ele>299.1666666666667</ele><time>2026-04-26T09:24:07.002Z</time></trkpt><trkpt lat="38.069935703477775" lon="13.370438444189869"><ele>302.33333333333337</ele><time>2026-04-26T09:24:09.002Z</time></trkpt><trkpt lat="38.0698747831389" lon="13.370380812391524"><ele>305.5</ele><time>2026-04-26T09:24:11.002Z</time></trkpt><trkpt lat="38.06994104629091" lon="13.370306927879879"><ele>308.6666666666667</ele><time>2026-04-26T09:24:14.002Z</time></trkpt><trkpt lat="38.070029526319985" lon="13.37027867969677"><ele>311.8333333333333</ele><time>2026-04-26T09:24:16.002Z</time></trkpt><trkpt lat="38.070085821681" lon="13.37024254586046"><ele>315.0</ele><time>2026-04-26T09:24:18.003Z</time></trkpt><trkpt lat="38.070172875471485" lon="13.370200313049452"><ele>307.1666666666667</ele><time>2026-04-26T09:24:21.003Z</time></trkpt><trkpt lat="38.07023027183172" lon="13.370166681778688"><ele>299.3333333333333</ele><time>2026-04-26T09:24:23.003Z</time></trkpt><trkpt lat="38.070293606955445" lon="13.370127927324084"><ele>291.5</ele><time>2026-04-26T09:24:25.003Z</time></trkpt><trkpt lat="38.07035310132904" lon="13.370082251063561"><ele>283.66666666666663</ele><time>2026-04-26T09:24:27.003Z</time></trkpt><trkpt lat="38.070421137232294" lon="13.370046022091925"><ele>275.8333333333333</ele><time>2026-04-26T09:24:30.003Z</time></trkpt><trkpt lat="38.0704974262753" lon="13.36999243703189"><ele>268.0</ele><time>2026-04-26T09:24:33.003Z</time></trkpt><trkpt lat="38.07057774107613" lon="13.369917924264028"><ele>268.0</ele><time>2026-04-26T09:24:37.003Z</time></trkpt><trkpt lat="38.070648485293226" lon="13.369906330537768"><ele>268.0</ele><time>2026-04-26T09:24:39.003Z</time></trkpt><trkpt lat="38.070702952415424" lon="13.369864749446615"><ele>268.0</ele><time>2026-04-26T09:24:53Z</time></trkpt><trkpt lat="38.070778173116" lon="13.369838484994071"><ele>268.0</ele><time>2026-04-26T09:24:57Z</time></trkpt><trkpt lat="38.07086665098259" lon="13.369811300436956"><ele>268.0</ele><time>2026-04-26T09:25:00Z</time></trkpt><trkpt lat="38.07091839747489" lon="13.369755960734905"><ele>268.0</ele><time>2026-04-26T09:25:02Z</time></trkpt><trkpt lat="38.07101466532202" lon="13.3696991399674"><ele>261.16666666666663</ele><time>2026-04-26T09:25:04Z</time></trkpt><trkpt lat="38.0710888489028" lon="13.369662018257944"><ele>254.33333333333331</ele><time>2026-04-26T09:25:05Z</time></trkpt><trkpt lat="38.0711801403056" lon="13.369634036987192"><ele>247.5</ele><time>2026-04-26T09:25:06Z</time></trkpt><trkpt lat="38.07126662515097" lon="13.369618930314918"><ele>240.66666666666669</ele><time>2026-04-26T09:25:07Z</time></trkpt><trkpt lat="38.0713298629881" lon="13.369605955768337"><ele>233.83333333333334</ele><time>2026-04-26T09:25:08Z</time></trkpt><trkpt lat="38.07140286769503" lon="13.369599061799532"><ele>227.0</ele><time>2026-04-26T09:25:09Z</time></trkpt><trkpt lat="38.07150726458913" lon="13.369613114933946"><ele>227.00000000000003</ele><time>2026-04-26T09:25:11Z</time></trkpt><trkpt lat="38.07152522421634" lon="13.36952941271103"><ele>227.0</ele><time>2026-04-26T09:25:14Z</time></trkpt><trkpt lat="38.07146207275692" lon="13.369476103551579"><ele>227.0</ele><time>2026-04-26T09:25:17Z</time></trkpt><trkpt lat="38.071351083756085" lon="13.369453019635083"><ele>227.0</ele><time>2026-04-26T09:25:20.001Z</time></trkpt><trkpt lat="38.07127549749437" lon="13.369391348282667"><ele>227.00000000000003</ele><time>2026-04-26T09:25:22.001Z</time></trkpt><trkpt lat="38.07120802799818" lon="13.369342530292373"><ele>227.0</ele><time>2026-04-26T09:25:24.001Z</time></trkpt><trkpt lat="38.0711285642251" lon="13.369285253633427"><ele>227.00000000000003</ele><time>2026-04-26T09:25:26.001Z</time></trkpt><trkpt lat="38.071013670751036" lon="13.369252543161107"><ele>227.0</ele><time>2026-04-26T09:25:28.001Z</time></trkpt><trkpt lat="38.07094491523257" lon="13.369263930560502"><ele>227.0</ele><time>2026-04-26T09:25:29.001Z</time></trkpt><trkpt lat="38.070982641489806" lon="13.369190755351976"><ele>227.0</ele><time>2026-04-26T09:25:34.001Z</time></trkpt><trkpt lat="38.071057310348394" lon="13.369171302791113"><ele>227.00000000000003</ele><time>2026-04-26T09:25:36.001Z</time></trkpt><trkpt lat="38.071123998064834" lon="13.369119503734249"><ele>227.0</ele><time>2026-04-26T09:25:39.001Z</time></trkpt><trkpt lat="38.07120102642945" lon="13.369075020482764"><ele>227.0</ele><time>2026-04-26T09:25:42.001Z</time></trkpt><trkpt lat="38.0712809571339" lon="13.369018053543508"><ele>227.00000000000003</ele><time>2026-04-26T09:25:46.001Z</time></trkpt><trkpt lat="38.07134232817463" lon="13.368980067080123"><ele>227.0</ele><time>2026-04-26T09:25:49.002Z</time></trkpt><trkpt lat="38.071415421340106" lon="13.368955653248786"><ele>227.0</ele><time>2026-04-26T09:25:52.002Z</time></trkpt><trkpt lat="38.071476205619405" lon="13.36892976640715"><ele>227.00000000000003</ele><time>2026-04-26T09:25:55.002Z</time></trkpt><trkpt lat="38.07155295211395" lon="13.368909414506135"><ele>227.0</ele><time>2026-04-26T09:25:58.002Z</time></trkpt><trkpt lat="38.07161788729699" lon="13.36889150980563"><ele>227.0</ele><time>2026-04-26T09:26:01.002Z</time></trkpt><trkpt lat="38.071688963331034" lon="13.368911437765863"><ele>224.42857142857144</ele><time>2026-04-26T09:26:05.002Z</time></trkpt><trkpt lat="38.071759301662055" lon="13.368917899850468"><ele>221.8571428571429</ele><time>2026-04-26T09:26:32.003Z</time></trkpt><trkpt lat="38.071827611998195" lon="13.368914365127859"><ele>219.28571428571428</ele><time>2026-04-26T09:26:36.003Z</time></trkpt><trkpt lat="38.07182137529313" lon="13.368826860079484"><ele>216.71428571428572</ele><time>2026-04-26T09:26:39.003Z</time></trkpt><trkpt lat="38.071772837401284" lon="13.368759109927346"><ele>214.14285714285714</ele><time>2026-04-26T09:26:41.003Z</time></trkpt><trkpt lat="38.071738602262315" lon="13.368679931210025"><ele>211.57142857142856</ele><time>2026-04-26T09:26:45.003Z</time></trkpt><trkpt lat="38.071685110678104" lon="13.368607228919592"><ele>209.0</ele><time>2026-04-26T09:26:49.003Z</time></trkpt><trkpt lat="38.0716838176971" lon="13.36852650470202"><ele>205.33333333333334</ele><time>2026-04-26T09:26:56Z</time></trkpt><trkpt lat="38.07175184365638" lon="13.368504441624138"><ele>201.66666666666669</ele><time>2026-04-26T09:26:59Z</time></trkpt><trkpt lat="38.07184593040098" lon="13.36846459946645"><ele>198.0</ele><time>2026-04-26T09:27:01Z</time></trkpt><trkpt lat="38.07192187037995" lon="13.368433135068964"><ele>194.33333333333334</ele><time>2026-04-26T09:27:02Z</time></trkpt><trkpt lat="38.07199812495708" lon="13.368384649111157"><ele>190.66666666666669</ele><time>2026-04-26T09:27:03Z</time></trkpt><trkpt lat="38.072086928508625" lon="13.368337582264841"><ele>187.0</ele><time>2026-04-26T09:27:04Z</time></trkpt><trkpt lat="38.07216866798295" lon="13.368322853823141"><ele>187.0</ele><time>2026-04-26T09:27:05Z</time></trkpt><trkpt lat="38.07224603387907" lon="13.368292998398756"><ele>187.0</ele><time>2026-04-26T09:27:06Z</time></trkpt><trkpt lat="38.072317474081956" lon="13.368267111170152"><ele>187.0</ele><time>2026-04-26T09:27:07Z</time></trkpt><trkpt lat="38.07238658749074" lon="13.368226166493674"><ele>187.0</ele><time>2026-04-26T09:27:08Z</time></trkpt><trkpt lat="38.07245326729852" lon="13.368204995872425"><ele>187.0</ele><time>2026-04-26T09:27:09Z</time></trkpt><trkpt lat="38.0725155418375" lon="13.368188563246125"><ele>187.0</ele><time>2026-04-26T09:27:10Z</time></trkpt><trkpt lat="38.07261580647759" lon="13.36819842106379"><ele>182.39999999999998</ele><time>2026-04-26T09:27:12Z</time></trkpt><trkpt lat="38.07268317912166" lon="13.3682464268859"><ele>177.79999999999998</ele><time>2026-04-26T09:27:14Z</time></trkpt><trkpt lat="38.07275744342047" lon="13.36828238819922"><ele>173.2</ele><time>2026-04-26T09:27:17Z</time></trkpt><trkpt lat="38.072853643727484" lon="13.368283577948919"><ele>168.6</ele><time>2026-04-26T09:31:42.001Z</time></trkpt><trkpt lat="38.072955805244625" lon="13.368262409072512"><ele>164.0</ele><time>2026-04-26T09:31:44.001Z</time></trkpt><trkpt lat="38.07309584515892" lon="13.368291763197474"><ele>164.0</ele><time>2026-04-26T09:31:46.001Z</time></trkpt><trkpt lat="38.073185181105785" lon="13.368297693789353"><ele>164.0</ele><time>2026-04-26T09:31:47.001Z</time></trkpt><trkpt lat="38.073280883817866" lon="13.368304741177369"><ele>164.0</ele><time>2026-04-26T09:31:48.001Z</time></trkpt><trkpt lat="38.07336424630745" lon="13.36831648134927"><ele>164.0</ele><time>2026-04-26T09:31:49.001Z</time></trkpt><trkpt lat="38.07344264448872" lon="13.368324657979388"><ele>164.0</ele><time>2026-04-26T09:31:50.001Z</time></trkpt><trkpt lat="38.07352207518835" lon="13.368338148196584"><ele>164.0</ele><time>2026-04-26T09:31:51.001Z</time></trkpt><trkpt lat="38.07359745321383" lon="13.368366886215243"><ele>160.0</ele><time>2026-04-26T09:31:52.001Z</time></trkpt><trkpt lat="38.07367816551643" lon="13.368398491446573"><ele>156.0</ele><time>2026-04-26T09:31:53.001Z</time></trkpt><trkpt lat="38.07375431271" lon="13.368413397609634"><ele>152.0</ele><time>2026-04-26T09:31:54.001Z</time></trkpt><trkpt lat="38.07385837851131" lon="13.368429361212312"><ele>148.0</ele><time>2026-04-26T09:31:56.001Z</time></trkpt><trkpt lat="38.073940838748676" lon="13.368457047218655"><ele>144.0</ele><time>2026-04-26T09:31:59.001Z</time></trkpt><trkpt lat="38.074061459366916" lon="13.368491649242426"><ele>141.16666666666666</ele><time>2026-04-26T09:32:01.001Z</time></trkpt><trkpt lat="38.074127664223" lon="13.368505273866152"><ele>138.33333333333334</ele><time>2026-04-26T09:32:02.001Z</time></trkpt><trkpt lat="38.074195995121265" lon="13.368540157501348"><ele>135.5</ele><time>2026-04-26T09:32:03.001Z</time></trkpt><trkpt lat="38.0742840362953" lon="13.368569530186264"><ele>132.66666666666669</ele><time>2026-04-26T09:32:04.001Z</time></trkpt><trkpt lat="38.07436932314745" lon="13.368608851457163"><ele>129.83333333333334</ele><time>2026-04-26T09:32:05.001Z</time></trkpt><trkpt lat="38.07443860531406" lon="13.368646733786967"><ele>127.0</ele><time>2026-04-26T09:32:06.001Z</time></trkpt><trkpt lat="38.07451684694418" lon="13.36867479778229"><ele>127.00000000000001</ele><time>2026-04-26T09:32:07.001Z</time></trkpt><trkpt lat="38.07459785414129" lon="13.368701261306482"><ele>127.0</ele><time>2026-04-26T09:32:08.001Z</time></trkpt><trkpt lat="38.074675949321865" lon="13.368714553820057"><ele>127.0</ele><time>2026-04-26T09:32:09.002Z</time></trkpt><trkpt lat="38.07476364604219" lon="13.368721079580117"><ele>127.0</ele><time>2026-04-26T09:32:10.002Z</time></trkpt><trkpt lat="38.074866418690924" lon="13.368720441296"><ele>127.00000000000001</ele><time>2026-04-26T09:32:11.002Z</time></trkpt><trkpt lat="38.07496129280506" lon="13.368721302455151"><ele>127.0</ele><time>2026-04-26T09:32:12.002Z</time></trkpt><trkpt lat="38.07506282834473" lon="13.368716765260343"><ele>124.0</ele><time>2026-04-26T09:32:13.002Z</time></trkpt><trkpt lat="38.07516182123563" lon="13.368711606089027"><ele>120.99999999999999</ele><time>2026-04-26T09:32:14.002Z</time></trkpt><trkpt lat="38.07525415642771" lon="13.368704888232202"><ele>117.99999999999999</ele><time>2026-04-26T09:32:15.002Z</time></trkpt><trkpt lat="38.075351714970736" lon="13.368700032783336"><ele>115.0</ele><time>2026-04-26T09:32:16.002Z</time></trkpt><trkpt lat="38.07544942344589" lon="13.368708752021865"><ele>112.0</ele><time>2026-04-26T09:32:17.002Z</time></trkpt><trkpt lat="38.07554729347386" lon="13.368705089577675"><ele>112.0</ele><time>2026-04-26T09:32:18.002Z</time></trkpt><trkpt lat="38.07564708010594" lon="13.368701176381174"><ele>111.99999999999999</ele><time>2026-04-26T09:32:19.002Z</time></trkpt><trkpt lat="38.07574318687435" lon="13.368676158351711"><ele>111.99999999999999</ele><time>2026-04-26T09:32:20.002Z</time></trkpt><trkpt lat="38.075843708878274" lon="13.368672094544022"><ele>112.0</ele><time>2026-04-26T09:32:21.002Z</time></trkpt><trkpt lat="38.07593689091105" lon="13.368660957263929"><ele>112.0</ele><time>2026-04-26T09:32:22.002Z</time></trkpt><trkpt lat="38.076032675024855" lon="13.368649423679058"><ele>109.39999999999999</ele><time>2026-04-26T09:32:23.002Z</time></trkpt><trkpt lat="38.07612542231343" lon="13.368645285982778"><ele>106.79999999999998</ele><time>2026-04-26T09:32:24.002Z</time></trkpt><trkpt lat="38.07622312941094" lon="13.368635678595266"><ele>104.2</ele><time>2026-04-26T09:32:25.002Z</time></trkpt><trkpt lat="38.07632180524466" lon="13.368622071064273"><ele>101.6</ele><time>2026-04-26T09:32:26.002Z</time></trkpt><trkpt lat="38.07642544314089" lon="13.368608618051983"><ele>99.0</ele><time>2026-04-26T09:32:27.002Z</time></trkpt><trkpt lat="38.07651968323822" lon="13.368593349079209"><ele>96.80000000000001</ele><time>2026-04-26T09:32:28.002Z</time></trkpt><trkpt lat="38.0766238399146" lon="13.368571381889033"><ele>94.60000000000001</ele><time>2026-04-26T09:32:29.002Z</time></trkpt><trkpt lat="38.076720574732214" lon="13.36854613442112"><ele>92.4</ele><time>2026-04-26T09:32:30.002Z</time></trkpt><trkpt lat="38.0768181092955" lon="13.368522797421754"><ele>90.2</ele><time>2026-04-26T09:32:31.002Z</time></trkpt><trkpt lat="38.07689892059846" lon="13.368499894543115"><ele>88.0</ele><time>2026-04-26T09:32:32.002Z</time></trkpt><trkpt lat="38.076986475809036" lon="13.368487915121733"><ele>88.0</ele><time>2026-04-26T09:32:33.002Z</time></trkpt><trkpt lat="38.077058951817" lon="13.368457043479232"><ele>88.0</ele><time>2026-04-26T09:32:34.002Z</time></trkpt><trkpt lat="38.07714702693382" lon="13.368445937935663"><ele>88.0</ele><time>2026-04-26T09:32:35.002Z</time></trkpt><trkpt lat="38.077237999092844" lon="13.36843442039119"><ele>88.0</ele><time>2026-04-26T09:32:36.002Z</time></trkpt><trkpt lat="38.07732003096853" lon="13.368425855477977"><ele>88.0</ele><time>2026-04-26T09:32:37.002Z</time></trkpt><trkpt lat="38.077400688240395" lon="13.368413783911029"><ele>88.0</ele><time>2026-04-26T09:32:38.002Z</time></trkpt><trkpt lat="38.0774761103528" lon="13.368399411633488"><ele>87.0</ele><time>2026-04-26T09:32:39.002Z</time></trkpt><trkpt lat="38.07755188520582" lon="13.368387040553877"><ele>86.0</ele><time>2026-04-26T09:32:40.002Z</time></trkpt><trkpt lat="38.0776285714391" lon="13.368372789220384"><ele>85.0</ele><time>2026-04-26T09:32:41.002Z</time></trkpt><trkpt lat="38.07772841928498" lon="13.368347155115025"><ele>84.0</ele><time>2026-04-26T09:32:43.003Z</time></trkpt><trkpt lat="38.07780145503351" lon="13.368327448085179"><ele>83.0</ele><time>2026-04-26T09:32:45.003Z</time></trkpt><trkpt lat="38.07787638560271" lon="13.368327230858606"><ele>82.0</ele><time>2026-04-26T09:32:49.003Z</time></trkpt><trkpt lat="38.07794332930566" lon="13.36836737368829"><ele>82.0</ele><time>2026-04-26T09:32:51.003Z</time></trkpt><trkpt lat="38.07803534816012" lon="13.368399419781476"><ele>82.0</ele><time>2026-04-26T09:32:53.003Z</time></trkpt><trkpt lat="38.078159977985834" lon="13.368384384238908"><ele>82.0</ele><time>2026-04-26T09:32:55.003Z</time></trkpt><trkpt lat="38.078226092583584" lon="13.36837897167288"><ele>82.0</ele><time>2026-04-26T09:32:56.003Z</time></trkpt><trkpt lat="38.078296517010955" lon="13.368380384436389"><ele>82.0</ele><time>2026-04-26T09:32:57.003Z</time></trkpt><trkpt lat="38.07837568655748" lon="13.368390324642036"><ele>82.0</ele><time>2026-04-26T09:32:58.003Z</time></trkpt><trkpt lat="38.07845373530387" lon="13.368407826853577"><ele>81.0</ele><time>2026-04-26T09:32:59.003Z</time></trkpt><trkpt lat="38.07852247750497" lon="13.368423377894603"><ele>80.0</ele><time>2026-04-26T09:33:00.003Z</time></trkpt><trkpt lat="38.07861054836275" lon="13.36843889674052"><ele>79.0</ele><time>2026-04-26T09:33:02.003Z</time></trkpt><trkpt lat="38.07872587411808" lon="13.368466616534702"><ele>78.0</ele><time>2026-04-26T09:33:08.003Z</time></trkpt><trkpt lat="38.078795834718214" lon="13.368471814651615"><ele>77.0</ele><time>2026-04-26T09:33:09.003Z</time></trkpt><trkpt lat="38.07887689173802" lon="13.368477491146974"><ele>76.0</ele><time>2026-04-26T09:33:09.999Z</time></trkpt><trkpt lat="38.07896644898998" lon="13.36847385783998"><ele>76.0</ele><time>2026-04-26T09:33:10.999Z</time></trkpt><trkpt lat="38.079067261979226" lon="13.36846004967488"><ele>76.0</ele><time>2026-04-26T09:33:11.999Z</time></trkpt><trkpt lat="38.079160471060675" lon="13.36844231230692"><ele>76.0</ele><time>2026-04-26T09:33:12.999Z</time></trkpt><trkpt lat="38.079252673783046" lon="13.368436623656967"><ele>76.0</ele><time>2026-04-26T09:33:13.999Z</time></trkpt><trkpt lat="38.07933799938081" lon="13.368429810956718"><ele>76.0</ele><time>2026-04-26T09:33:14.999Z</time></trkpt><trkpt lat="38.07942148581316" lon="13.368412579730187"><ele>75.83333333333333</ele><time>2026-04-26T09:33:15.999Z</time></trkpt><trkpt lat="38.07950273846968" lon="13.368382901089035"><ele>75.66666666666666</ele><time>2026-04-26T09:33:16.999Z</time></trkpt><trkpt lat="38.07958225504037" lon="13.368346153842673"><ele>75.5</ele><time>2026-04-26T09:33:17.999Z</time></trkpt><trkpt lat="38.079670659115436" lon="13.3683115052573"><ele>75.33333333333333</ele><time>2026-04-26T09:33:18.999Z</time></trkpt><trkpt lat="38.0797548764102" lon="13.368276764753835"><ele>75.16666666666667</ele><time>2026-04-26T09:33:19.999Z</time></trkpt><trkpt lat="38.07983502666141" lon="13.368248221600055"><ele>75.0</ele><time>2026-04-26T09:33:20.999Z</time></trkpt><trkpt lat="38.07992077794693" lon="13.368219973751515"><ele>74.66666666666667</ele><time>2026-04-26T09:33:21.999Z</time></trkpt><trkpt lat="38.08001157337703" lon="13.368187317264766"><ele>74.33333333333333</ele><time>2026-04-26T09:33:24Z</time></trkpt><trkpt lat="38.080080744181565" lon="13.368175937879043"><ele>74.0</ele><time>2026-04-26T09:33:35Z</time></trkpt><trkpt lat="38.08015197065845" lon="13.368149978891312"><ele>73.66666666666666</ele><time>2026-04-26T09:33:36Z</time></trkpt><trkpt lat="38.08023856165943" lon="13.36812472674892"><ele>73.33333333333333</ele><time>2026-04-26T09:33:37Z</time></trkpt><trkpt lat="38.08033472904859" lon="13.368103814790977"><ele>73.0</ele><time>2026-04-26T09:33:38Z</time></trkpt><trkpt lat="38.08044495555694" lon="13.368067643234395"><ele>73.0</ele><time>2026-04-26T09:33:39Z</time></trkpt><trkpt lat="38.08054725203951" lon="13.368037006845572"><ele>73.0</ele><time>2026-04-26T09:33:40Z</time></trkpt><trkpt lat="38.08064425830574" lon="13.368008380753565"><ele>73.0</ele><time>2026-04-26T09:33:41Z</time></trkpt><trkpt lat="38.080729681353766" lon="13.367982674711481"><ele>73.0</ele><time>2026-04-26T09:33:42Z</time></trkpt><trkpt lat="38.08081415862845" lon="13.367955983839423"><ele>73.0</ele><time>2026-04-26T09:33:43Z</time></trkpt><trkpt lat="38.08089242478773" lon="13.367932272562856"><ele>72.16666666666666</ele><time>2026-04-26T09:33:44.001Z</time></trkpt><trkpt lat="38.0809666860662" lon="13.367902908914733"><ele>71.33333333333333</ele><time>2026-04-26T09:33:45.001Z</time></trkpt><trkpt lat="38.08103536758834" lon="13.367876597561517"><ele>70.5</ele><time>2026-04-26T09:33:46.001Z</time></trkpt><trkpt lat="38.08110390588472" lon="13.367836523292276"><ele>69.66666666666667</ele><time>2026-04-26T09:33:47.001Z</time></trkpt><trkpt lat="38.08117769268423" lon="13.367837627619956"><ele>68.83333333333334</ele><time>2026-04-26T09:33:48.001Z</time></trkpt><trkpt lat="38.081251330960235" lon="13.36779865105016"><ele>68.0</ele><time>2026-04-26T09:33:49.001Z</time></trkpt><trkpt lat="38.08133382767527" lon="13.367786307462781"><ele>68.0</ele><time>2026-04-26T09:33:50.001Z</time></trkpt><trkpt lat="38.0814084483891" lon="13.3677686485377"><ele>68.0</ele><time>2026-04-26T09:33:51.001Z</time></trkpt><trkpt lat="38.08149137627123" lon="13.367743081581981"><ele>68.0</ele><time>2026-04-26T09:33:52.001Z</time></trkpt><trkpt lat="38.08158754483012" lon="13.367728320311782"><ele>68.0</ele><time>2026-04-26T09:33:53.001Z</time></trkpt><trkpt lat="38.081664205706424" lon="13.367713150323581"><ele>68.0</ele><time>2026-04-26T09:33:54.001Z</time></trkpt><trkpt lat="38.08173285618212" lon="13.367701247389983"><ele>68.0</ele><time>2026-04-26T09:33:55.001Z</time></trkpt><trkpt lat="38.081798139851514" lon="13.367686133644886"><ele>67.75</ele><time>2026-04-26T09:33:56.001Z</time></trkpt><trkpt lat="38.081907732506764" lon="13.367660481494866"><ele>67.5</ele><time>2026-04-26T09:33:58.001Z</time></trkpt><trkpt lat="38.08198383008439" lon="13.36765958842219"><ele>67.25</ele><time>2026-04-26T09:34:00.001Z</time></trkpt><trkpt lat="38.082086737919276" lon="13.367667330571878"><ele>67.0</ele><time>2026-04-26T09:34:02.001Z</time></trkpt><trkpt lat="38.08222445234601" lon="13.367837467519053"><ele>67.0</ele><time>2026-04-26T09:34:04.001Z</time></trkpt><trkpt lat="38.08229615072603" lon="13.367889500760539"><ele>67.0</ele><time>2026-04-26T09:34:05.001Z</time></trkpt><trkpt lat="38.08241374814501" lon="13.367949030028724"><ele>67.0</ele><time>2026-04-26T09:34:07.001Z</time></trkpt><trkpt lat="38.08247813328926" lon="13.36795775842272"><ele>67.0</ele><time>2026-04-26T09:34:08.001Z</time></trkpt><trkpt lat="38.08260625858478" lon="13.368014670700187"><ele>67.0</ele><time>2026-04-26T09:34:10.001Z</time></trkpt><trkpt lat="38.08269073278341" lon="13.368026994194311"><ele>66.5</ele><time>2026-04-26T09:34:11.001Z</time></trkpt><trkpt lat="38.08277665066136" lon="13.368051628746615"><ele>66.0</ele><time>2026-04-26T09:34:12.001Z</time></trkpt><trkpt lat="38.08284703909447" lon="13.36809665389409"><ele>65.5</ele><time>2026-04-26T09:34:13.001Z</time></trkpt><trkpt lat="38.08291721548113" lon="13.368122466617843"><ele>65.0</ele><time>2026-04-26T09:34:14.002Z</time></trkpt><trkpt lat="38.08299923578079" lon="13.368150328580477"><ele>64.5</ele><time>2026-04-26T09:34:15.002Z</time></trkpt><trkpt lat="38.08307530073714" lon="13.368171423717538"><ele>64.0</ele><time>2026-04-26T09:34:16.002Z</time></trkpt><trkpt lat="38.08315131653552" lon="13.368198346653807"><ele>63.99999999999999</ele><time>2026-04-26T09:34:17.002Z</time></trkpt><trkpt lat="38.08322515845284" lon="13.36821113179977"><ele>64.0</ele><time>2026-04-26T09:34:18.002Z</time></trkpt><trkpt lat="38.083298665269915" lon="13.368211880804214"><ele>64.0</ele><time>2026-04-26T09:34:19.002Z</time></trkpt><trkpt lat="38.08339126817742" lon="13.368224671788317"><ele>64.0</ele><time>2026-04-26T09:34:21.002Z</time></trkpt><trkpt lat="38.08346171137874" lon="13.368245614253025"><ele>63.99999999999999</ele><time>2026-04-26T09:34:25.002Z</time></trkpt><trkpt lat="38.08339788166674" lon="13.368217790374533"><ele>64.0</ele><time>2026-04-26T09:34:44.002Z</time></trkpt><trkpt lat="38.08330086698457" lon="13.368201954802903"><ele>63.99999999999999</ele><time>2026-04-26T09:34:46.003Z</time></trkpt><trkpt lat="38.0831913245353" lon="13.368194308128302"><ele>64.0</ele><time>2026-04-26T09:34:48.003Z</time></trkpt><trkpt lat="38.08310584342413" lon="13.368174578841064"><ele>64.0</ele><time>2026-04-26T09:34:49.003Z</time></trkpt><trkpt lat="38.08301713576113" lon="13.368168025069723"><ele>64.0</ele><time>2026-04-26T09:34:50.003Z</time></trkpt><trkpt lat="38.08296082597179" lon="13.368099420587551"><ele>63.99999999999999</ele><time>2026-04-26T09:34:51.003Z</time></trkpt><trkpt lat="38.082897930499776" lon="13.36807557195747"><ele>64.0</ele><time>2026-04-26T09:34:52.003Z</time></trkpt><trkpt lat="38.082780832352164" lon="13.368036863399885"><ele>64.16666666666666</ele><time>2026-04-26T09:34:54.003Z</time></trkpt><trkpt lat="38.082714898023845" lon="13.368013864017684"><ele>64.33333333333333</ele><time>2026-04-26T09:34:55.003Z</time></trkpt><trkpt lat="38.08264590084857" lon="13.36800432948349"><ele>64.5</ele><time>2026-04-26T09:34:56.003Z</time></trkpt><trkpt lat="38.08257355966345" lon="13.36798224073339"><ele>64.66666666666667</ele><time>2026-04-26T09:34:57.003Z</time></trkpt><trkpt lat="38.08246665842361" lon="13.367927952682702"><ele>64.83333333333334</ele><time>2026-04-26T09:34:59.003Z</time></trkpt><trkpt lat="38.082357042968106" lon="13.36789337436212"><ele>65.0</ele><time>2026-04-26T09:35:01.003Z</time></trkpt><trkpt lat="38.08229171499015" lon="13.367860845903758"><ele>65.33333333333334</ele><time>2026-04-26T09:35:02.003Z</time></trkpt><trkpt lat="38.082235035342954" lon="13.367809462229376"><ele>65.66666666666667</ele><time>2026-04-26T09:35:03.003Z</time></trkpt><trkpt lat="38.08212488540796" lon="13.367728735645745"><ele>66.0</ele><time>2026-04-26T09:35:05.003Z</time></trkpt><trkpt lat="38.082067037332074" lon="13.367687971420253"><ele>66.33333333333333</ele><time>2026-04-26T09:35:06.003Z</time></trkpt><trkpt lat="38.081966040471094" lon="13.367628393992886"><ele>66.66666666666666</ele><time>2026-04-26T09:35:08.003Z</time></trkpt><trkpt lat="38.08189928076285" lon="13.367587170604219"><ele>67.0</ele><time>2026-04-26T09:35:10.003Z</time></trkpt><trkpt lat="38.08188906666438" lon="13.367446771708945"><ele>67.0</ele><time>2026-04-26T09:35:12.003Z</time></trkpt><trkpt lat="38.08186143598035" lon="13.367367298667507"><ele>67.0</ele><time>2026-04-26T09:35:13.003Z</time></trkpt><trkpt lat="38.08183171645692" lon="13.367275052817563"><ele>67.0</ele><time>2026-04-26T09:35:14.003Z</time></trkpt><trkpt lat="38.08180188168145" lon="13.367181208357211"><ele>67.0</ele><time>2026-04-26T09:35:15.003Z</time></trkpt><trkpt lat="38.081770973020646" lon="13.367089963120467"><ele>67.0</ele><time>2026-04-26T09:35:15.999Z</time></trkpt><trkpt lat="38.08173811095738" lon="13.366998664983072"><ele>67.0</ele><time>2026-04-26T09:35:16.999Z</time></trkpt><trkpt lat="38.08170666614979" lon="13.366895527314915"><ele>66.83333333333333</ele><time>2026-04-26T09:35:17.999Z</time></trkpt><trkpt lat="38.08168672738022" lon="13.366808606890382"><ele>66.66666666666666</ele><time>2026-04-26T09:35:18.999Z</time></trkpt><trkpt lat="38.0816663123839" lon="13.366731086265462"><ele>66.5</ele><time>2026-04-26T09:35:19.999Z</time></trkpt><trkpt lat="38.081664968871785" lon="13.366641067420154"><ele>66.33333333333333</ele><time>2026-04-26T09:35:20.999Z</time></trkpt><trkpt lat="38.08163672992851" lon="13.36653892917803"><ele>66.16666666666667</ele><time>2026-04-26T09:35:21.999Z</time></trkpt><trkpt lat="38.08160630698357" lon="13.366435025246403"><ele>66.0</ele><time>2026-04-26T09:35:22.999Z</time></trkpt><trkpt lat="38.081570521272155" lon="13.36632191133202"><ele>66.8</ele><time>2026-04-26T09:35:23.999Z</time></trkpt><trkpt lat="38.08153263622546" lon="13.366210693016527"><ele>67.6</ele><time>2026-04-26T09:35:24.999Z</time></trkpt><trkpt lat="38.081490898872396" lon="13.366095486208465"><ele>68.4</ele><time>2026-04-26T09:35:25.999Z</time></trkpt><trkpt lat="38.08144962989514" lon="13.365982876721667"><ele>69.2</ele><time>2026-04-26T09:35:26.999Z</time></trkpt><trkpt lat="38.081398066493016" lon="13.365875866868318"><ele>70.0</ele><time>2026-04-26T09:35:27.999Z</time></trkpt><trkpt lat="38.08134118237011" lon="13.365795374982389"><ele>70.0</ele><time>2026-04-26T09:35:28.999Z</time></trkpt><trkpt lat="38.08129118835139" lon="13.365714599051055"><ele>70.0</ele><time>2026-04-26T09:35:30Z</time></trkpt><trkpt lat="38.08126342652415" lon="13.36564176291266"><ele>70.0</ele><time>2026-04-26T09:35:31Z</time></trkpt><trkpt lat="38.08124328348432" lon="13.365563418830186"><ele>70.0</ele><time>2026-04-26T09:35:32Z</time></trkpt><trkpt lat="38.08121618100215" lon="13.365474601142196"><ele>70.0</ele><time>2026-04-26T09:35:33Z</time></trkpt><trkpt lat="38.08119094484001" lon="13.365376971152338"><ele>70.0</ele><time>2026-04-26T09:35:34Z</time></trkpt><trkpt lat="38.08116124638673" lon="13.365278459832393"><ele>70.0</ele><time>2026-04-26T09:35:35Z</time></trkpt><trkpt lat="38.08113742174642" lon="13.365191004610626"><ele>70.16666666666666</ele><time>2026-04-26T09:35:36Z</time></trkpt><trkpt lat="38.08110995050247" lon="13.365099341744212"><ele>70.33333333333333</ele><time>2026-04-26T09:35:37Z</time></trkpt><trkpt lat="38.08107613381683" lon="13.36501066273672"><ele>70.5</ele><time>2026-04-26T09:35:38Z</time></trkpt><trkpt lat="38.08105106721026" lon="13.364913341239493"><ele>70.66666666666667</ele><time>2026-04-26T09:35:39Z</time></trkpt><trkpt lat="38.081025174345754" lon="13.36480484783188"><ele>70.83333333333334</ele><time>2026-04-26T09:35:40Z</time></trkpt><trkpt lat="38.08098519866475" lon="13.364678410502794"><ele>71.0</ele><time>2026-04-26T09:35:41Z</time></trkpt><trkpt lat="38.080942184604915" lon="13.364554088695046"><ele>71.0</ele><time>2026-04-26T09:35:42Z</time></trkpt><trkpt lat="38.08089949310643" lon="13.364441022833894"><ele>71.0</ele><time>2026-04-26T09:35:43Z</time></trkpt><trkpt lat="38.0808551153208" lon="13.364316360195149"><ele>71.0</ele><time>2026-04-26T09:35:44Z</time></trkpt><trkpt lat="38.080796205861326" lon="13.364197498587156"><ele>71.0</ele><time>2026-04-26T09:35:45Z</time></trkpt><trkpt lat="38.08075026103739" lon="13.364067868244128"><ele>71.0</ele><time>2026-04-26T09:35:46Z</time></trkpt><trkpt lat="38.0806960145394" lon="13.363941705035565"><ele>72.0</ele><time>2026-04-26T09:35:47Z</time></trkpt><trkpt lat="38.08066610597947" lon="13.363824361690806"><ele>73.0</ele><time>2026-04-26T09:35:48Z</time></trkpt><trkpt lat="38.08061744289498" lon="13.363725230042"><ele>74.0</ele><time>2026-04-26T09:35:49Z</time></trkpt><trkpt lat="38.08056834339861" lon="13.363639181702165"><ele>75.0</ele><time>2026-04-26T09:35:50Z</time></trkpt><trkpt lat="38.08053044974071" lon="13.363546142066964"><ele>76.0</ele><time>2026-04-26T09:35:51Z</time></trkpt><trkpt lat="38.08047443825475" lon="13.363477317014402"><ele>77.0</ele><time>2026-04-26T09:35:52Z</time></trkpt><trkpt lat="38.08040949200263" lon="13.363425893060729"><ele>77.0</ele><time>2026-04-26T09:35:53.001Z</time></trkpt><trkpt lat="38.08036146280667" lon="13.363366060057157"><ele>77.0</ele><time>2026-04-26T09:35:54.001Z</time></trkpt><trkpt lat="38.080271940713544" lon="13.363260845957408"><ele>77.0</ele><time>2026-04-26T09:35:56.001Z</time></trkpt><trkpt lat="38.080216151788164" lon="13.363196948142527"><ele>77.0</ele><time>2026-04-26T09:35:57.001Z</time></trkpt><trkpt lat="38.08018004446288" lon="13.363109025358158"><ele>77.0</ele><time>2026-04-26T09:35:58.001Z</time></trkpt><trkpt lat="38.08014263572229" lon="13.363001874683254"><ele>77.0</ele><time>2026-04-26T09:35:59.001Z</time></trkpt><trkpt lat="38.08010921911676" lon="13.36290502570294"><ele>76.66666666666667</ele><time>2026-04-26T09:36:00.001Z</time></trkpt><trkpt lat="38.08008084611448" lon="13.362805325699531"><ele>76.33333333333334</ele><time>2026-04-26T09:36:01.001Z</time></trkpt><trkpt lat="38.08006099820812" lon="13.36269754179535"><ele>76.0</ele><time>2026-04-26T09:36:02.001Z</time></trkpt><trkpt lat="38.08002957503309" lon="13.362599903557289"><ele>75.66666666666667</ele><time>2026-04-26T09:36:03.001Z</time></trkpt><trkpt lat="38.07999677640594" lon="13.362523549127483"><ele>75.33333333333333</ele><time>2026-04-26T09:36:04.001Z</time></trkpt><trkpt lat="38.07994717051986" lon="13.362408422935399"><ele>75.0</ele><time>2026-04-26T09:36:06.001Z</time></trkpt><trkpt lat="38.08001650279592" lon="13.362299793346862"><ele>75.0</ele><time>2026-04-26T09:36:10.001Z</time></trkpt><trkpt lat="38.08008840160044" lon="13.362258438676458"><ele>75.0</ele><time>2026-04-26T09:36:11.001Z</time></trkpt><trkpt lat="38.08016541940657" lon="13.362191011720796"><ele>75.0</ele><time>2026-04-26T09:36:12.001Z</time></trkpt><trkpt lat="38.080248146215546" lon="13.362130071785089"><ele>75.0</ele><time>2026-04-26T09:36:13.001Z</time></trkpt><trkpt lat="38.08032013638451" lon="13.362072293462168"><ele>75.0</ele><time>2026-04-26T09:36:14.001Z</time></trkpt><trkpt lat="38.08041096230883" lon="13.362011810814867"><ele>75.16666666666667</ele><time>2026-04-26T09:36:15.001Z</time></trkpt><trkpt lat="38.08050062281769" lon="13.36194682075407"><ele>75.33333333333333</ele><time>2026-04-26T09:36:16.001Z</time></trkpt><trkpt lat="38.080578220600636" lon="13.361889595654599"><ele>75.5</ele><time>2026-04-26T09:36:17.001Z</time></trkpt><trkpt lat="38.08065515100269" lon="13.361839934987016"><ele>75.66666666666666</ele><time>2026-04-26T09:36:18.001Z</time></trkpt><trkpt lat="38.08072971973582" lon="13.36178142792991"><ele>75.83333333333333</ele><time>2026-04-26T09:36:19.001Z</time></trkpt><trkpt lat="38.08079777980046" lon="13.361725490318891"><ele>76.0</ele><time>2026-04-26T09:36:20.001Z</time></trkpt><trkpt lat="38.0808617762692" lon="13.361678193751212"><ele>76.2</ele><time>2026-04-26T09:36:21.001Z</time></trkpt><trkpt lat="38.0809351694742" lon="13.361630888556563"><ele>76.39999999999999</ele><time>2026-04-26T09:36:23.002Z</time></trkpt><trkpt lat="38.08094311778145" lon="13.361536364289218"><ele>76.6</ele><time>2026-04-26T09:36:26.002Z</time></trkpt><trkpt lat="38.080925800324145" lon="13.36143690687616"><ele>76.8</ele><time>2026-04-26T09:36:27.002Z</time></trkpt><trkpt lat="38.08089324482875" lon="13.361302007081171"><ele>77.0</ele><time>2026-04-26T09:36:28.002Z</time></trkpt><trkpt lat="38.08085463995692" lon="13.361166084667842"><ele>77.0</ele><time>2026-04-26T09:36:29.002Z</time></trkpt><trkpt lat="38.08080354576395" lon="13.361010968206937"><ele>77.0</ele><time>2026-04-26T09:36:30.002Z</time></trkpt><trkpt lat="38.080749294574964" lon="13.36085620231991"><ele>77.0</ele><time>2026-04-26T09:36:31.002Z</time></trkpt><trkpt lat="38.080696236871745" lon="13.360682243341508"><ele>77.0</ele><time>2026-04-26T09:36:32.002Z</time></trkpt><trkpt lat="38.08063757356756" lon="13.360505516592216"><ele>76.66666666666667</ele><time>2026-04-26T09:36:33.002Z</time></trkpt><trkpt lat="38.08058120599357" lon="13.360320453517032"><ele>76.33333333333333</ele><time>2026-04-26T09:36:34.002Z</time></trkpt><trkpt lat="38.08051870546462" lon="13.360132475935293"><ele>76.0</ele><time>2026-04-26T09:36:35.002Z</time></trkpt><trkpt lat="38.08045180527627" lon="13.359945668539696"><ele>76.0</ele><time>2026-04-26T09:36:36.002Z</time></trkpt><trkpt lat="38.0803952378856" lon="13.359764436499818"><ele>76.0</ele><time>2026-04-26T09:36:37.002Z</time></trkpt><trkpt lat="38.08034413172616" lon="13.359589865779894"><ele>76.0</ele><time>2026-04-26T09:36:38.002Z</time></trkpt><trkpt lat="38.08028280883041" lon="13.359419281464474"><ele>76.0</ele><time>2026-04-26T09:36:39.002Z</time></trkpt><trkpt lat="38.080225222298324" lon="13.359247806467389"><ele>76.25</ele><time>2026-04-26T09:36:40.002Z</time></trkpt><trkpt lat="38.080167958744745" lon="13.359072175946123"><ele>76.5</ele><time>2026-04-26T09:36:41.002Z</time></trkpt><trkpt lat="38.08011196815275" lon="13.35888830419613"><ele>76.75</ele><time>2026-04-26T09:36:42.002Z</time></trkpt><trkpt lat="38.080052719550984" lon="13.358724014484984"><ele>77.0</ele><time>2026-04-26T09:36:43.002Z</time></trkpt><trkpt lat="38.08000670772326" lon="13.358581055604"><ele>77.0</ele><time>2026-04-26T09:36:44.002Z</time></trkpt><trkpt lat="38.07998210762972" lon="13.35845319948583"><ele>77.0</ele><time>2026-04-26T09:36:45.002Z</time></trkpt><trkpt lat="38.07998514058203" lon="13.35834607849976"><ele>77.0</ele><time>2026-04-26T09:36:46.002Z</time></trkpt><trkpt lat="38.08006825743677" lon="13.358173746885416"><ele>77.0</ele><time>2026-04-26T09:36:48.002Z</time></trkpt><trkpt lat="38.080146825519655" lon="13.35811812744715"><ele>77.0</ele><time>2026-04-26T09:36:49.002Z</time></trkpt><trkpt lat="38.08026993144264" lon="13.358053561127946"><ele>77.0</ele><time>2026-04-26T09:36:50.002Z</time></trkpt><trkpt lat="38.08039411538866" lon="13.357986308044897"><ele>77.0</ele><time>2026-04-26T09:36:51.002Z</time></trkpt><trkpt lat="38.08053239278421" lon="13.357918326012033"><ele>77.0</ele><time>2026-04-26T09:36:52.002Z</time></trkpt><trkpt lat="38.080674859448386" lon="13.357845755080126"><ele>77.0</ele><time>2026-04-26T09:36:53.002Z</time></trkpt><trkpt lat="38.080824680191185" lon="13.357770175599457"><ele>77.0</ele><time>2026-04-26T09:36:54.002Z</time></trkpt><trkpt lat="38.08097073612642" lon="13.357703923847502"><ele>77.0</ele><time>2026-04-26T09:36:55.002Z</time></trkpt><trkpt lat="38.08111312907341" lon="13.357638100214936"><ele>77.0</ele><time>2026-04-26T09:36:56.003Z</time></trkpt><trkpt lat="38.08125181842028" lon="13.357565455294438"><ele>77.0</ele><time>2026-04-26T09:36:57.003Z</time></trkpt><trkpt lat="38.08137067315601" lon="13.357500691141134"><ele>77.0</ele><time>2026-04-26T09:36:58.003Z</time></trkpt><trkpt lat="38.08146763345463" lon="13.357449436767189"><ele>77.0</ele><time>2026-04-26T09:36:59.003Z</time></trkpt><trkpt lat="38.08152962789465" lon="13.357425192530535"><ele>77.0</ele><time>2026-04-26T09:37:00.003Z</time></trkpt><trkpt lat="38.08163098726275" lon="13.357392207090916"><ele>77.0</ele><time>2026-04-26T09:37:02.003Z</time></trkpt><trkpt lat="38.081694743698286" lon="13.35738367542582"><ele>76.5</ele><time>2026-04-26T09:37:03.003Z</time></trkpt><trkpt lat="38.08177560410813" lon="13.357345676674433"><ele>76.0</ele><time>2026-04-26T09:37:04.003Z</time></trkpt><trkpt lat="38.081883557582934" lon="13.357290591967839"><ele>75.5</ele><time>2026-04-26T09:37:05.003Z</time></trkpt><trkpt lat="38.082002870010996" lon="13.357226999634213"><ele>75.0</ele><time>2026-04-26T09:37:06.003Z</time></trkpt><trkpt lat="38.08212357114616" lon="13.357169388388753"><ele>75.0</ele><time>2026-04-26T09:37:07.003Z</time></trkpt><trkpt lat="38.0822584305229" lon="13.35710757093351"><ele>75.0</ele><time>2026-04-26T09:37:08.003Z</time></trkpt><trkpt lat="38.08239709811325" lon="13.357041978812864"><ele>75.0</ele><time>2026-04-26T09:37:09.003Z</time></trkpt><trkpt lat="38.08253559718851" lon="13.356970687708918"><ele>75.0</ele><time>2026-04-26T09:37:10.003Z</time></trkpt><trkpt lat="38.0826826834257" lon="13.356897845563594"><ele>75.66666666666667</ele><time>2026-04-26T09:37:11.003Z</time></trkpt><trkpt lat="38.08283061349328" lon="13.356825332426432"><ele>76.33333333333334</ele><time>2026-04-26T09:37:12.003Z</time></trkpt><trkpt lat="38.08297301770879" lon="13.3567546048669"><ele>77.0</ele><time>2026-04-26T09:37:13.003Z</time></trkpt><trkpt lat="38.08311698246192" lon="13.356681528189233"><ele>77.0</ele><time>2026-04-26T09:37:14.003Z</time></trkpt><trkpt lat="38.08326064695049" lon="13.356602494581256"><ele>77.0</ele><time>2026-04-26T09:37:15.003Z</time></trkpt><trkpt lat="38.08340010786144" lon="13.35652528106289"><ele>77.0</ele><time>2026-04-26T09:37:16.003Z</time></trkpt><trkpt lat="38.08352616300136" lon="13.35645884946497"><ele>77.0</ele><time>2026-04-26T09:37:17.003Z</time></trkpt><trkpt lat="38.08364251466105" lon="13.356397081099123"><ele>76.25</ele><time>2026-04-26T09:37:18.003Z</time></trkpt><trkpt lat="38.08375347422437" lon="13.356337376222209"><ele>75.5</ele><time>2026-04-26T09:37:19.003Z</time></trkpt><trkpt lat="38.08385769137336" lon="13.356273563258974"><ele>74.75</ele><time>2026-04-26T09:37:20.003Z</time></trkpt><trkpt lat="38.083963617382835" lon="13.356211865467435"><ele>74.0</ele><time>2026-04-26T09:37:21.003Z</time></trkpt><trkpt lat="38.084067046034626" lon="13.356158625208703"><ele>74.2</ele><time>2026-04-26T09:37:21.999Z</time></trkpt><trkpt lat="38.08416936694327" lon="13.356126595630649"><ele>74.4</ele><time>2026-04-26T09:37:22.999Z</time></trkpt><trkpt lat="38.08428082692324" lon="13.356094595530433"><ele>74.6</ele><time>2026-04-26T09:37:23.999Z</time></trkpt><trkpt lat="38.084385266420576" lon="13.356055281589414"><ele>74.8</ele><time>2026-04-26T09:37:24.999Z</time></trkpt><trkpt lat="38.084460753621016" lon="13.356026318935498"><ele>75.0</ele><time>2026-04-26T09:37:25.999Z</time></trkpt><trkpt lat="38.0845311399127" lon="13.356004378737245"><ele>75.0</ele><time>2026-04-26T09:37:27.999Z</time></trkpt><trkpt lat="38.08460723840685" lon="13.355960563011845"><ele>75.0</ele><time>2026-04-26T09:37:30.999Z</time></trkpt><trkpt lat="38.08470991002899" lon="13.355945959981023"><ele>75.0</ele><time>2026-04-26T09:37:32.999Z</time></trkpt><trkpt lat="38.08476943655007" lon="13.355893851259914"><ele>75.0</ele><time>2026-04-26T09:37:33.999Z</time></trkpt><trkpt lat="38.08481971640842" lon="13.355826786426801"><ele>75.0</ele><time>2026-04-26T09:37:34.999Z</time></trkpt><trkpt lat="38.08486811793846" lon="13.35576221439221"><ele>75.0</ele><time>2026-04-26T09:37:35.999Z</time></trkpt><trkpt lat="38.08487774539902" lon="13.35566266419999"><ele>75.0</ele><time>2026-04-26T09:37:36.999Z</time></trkpt><trkpt lat="38.084891290524446" lon="13.355569964155613"><ele>75.0</ele><time>2026-04-26T09:37:38Z</time></trkpt><trkpt lat="38.084905571219984" lon="13.3554548203261"><ele>79.0</ele><time>2026-04-26T09:37:39Z</time></trkpt><trkpt lat="38.084925992696675" lon="13.355332567223972"><ele>79.0</ele><time>2026-04-26T09:37:40Z</time></trkpt><trkpt lat="38.0849490171614" lon="13.355217379819347"><ele>75.0</ele><time>2026-04-26T09:37:41Z</time></trkpt><trkpt lat="38.08494464502636" lon="13.355130028177383"><ele>75.0</ele><time>2026-04-26T09:37:42Z</time></trkpt></trkseg></trk></gpx>